[[{"header":{"parameterUnit":"m.s-1","parameterCategory":1,"la1":30.6,"la2":29.2853,"lo1":-89.7004,"lo2":-87.6739,"dy":0.0162,"dx":0.0183,"nx":112,"ny":82,"refTime":"2023-07-01T06:00:00:Z","depth":0,"parameterNumber":2,"parameterNumberName":"U-component_of_WINDS"},"data":[0.0,0.0,0.0,0.0,0.0,0.0,0.0,0.0,0.0,0.0,0.0,0.0,0.0,0.0,0.0,0.0,0.0,0.0,0.0,0.0,0.0,0.0,0.0,0.0,0.0,0.0,0.0,0.0,0.0,0.0,0.0,0.0,0.0,0.0,0.0,0.0,0.0,0.0,0.0,0.0,0.0,0.0,0.0,0.0,0.0,0.0,0.0,0.0,0.0,0.0,0.0,0.0,0.0,0.0,0.0,0.0,0.0,0.0,0.0,0.0,0.0,0.0,0.0,0.0,0.0,0.0,0.0,0.0,0.0,0.0,0.0,0.0,0.0,0.0,0.0,0.0,0.0,0.0,0.0,0.0,0.0,0.0,0.0,0.0,0.0,0.0,0.0,0.0,0.0,0.0,-3.3754,-3.6316,-3.8023,-3.8943,-3.8879,-3.7938,-3.6963,-3.6058,0.0,0.0,0.0,0.0,0.0,0.0,0.0,0.0,0.0,0.0,0.0,0.0,0.0,0.0,0.0,0.0,0.0,0.0,0.0,0.0,0.0,0.0,0.0,0.0,0.0,0.0,0.0,0.0,0.0,0.0,0.0,0.0,0.0,0.0,0.0,0.0,0.0,0.0,0.0,0.0,0.0,0.0,0.0,0.0,0.0,0.0,0.0,0.0,0.0,0.0,0.0,0.0,0.0,0.0,0.0,0.0,0.0,0.0,0.0,0.0,0.0,0.0,0.0,0.0,0.0,0.0,0.0,0.0,0.0,0.0,0.0,0.0,0.0,0.0,0.0,0.0,0.0,0.0,0.0,0.0,0.0,0.0,0.0,0.0,0.0,0.0,0.0,0.0,0.0,0.0,0.0,0.0,0.0,0.0,0.0,0.0,0.0,0.0,0.0,0.0,0.0,0.0,0.0,0.0,-3.3862,-3.7062,-3.8809,-3.9732,-3.9711,-3.8146,-3.7069,-3.6904,0.0,0.0,0.0,0.0,0.0,0.0,0.0,0.0,0.0,0.0,0.0,0.0,0.0,0.0,0.0,0.0,0.0,0.0,0.0,0.0,0.0,0.0,0.0,0.0,0.0,0.0,0.0,0.0,0.0,0.0,0.0,0.0,0.0,0.0,0.0,0.0,0.0,0.0,0.0,0.0,0.0,0.0,0.0,0.0,0.0,0.0,0.0,0.0,0.0,0.0,0.0,0.0,0.0,0.0,0.0,0.0,0.0,0.0,0.0,0.0,0.0,0.0,0.0,0.0,0.0,0.0,0.0,0.0,0.0,0.0,0.0,0.0,0.0,0.0,0.0,0.0,0.0,0.0,0.0,0.0,0.0,0.0,0.0,0.0,0.0,0.0,0.0,0.0,0.0,0.0,0.0,0.0,0.0,0.0,0.0,0.0,0.0,0.0,0.0,0.0,0.0,0.0,0.0,-3.4127,-3.578,-3.7337,-3.8864,-3.9789,-3.9785,-3.815,-3.7045,-3.6931,-3.4199,0.0,0.0,0.0,0.0,0.0,0.0,0.0,0.0,0.0,0.0,0.0,0.0,0.0,0.0,0.0,0.0,0.0,0.0,0.0,0.0,0.0,0.0,0.0,0.0,0.0,0.0,0.0,0.0,0.0,0.0,0.0,0.0,0.0,0.0,0.0,0.0,0.0,0.0,0.0,0.0,0.0,0.0,0.0,0.0,0.0,0.0,0.0,0.0,0.0,0.0,0.0,0.0,0.0,0.0,0.0,0.0,0.0,0.0,0.0,0.0,0.0,0.0,0.0,0.0,0.0,0.0,0.0,0.0,0.0,0.0,0.0,0.0,0.0,0.0,0.0,0.0,0.0,0.0,0.0,0.0,0.0,0.0,0.0,0.0,0.0,0.0,0.0,0.0,0.0,0.0,0.0,0.0,0.0,0.0,0.0,0.0,0.0,0.0,0.0,0.0,0.0,0.0,-3.5372,-3.7377,-3.7377,-3.8743,-3.9642,-3.9662,-3.8037,-3.6962,-3.6783,-3.4544,0.0,0.0,0.0,0.0,0.0,0.0,0.0,0.0,0.0,0.0,0.0,0.0,0.0,0.0,0.0,0.0,0.0,0.0,0.0,0.0,0.0,0.0,0.0,0.0,0.0,0.0,0.0,0.0,0.0,0.0,0.0,0.0,0.0,0.0,0.0,0.0,0.0,0.0,0.0,0.0,0.0,0.0,0.0,0.0,0.0,0.0,0.0,0.0,0.0,0.0,0.0,0.0,0.0,0.0,0.0,0.0,0.0,0.0,0.0,0.0,0.0,0.0,0.0,0.0,0.0,0.0,0.0,0.0,0.0,0.0,0.0,0.0,0.0,0.0,0.0,0.0,0.0,0.0,0.0,0.0,0.0,0.0,0.0,0.0,0.0,0.0,0.0,0.0,0.0,0.0,0.0,0.0,0.0,0.0,0.0,0.0,0.0,0.0,0.0,0.0,0.0,0.0,-3.5282,-3.7308,-3.7308,-3.8628,-3.9495,-3.9514,-3.786,-3.6795,-3.6712,-3.4957,0.0,0.0,0.0,0.0,0.0,0.0,0.0,0.0,0.0,0.0,0.0,0.0,0.0,0.0,0.0,0.0,0.0,0.0,0.0,0.0,0.0,0.0,0.0,0.0,0.0,0.0,0.0,0.0,0.0,0.0,0.0,0.0,0.0,0.0,0.0,0.0,0.0,0.0,0.0,0.0,0.0,0.0,0.0,0.0,0.0,0.0,0.0,0.0,0.0,0.0,0.0,0.0,0.0,0.0,0.0,0.0,0.0,0.0,0.0,0.0,0.0,0.0,0.0,0.0,0.0,0.0,0.0,0.0,0.0,0.0,0.0,0.0,0.0,0.0,0.0,0.0,0.0,0.0,0.0,0.0,0.0,0.0,0.0,0.0,0.0,0.0,0.0,0.0,0.0,0.0,0.0,0.0,0.0,0.0,0.0,0.0,0.0,0.0,0.0,0.0,0.0,0.0,-3.5522,-3.7231,0.0,-3.857,-3.9483,-3.9445,-3.8244,-3.7238,-3.6671,0.0,0.0,0.0,0.0,0.0,0.0,0.0,0.0,0.0,0.0,0.0,0.0,0.0,0.0,0.0,0.0,0.0,0.0,0.0,0.0,0.0,0.0,0.0,0.0,0.0,0.0,0.0,0.0,0.0,0.0,0.0,0.0,0.0,0.0,0.0,0.0,0.0,0.0,0.0,0.0,0.0,0.0,0.0,0.0,0.0,0.0,0.0,0.0,0.0,0.0,0.0,0.0,0.0,0.0,0.0,0.0,0.0,0.0,0.0,0.0,0.0,0.0,0.0,0.0,0.0,0.0,0.0,0.0,0.0,0.0,0.0,0.0,0.0,0.0,0.0,0.0,0.0,0.0,0.0,0.0,0.0,0.0,0.0,0.0,0.0,0.0,0.0,0.0,0.0,0.0,0.0,0.0,0.0,0.0,0.0,0.0,0.0,0.0,0.0,0.0,0.0,0.0,-3.3352,-3.5625,-3.7099,0.0,-3.8446,-3.9386,-3.932,-3.8417,-3.7492,-3.6582,0.0,0.0,0.0,0.0,0.0,0.0,0.0,0.0,0.0,0.0,0.0,0.0,0.0,0.0,0.0,0.0,0.0,0.0,0.0,0.0,0.0,0.0,0.0,0.0,0.0,0.0,0.0,0.0,0.0,0.0,0.0,0.0,0.0,0.0,0.0,0.0,0.0,0.0,0.0,0.0,0.0,0.0,0.0,0.0,0.0,0.0,0.0,0.0,0.0,0.0,0.0,0.0,0.0,0.0,0.0,0.0,0.0,0.0,0.0,0.0,0.0,0.0,0.0,0.0,0.0,0.0,0.0,0.0,0.0,0.0,0.0,0.0,0.0,0.0,0.0,0.0,0.0,0.0,0.0,0.0,0.0,0.0,0.0,0.0,0.0,0.0,0.0,0.0,0.0,0.0,0.0,0.0,0.0,0.0,0.0,0.0,0.0,0.0,0.0,0.0,0.0,0.0,-3.3306,-3.551,-3.6968,-3.6907,-3.8268,-3.917,-3.9101,-3.8313,-3.7405,0.0,0.0,0.0,0.0,0.0,0.0,0.0,0.0,0.0,0.0,0.0,0.0,0.0,0.0,0.0,0.0,0.0,0.0,0.0,0.0,0.0,0.0,0.0,0.0,0.0,0.0,0.0,0.0,0.0,0.0,0.0,0.0,0.0,0.0,0.0,0.0,0.0,0.0,0.0,0.0,0.0,0.0,0.0,0.0,0.0,0.0,0.0,0.0,0.0,0.0,0.0,0.0,0.0,0.0,0.0,0.0,0.0,0.0,0.0,0.0,0.0,0.0,0.0,0.0,0.0,0.0,0.0,0.0,0.0,0.0,0.0,0.0,0.0,0.0,0.0,0.0,0.0,0.0,0.0,0.0,0.0,0.0,0.0,0.0,0.0,0.0,0.0,0.0,0.0,0.0,0.0,0.0,0.0,0.0,0.0,0.0,0.0,0.0,0.0,0.0,0.0,0.0,0.0,-3.4003,-3.579,-3.6907,-3.6845,-3.8202,-3.9101,-3.9036,-3.8718,-3.7882,-3.6419,0.0,0.0,0.0,0.0,0.0,0.0,0.0,0.0,0.0,0.0,0.0,0.0,0.0,0.0,0.0,0.0,0.0,0.0,0.0,0.0,0.0,0.0,0.0,0.0,0.0,0.0,0.0,0.0,0.0,0.0,0.0,0.0,0.0,0.0,0.0,0.0,0.0,0.0,0.0,0.0,0.0,0.0,0.0,0.0,0.0,0.0,0.0,0.0,0.0,0.0,0.0,0.0,0.0,0.0,0.0,0.0,0.0,0.0,0.0,0.0,0.0,0.0,0.0,0.0,0.0,0.0,0.0,0.0,0.0,0.0,0.0,0.0,0.0,0.0,0.0,0.0,0.0,0.0,0.0,0.0,0.0,0.0,0.0,0.0,0.0,0.0,0.0,0.0,0.0,0.0,0.0,0.0,0.0,0.0,0.0,0.0,0.0,0.0,0.0,0.0,0.0,0.0,-3.47,-3.6055,-3.6963,-3.7177,-3.8312,-3.9021,-3.8921,-3.8851,-3.8063,-3.6333,0.0,0.0,0.0,0.0,0.0,0.0,0.0,0.0,0.0,0.0,0.0,0.0,0.0,0.0,0.0,0.0,0.0,0.0,0.0,0.0,0.0,0.0,0.0,0.0,0.0,0.0,0.0,0.0,0.0,0.0,0.0,0.0,0.0,0.0,0.0,0.0,0.0,0.0,0.0,0.0,0.0,0.0,0.0,0.0,0.0,0.0,0.0,0.0,0.0,0.0,0.0,0.0,0.0,0.0,0.0,0.0,0.0,0.0,0.0,0.0,0.0,0.0,0.0,0.0,0.0,0.0,0.0,0.0,0.0,0.0,0.0,0.0,0.0,0.0,0.0,0.0,0.0,0.0,0.0,0.0,0.0,0.0,0.0,0.0,0.0,0.0,0.0,0.0,0.0,0.0,0.0,0.0,0.0,0.0,0.0,0.0,0.0,0.0,0.0,0.0,0.0,0.0,-3.5304,-3.6292,-3.7028,-3.7729,-3.8516,-3.8921,-3.8822,-3.8773,-3.8036,-3.6314,0.0,0.0,0.0,0.0,0.0,0.0,0.0,0.0,0.0,0.0,0.0,0.0,0.0,0.0,0.0,0.0,0.0,0.0,0.0,0.0,0.0,0.0,0.0,0.0,0.0,0.0,0.0,0.0,0.0,0.0,0.0,0.0,0.0,0.0,0.0,0.0,0.0,0.0,0.0,0.0,0.0,0.0,0.0,0.0,0.0,0.0,0.0,0.0,0.0,0.0,0.0,0.0,0.0,0.0,0.0,0.0,0.0,0.0,0.0,0.0,-4.3183,0.0,0.0,0.0,0.0,0.0,0.0,0.0,0.0,0.0,0.0,0.0,0.0,0.0,0.0,0.0,0.0,0.0,0.0,0.0,0.0,0.0,0.0,0.0,0.0,0.0,0.0,0.0,0.0,0.0,0.0,0.0,0.0,0.0,0.0,0.0,0.0,0.0,0.0,0.0,0.0,0.0,-3.5367,-3.6203,-3.6941,-3.7715,-3.843,-3.8837,-3.8807,-3.8649,-3.8123,-3.7028,-3.6313,0.0,0.0,0.0,0.0,0.0,0.0,0.0,0.0,0.0,0.0,0.0,0.0,0.0,0.0,0.0,0.0,0.0,0.0,0.0,0.0,0.0,0.0,0.0,0.0,0.0,0.0,0.0,0.0,0.0,0.0,0.0,0.0,0.0,0.0,0.0,0.0,0.0,0.0,0.0,0.0,0.0,0.0,0.0,0.0,0.0,0.0,0.0,0.0,0.0,0.0,0.0,0.0,0.0,0.0,0.0,0.0,0.0,0.0,0.0,0.0,-4.4323,0.0,0.0,0.0,0.0,0.0,0.0,0.0,0.0,0.0,0.0,0.0,0.0,0.0,0.0,0.0,0.0,0.0,0.0,0.0,0.0,0.0,0.0,0.0,0.0,0.0,0.0,0.0,0.0,0.0,0.0,0.0,0.0,0.0,0.0,0.0,0.0,0.0,0.0,0.0,0.0,-3.5913,-3.6727,-3.7479,-3.8247,-3.8608,-3.8792,-3.8747,-3.8606,-3.8131,-3.7252,-3.6388,0.0,0.0,0.0,0.0,0.0,0.0,0.0,0.0,0.0,0.0,0.0,0.0,0.0,0.0,0.0,0.0,0.0,0.0,0.0,0.0,0.0,0.0,0.0,0.0,0.0,0.0,0.0,0.0,0.0,0.0,0.0,0.0,0.0,0.0,0.0,0.0,0.0,0.0,0.0,0.0,0.0,0.0,0.0,0.0,0.0,0.0,0.0,0.0,0.0,0.0,0.0,0.0,0.0,0.0,-4.9453,-4.9471,-4.9627,-4.97,-4.9557,-4.7315,-4.6099,-4.5618,0.0,0.0,0.0,0.0,0.0,0.0,0.0,0.0,0.0,0.0,0.0,0.0,0.0,0.0,0.0,0.0,0.0,0.0,0.0,0.0,0.0,0.0,0.0,0.0,0.0,-3.8565,-3.7924,0.0,0.0,0.0,0.0,0.0,0.0,0.0,0.0,0.0,0.0,0.0,0.0,-3.6699,-3.7423,-3.8062,-3.8818,-3.8837,-3.8765,-3.8707,-3.8559,-3.8188,-3.7453,-3.6591,-3.5685,0.0,0.0,0.0,0.0,0.0,0.0,0.0,0.0,0.0,0.0,0.0,0.0,0.0,0.0,0.0,0.0,0.0,0.0,0.0,0.0,0.0,0.0,0.0,0.0,0.0,0.0,0.0,0.0,0.0,0.0,0.0,0.0,-3.5299,-3.6337,0.0,0.0,0.0,0.0,0.0,0.0,0.0,0.0,0.0,0.0,0.0,0.0,0.0,0.0,-4.8094,-4.9079,-4.9596,-4.9678,-5.1317,-5.2098,-5.2123,-5.2882,-5.3234,-5.3172,-5.2135,0.0,-4.837,-4.8254,0.0,0.0,0.0,0.0,0.0,0.0,0.0,0.0,0.0,0.0,0.0,0.0,0.0,0.0,0.0,0.0,0.0,0.0,0.0,0.0,0.0,0.0,-4.0445,-4.1892,-4.1589,-4.0712,0.0,-3.829,-3.7148,-3.6728,0.0,0.0,0.0,0.0,0.0,0.0,0.0,0.0,-3.7522,-3.7734,-3.8005,-3.8818,-3.8795,-3.8723,-3.8707,-3.8512,-3.8362,-3.8253,-3.738,-3.6472,-3.558,-3.4549,0.0,0.0,0.0,0.0,0.0,0.0,0.0,0.0,0.0,0.0,0.0,0.0,0.0,0.0,0.0,0.0,0.0,0.0,0.0,0.0,0.0,0.0,0.0,0.0,0.0,0.0,0.0,0.0,0.0,-3.5074,-3.6423,-3.7368,-3.8681,-3.9513,0.0,0.0,0.0,0.0,0.0,0.0,0.0,0.0,0.0,-4.8085,-4.9015,-4.9901,-5.0736,-5.1639,-5.2108,-5.2143,-5.2899,-5.3273,-5.3286,-5.3713,-5.3894,-5.3874,-5.3576,-5.2798,-5.1646,-5.0186,-4.9078,-4.8281,0.0,0.0,0.0,0.0,0.0,0.0,-4.6529,0.0,0.0,0.0,0.0,0.0,0.0,0.0,0.0,0.0,0.0,0.0,0.0,0.0,0.0,-4.2725,-4.2565,-4.2096,-4.1613,-4.0926,-3.9789,0.0,-3.6996,-3.6699,-3.6577,0.0,0.0,0.0,0.0,-3.7108,-3.7801,-3.8178,-3.8504,-3.8855,-3.878,-3.8707,-3.8707,-3.853,-3.8399,-3.8399,-3.7528,-3.6618,-3.5742,-3.4801,-3.3717,0.0,0.0,0.0,0.0,0.0,0.0,0.0,0.0,0.0,0.0,0.0,0.0,0.0,0.0,0.0,0.0,0.0,0.0,0.0,0.0,0.0,0.0,0.0,0.0,0.0,0.0,0.0,0.0,-3.6581,-3.759,-3.8523,-4.0,-4.1007,0.0,0.0,0.0,0.0,0.0,0.0,-4.6803,-4.7701,-4.8878,-5.041,-5.1353,-5.2129,-5.2737,-5.3654,-5.421,-5.4436,-5.4679,-5.4899,-5.5118,-5.4948,-5.4881,-5.4882,-5.4719,-5.4506,-5.4137,-5.198,-5.06,-4.9842,-4.9629,-4.9391,0.0,-4.899,-4.8853,-4.8803,-4.88,-4.8799,-4.8576,-4.7209,0.0,-4.6153,-4.4617,0.0,0.0,0.0,0.0,-4.3257,-4.3443,0.0,-4.3309,-4.3492,-4.3321,-4.3109,-4.2965,-4.2754,-4.1738,0.0,-3.8071,-3.783,-3.746,0.0,0.0,0.0,0.0,-3.7968,-3.8172,-3.8608,-3.891,-3.891,-3.878,-3.8707,-3.8707,-3.853,-3.8399,-3.8399,-3.7709,-3.6924,-3.6063,-3.5105,-3.4217,-3.3349,0.0,0.0,0.0,0.0,0.0,0.0,0.0,0.0,0.0,0.0,0.0,0.0,0.0,0.0,0.0,0.0,0.0,0.0,0.0,0.0,0.0,0.0,0.0,0.0,0.0,0.0,0.0,0.0,0.0,-4.0252,-4.1235,0.0,0.0,0.0,0.0,-4.5614,-4.6482,-4.771,-4.9429,-5.0347,-5.1254,-5.2234,-5.3113,-5.3579,-5.3636,-5.4504,-5.5358,-5.6185,-5.7017,-5.7881,-5.87,-5.7877,-5.7533,-5.7552,-5.6732,-5.5909,-5.507,-5.4164,-5.3295,-5.2439,-5.1601,-5.0777,-4.9952,-4.9185,-4.8859,-4.8799,-4.8803,-4.8808,-4.8769,-4.8616,-4.8009,-4.716,-4.618,-4.5291,0.0,0.0,-4.3257,-4.3392,-4.413,-4.4284,-4.441,-4.5112,-4.4633,-4.4009,-4.3852,-4.3191,-4.224,0.0,-4.0196,-3.9368,-3.8418,0.0,-3.7156,-3.7922,-3.7968,-3.8172,-3.8934,-3.8956,-3.891,-3.891,-3.878,-3.8707,-3.8707,-3.853,-3.8399,-3.8399,-3.8236,-3.7792,-3.6977,-3.5964,-3.5058,-3.4251,-3.3319,0.0,0.0,0.0,0.0,0.0,0.0,0.0,0.0,0.0,0.0,0.0,0.0,0.0,0.0,0.0,0.0,0.0,0.0,0.0,0.0,0.0,0.0,0.0,0.0,0.0,0.0,0.0,0.0,-4.1174,-4.2558,0.0,-4.4691,-4.5544,-4.6414,-4.7345,-4.8732,-4.9819,-5.0438,-5.1834,-5.3278,-5.4742,-5.5123,-5.5856,-5.6977,-5.7288,-5.7599,-5.7904,-5.8266,-5.8606,-5.8927,-5.8666,-5.8276,-5.7786,-5.7469,-5.6842,-5.6023,-5.5778,-5.4833,-5.3511,-5.3182,-5.2871,-5.2516,-5.1652,-5.1328,-5.1232,-5.0661,-5.0446,-5.0309,-4.9729,-4.8929,-4.8107,-4.7769,-4.7029,-4.6242,-4.5906,-4.5327,-4.4878,-4.516,-4.5139,-4.5121,-4.5362,-4.515,-4.4908,-4.4772,-4.4451,-4.3916,-4.292,-4.1992,-4.1216,-4.0798,-4.039,-4.0192,-4.0437,-4.0393,-4.0435,-4.0676,-4.0104,-3.9667,-3.9667,-3.9093,-3.8707,-3.8707,-3.853,-3.8399,-3.8399,-3.8272,-3.7846,-3.7031,-3.6573,-3.5933,-3.5078,-3.4189,-3.3666,0.0,0.0,0.0,0.0,0.0,0.0,0.0,0.0,0.0,0.0,0.0,0.0,0.0,0.0,0.0,0.0,0.0,0.0,0.0,0.0,0.0,0.0,0.0,0.0,0.0,0.0,-4.124,-4.2396,-4.3822,-4.5066,-4.6014,-4.7129,-4.8137,-4.9035,-5.0477,-5.1565,-5.215,-5.3572,-5.5009,-5.6485,-5.685,-5.7586,-5.8799,-5.8801,-5.8958,-5.9244,-5.9316,-5.9483,-5.9772,-5.9546,-5.9153,-5.8613,-5.8047,-5.748,-5.691,-5.666,-5.5897,-5.4853,-5.4547,-5.4258,-5.3924,-5.3354,-5.313,-5.3018,-5.2149,-5.16,-5.1206,-5.0596,-4.98,-4.9055,-4.9029,-4.8379,-4.7585,-4.7281,-4.6694,-4.609,-4.5785,-4.5627,-4.555,-4.5429,-4.54,-4.536,-4.5224,-4.5148,-4.4909,-4.4265,-4.3345,-4.253,-4.2159,-4.1986,-4.1884,-4.1801,-4.1745,-4.1673,-4.1605,-4.0955,-4.0388,-4.0129,-3.9513,-3.9001,-3.8726,-3.8546,-3.8415,-3.8399,-3.8289,-3.7972,-3.743,-3.7022,-3.6525,-3.5921,-3.4997,-3.4436,-3.4268,0.0,0.0,0.0,0.0,0.0,0.0,0.0,0.0,0.0,0.0,0.0,0.0,0.0,0.0,0.0,0.0,0.0,0.0,0.0,0.0,0.0,0.0,0.0,-4.033,-4.1112,-4.2316,-4.403,-4.5006,-4.5916,-4.6885,-4.8527,-4.9873,-5.0682,-5.1631,-5.2919,-5.4647,-5.558,-5.6474,-5.7445,-5.8228,-5.8715,-5.8869,-5.8877,-5.9306,-6.0137,-6.021,-6.0669,-6.1464,-6.0695,-6.0312,-6.0204,-5.8554,-5.7813,-5.773,-5.6851,-5.6543,-5.6525,-5.5678,-5.4824,-5.408,-5.4057,-5.4012,-5.3845,-5.2991,-5.2087,-5.1284,-5.1215,-5.0671,-5.0014,-4.9876,-4.9233,-4.8361,-4.7514,-4.718,-4.6901,-4.5986,-4.5714,-4.5648,-4.5448,-4.541,-4.5361,-4.5235,-4.5148,-4.5091,-4.5022,-4.4202,-4.3246,-4.2341,-4.2061,-4.1972,-4.189,-4.1819,0.0,-4.1679,-4.1474,-4.1049,-4.0258,-4.001,-3.9588,-3.8799,-3.8593,-3.8478,-3.8399,-3.8338,-3.8274,-3.8209,-3.7329,-3.6795,-3.6712,-3.5736,-3.5171,-3.5013,0.0,0.0,0.0,0.0,0.0,0.0,0.0,0.0,0.0,0.0,0.0,0.0,0.0,0.0,0.0,0.0,0.0,0.0,0.0,0.0,0.0,0.0,-4.1061,-4.1083,-4.2431,-4.3848,-4.4998,-4.5908,-4.7031,-4.8558,-4.9721,-5.0721,-5.1587,-5.3003,-5.4381,-5.5584,-5.6414,-5.759,-5.9163,-5.9431,-5.9863,-6.0528,-6.0593,-6.0728,-6.0968,-6.1043,-6.1201,-6.1408,-6.1244,-6.085,-6.0234,-5.9131,-5.834,-5.773,-5.6851,-5.6543,-5.6582,-5.6338,-5.609,-5.58,-5.5174,-5.4131,-5.3016,-5.2774,-5.2087,-5.1307,-5.1276,-5.1089,-5.0855,-5.0834,-5.0161,-4.9388,-4.9143,-4.8132,-4.7028,-4.6727,-4.6177,-4.5657,-4.5504,-4.5429,-4.5381,-4.5359,-4.5213,-4.5084,-4.508,-4.4737,-4.4348,-4.4026,-4.3909,-4.3806,-4.3642,0.0,0.0,-4.3351,-4.274,-4.2218,-4.1936,-4.0754,-3.9868,-3.9604,-3.8905,-3.8478,-3.8399,-3.8338,-3.8274,-3.8209,-3.794,-3.7458,-3.6712,-3.6377,-3.5845,0.0,0.0,0.0,0.0,0.0,0.0,0.0,0.0,0.0,0.0,0.0,0.0,0.0,0.0,0.0,0.0,0.0,0.0,0.0,0.0,0.0,0.0,-4.1285,-4.2523,-4.29,-4.3901,-4.4948,-4.584,-4.705,-4.8212,-4.926,-5.0481,-5.1558,-5.2435,-5.3735,-5.5065,-5.6387,-5.7274,-5.8394,-5.9814,-6.0208,-6.0661,-6.1182,-6.1242,-6.1263,-6.1302,-6.1344,-6.1361,-6.1396,-6.1434,-6.1217,0.0,-5.9513,-5.8726,-5.8207,-5.6998,-5.6511,0.0,0.0,0.0,0.0,0.0,-5.497,-5.3743,-5.3367,-5.2645,-5.1824,-5.1433,-5.1258,-5.1206,-5.12,-5.08,-5.028,-4.9892,-4.8773,-4.7586,-4.7144,-4.6375,-4.5662,-4.5577,-4.5476,-4.539,-4.5399,-4.5256,-4.5136,-4.5114,0.0,0.0,-4.4764,-4.4659,-4.4537,-4.4373,-4.4314,-4.4255,0.0,-4.3568,-4.3063,-4.2683,-4.1372,-4.0341,-3.9963,-3.9114,0.0,0.0,0.0,-3.8289,-3.8209,-3.8157,0.0,0.0,0.0,-3.6738,0.0,0.0,0.0,0.0,-3.6171,-3.628,0.0,0.0,0.0,0.0,0.0,0.0,0.0,0.0,0.0,0.0,0.0,0.0,0.0,0.0,0.0,0.0,-4.231,-4.4224,-4.511,-4.5508,-4.6006,-4.6785,-4.8245,-4.9294,-4.9556,-5.1066,-5.2404,-5.328,-5.4235,-5.5488,-5.7144,0.0,0.0,0.0,0.0,-6.1108,-6.1192,-6.1201,-6.1225,-6.1287,-6.1295,-6.134,-6.1383,-6.1396,-6.1433,-6.1412,-5.9732,-5.9007,-5.8874,-5.7196,-5.6491,-5.6514,-5.6566,-5.6596,-5.66,-5.6598,-5.5985,0.0,0.0,0.0,0.0,-5.1569,-5.1252,-5.1211,-5.1205,-5.1156,-5.0946,-5.017,-4.9316,-4.8435,-4.7492,-4.6549,-4.58,-4.564,-4.5504,-4.5419,-4.5409,-4.5307,-4.5192,-4.5125,-4.5057,-4.4955,-4.4821,-4.4712,-4.4565,-4.4426,-4.434,0.0,-4.4199,-4.4042,-4.3651,-4.2894,0.0,0.0,-4.0207,-3.9249,-3.8643,-3.851,-3.843,-3.8354,-3.8225,-3.8088,-3.7984,-3.7899,-3.7864,-3.7756,-3.7554,-3.822,-3.853,-3.843,-3.7507,-3.7396,0.0,0.0,0.0,0.0,0.0,0.0,0.0,0.0,0.0,0.0,0.0,0.0,0.0,0.0,0.0,-4.2454,-4.3849,-4.5007,-4.5934,-4.7346,-4.8377,-4.8603,-4.8911,-4.9701,-5.1169,-5.2265,-5.3257,-5.4184,-5.5656,-5.6977,-5.8002,-5.8909,0.0,-6.0732,-6.0935,-6.1041,-6.1127,-6.1164,-6.121,-6.1217,0.0,0.0,-6.1325,-6.1369,-6.144,-6.1417,-5.9721,-5.9007,-5.8874,-5.7182,-5.6508,-5.6506,-5.6567,-5.6596,-5.66,-5.6601,-5.56,-5.4228,-5.4055,-5.2979,-5.1606,-5.1372,-5.13,-5.1278,-5.1211,-5.118,0.0,-5.0914,-5.0229,-4.9329,-4.8387,-4.7442,-4.656,-4.5855,-4.5577,-4.5476,-4.54,-4.535,-4.5265,-4.5192,-4.5091,-4.4967,-4.4883,-4.4757,-4.4632,-4.4496,-4.4411,-4.4344,-4.4214,-4.4169,-4.4017,-4.3691,-4.2282,-4.1246,-4.0999,-3.958,-3.8643,-3.851,-3.8385,-3.8323,-3.829,-3.8207,-3.8072,-3.7899,-3.851,-3.8725,-3.8538,-3.919,-3.9483,-3.9345,-3.898,-3.8832,0.0,0.0,0.0,0.0,0.0,0.0,0.0,0.0,0.0,0.0,0.0,-3.9195,-4.0469,0.0,-4.2109,-4.3806,-4.4877,-4.5982,-4.7353,-4.8339,-4.8938,-4.9037,-4.9449,-5.0281,-5.1631,-5.2568,-5.3486,-5.4391,-5.6038,-5.7379,-5.8248,-5.9117,-6.0008,-6.092,-6.0972,-6.1012,-6.1041,-6.1127,-6.1164,-6.1201,-6.1278,-6.1299,-6.1302,-6.1361,-6.1428,-6.1362,-5.968,-5.8978,-5.886,-5.7198,-5.6491,-5.6502,-5.6563,-5.6594,-5.66,-5.6601,-5.5777,-5.4581,-5.4141,-5.3147,-5.1968,-5.1505,-5.1339,-5.128,-5.1258,-5.1225,-5.1184,-5.1113,-5.0461,-4.9594,-4.8687,-4.7743,-4.6823,-4.5915,-4.5629,-4.5513,-4.5419,-4.5361,-4.5317,-4.5213,-4.5125,-4.5026,-4.4955,-4.4833,-4.4693,-4.4565,-4.4454,-4.4354,-4.4255,-4.4214,-4.4138,-4.3976,-4.2804,-4.1856,-4.1338,-3.9703,-3.8643,-3.851,-3.8417,-3.852,-3.8888,-3.8841,-3.8919,-3.9157,-3.9481,-3.9587,-3.9455,-4.0085,-4.0319,-4.0217,-4.044,-4.0253,0.0,0.0,0.0,0.0,0.0,0.0,0.0,-3.7974,-3.8804,-3.9523,-4.0281,-4.1072,-4.1958,-4.2924,-4.389,-4.4774,-4.584,-4.7072,-4.8548,-4.8928,-4.9131,-4.9402,-5.0145,-5.0952,-5.1848,-5.2762,-5.375,-5.4809,-5.6332,-5.7615,-5.8492,-5.9364,-6.0168,-6.0891,-6.0939,-6.0982,-6.1002,-6.1041,-6.1108,-6.1173,-6.1245,-6.1286,-6.1287,-6.1371,-6.1394,-6.1298,-5.9643,-5.8757,-5.8398,-5.7057,-5.6508,-5.6506,-5.6552,-5.6588,-5.6598,-5.6601,-5.5935,-5.4954,-5.4245,-5.3313,-5.2335,-5.1637,-5.1356,-5.1304,-5.1304,-5.124,-5.1194,-5.1122,-5.0603,-4.9847,-4.8973,-4.8058,-4.7121,-4.6179,-4.5894,-4.5827,-4.5707,-4.5783,-4.5866,-4.5753,-4.5532,-4.535,-4.5292,-4.5021,-4.477,-4.4646,-4.451,-4.4397,-4.4329,-4.4274,-4.4165,-4.4036,-4.3234,-4.2344,-4.144,-4.0028,-3.9132,-3.9017,-3.8937,-3.915,-3.9723,-3.9674,-3.9895,-4.0402,-4.0417,-4.0395,-4.0337,-4.0945,-4.1176,-4.1073,-4.1584,-4.1376,-3.8177,-3.8204,-3.8315,-3.8501,-3.9083,-3.9648,0.0,-4.047,-4.113,-4.1293,-4.1458,-4.1847,-4.273,-4.3657,-4.4599,-4.5528,-4.7047,-4.8263,-4.8591,-4.9337,-5.017,-5.0962,-5.1231,-5.1749,-5.2671,-5.3556,-5.4771,-5.6499,-5.7528,-5.8454,-5.9319,-6.0196,-6.0739,-6.0911,-6.0903,-6.0938,-6.1002,-6.1012,-6.1041,-6.1108,-6.1173,-6.1236,-6.1306,-6.1306,-6.1347,-6.1305,-5.9686,-5.8116,-5.6685,-5.6558,-5.6507,-5.6508,-5.6519,-5.6556,-5.6606,-5.6598,-5.5566,-5.4138,-5.4037,-5.2913,-5.1527,-5.1438,-5.1355,-5.1307,-5.1304,-5.1243,-5.1201,-5.1194,-5.1086,-5.0752,-4.9886,-4.8965,-4.8021,-4.7074,-4.6797,-4.6728,-4.6656,-4.7194,-4.768,-4.7599,-4.6929,-4.6332,-4.6244,-4.548,-4.4833,-4.4712,-4.4632,-4.4524,-4.4416,-4.4329,-4.4255,-4.4184,-4.3284,-4.2294,-4.1309,-4.1038,-4.0882,-4.082,-4.0738,-4.0691,-4.0663,-4.0595,-4.0509,-4.0402,-4.0957,-4.1221,-4.118,-4.183,-4.2101,-4.1958,-4.1956,-4.1784,-3.895,-3.9177,-3.9385,-3.9905,-4.0352,-4.0722,-4.0766,-4.1524,-4.2211,-4.2239,-4.3107,-4.3975,-4.4322,-4.517,-4.6098,0.0,-4.7843,-4.857,-4.9211,-5.0052,-5.0765,-5.1239,-5.2205,-5.3021,-5.3486,-5.3936,-5.4915,-5.6642,-5.7673,-5.8565,-5.9396,-6.0308,-6.0812,-6.0835,-6.0869,-6.0914,-6.0948,-6.0972,-6.1012,-6.1032,-6.1155,-6.1219,-6.1236,-6.1271,-6.0803,-5.9918,-5.9221,-5.7969,-5.6412,-5.6476,-5.65,-5.651,-5.6506,-5.6523,-5.6557,-5.6596,-5.5507,-5.4003,-5.4001,-5.2862,-5.1402,-5.1392,-5.1372,-5.1343,-5.1307,-5.1269,-5.1249,-5.1201,-5.1153,-5.09,-5.0028,-4.9477,-4.8917,-4.7983,-4.7734,-4.7694,-4.7586,-4.7828,-4.8038,-4.7907,-4.7545,-4.7086,-4.6542,-4.6045,-4.5507,-4.4896,-4.4699,-4.4565,-4.4468,-4.4401,-4.4314,-4.4214,-4.3299,-4.2545,-4.2115,-4.1544,-4.1188,-4.1158,-4.1062,-4.1165,-4.1483,-4.1431,-4.1542,-4.1867,-4.2098,-4.2163,-4.2065,-4.2286,-4.2305,-4.2103,-4.2079,-4.1948,-3.9719,-4.0002,-4.0215,-4.0761,-4.1205,-4.1503,-4.1535,-4.2276,-4.3037,-4.3307,-4.44,-4.5403,-4.5693,-4.6508,-4.7345,-4.8055,-4.8461,-4.8997,-4.9958,-5.0624,-5.123,-5.1901,-5.3048,-5.4016,-5.4569,-5.4753,-5.5447,-5.6939,-5.7927,-5.8832,-5.9701,-6.0395,-6.0777,-6.0777,-6.0835,-6.088,-6.0911,-6.0959,-6.0972,-6.1002,-6.1099,-6.1164,-6.121,-6.1263,-6.0536,-5.9225,-5.8997,-5.8059,-5.6714,-5.6541,-5.6484,-5.6496,-5.6511,-5.6492,-5.6506,-5.6571,-5.5642,-5.4316,-5.4081,-5.3022,-5.1723,-5.148,-5.1403,-5.1397,-5.1343,-5.1312,-5.1291,-5.1249,-5.118,-5.0989,-5.0332,-4.9937,-4.9553,-4.886,-4.867,-4.8632,-4.8507,-4.8654,-4.8759,-4.8668,-4.8384,-4.7963,-4.7335,-4.6736,-4.6098,-4.5387,-4.4934,-4.4646,-4.4537,-4.444,-4.4358,-4.4214,-4.3553,-4.3104,-4.3042,-4.2345,-4.1901,-4.1866,-4.1754,-4.1894,-4.2375,-4.2304,-4.2487,-4.2957,-4.286,-4.2745,-4.2649,-4.2546,-4.2405,-4.2205,-4.2124,-4.2016,-4.0616,-4.0721,-4.0788,-4.0889,-4.1595,-4.2283,-4.2347,-4.299,-4.385,-4.4827,-4.5064,-4.5426,-4.6387,-4.7319,-4.7994,-4.8094,-4.8923,-4.9864,-5.073,-5.0935,-5.1651,-5.3423,-5.3723,-5.443,0.0,-5.634,-5.6853,-5.7883,-5.8713,-5.9581,-6.0508,-6.066,-6.0697,-6.0697,-6.0777,-6.0835,-6.0911,-6.0891,-6.0938,-6.1002,-6.1012,-6.108,-6.121,-6.1263,-6.0856,-6.0022,-5.9244,-5.84,-5.7495,-5.6709,-5.644,-5.6496,-5.6494,-5.6494,-5.6511,-5.6575,-5.6025,-5.5135,-5.4296,-5.3414,-5.251,-5.1665,-5.1396,-5.1394,-5.1397,-5.1349,-5.1296,-5.1295,-5.1254,-5.1184,-5.1092,-5.0435,-4.9769,-4.9679,-4.9606,-4.9542,-4.9467,-5.0028,-5.0509,-5.0507,-4.9723,-4.9051,-4.9033,-4.7621,-4.6443,-4.6288,-4.5481,-4.4808,-4.4619,-4.4482,-4.4358,-4.4214,-4.4165,-4.4085,-4.3876,-4.3779,-4.3662,-4.3543,-4.3457,-4.3408,-4.3358,-4.3214,-4.3142,-4.3104,-4.2899,-4.2803,-4.2783,-4.2604,-4.2483,-4.2483,-4.2225,-4.2058,-4.1198,-4.1433,-4.1667,-4.2284,-4.2736,-4.3043,-4.3109,-4.3362,-4.3855,-4.4715,-4.5443,-4.6173,-4.7094,-4.8064,-4.8756,-4.8819,-4.9155,-4.9749,-5.0715,-5.139,-5.2239,-5.3414,-5.464,0.0,0.0,0.0,0.0,-5.8552,-5.8991,-5.9593,-6.05,-6.0604,-6.0923,-6.153,-6.1574,-6.163,-6.1701,-6.1697,-6.1434,-6.0927,-6.0991,-6.108,-6.1201,-6.1217,-6.0821,-6.0061,-5.9198,-5.8363,-5.7545,-5.6718,-5.6402,-5.6435,-5.6473,-5.6494,-5.6494,-5.6523,-5.6014,-5.5186,-5.4295,-5.3437,-5.2555,-5.1671,-5.1405,-5.1408,-5.1394,-5.1349,-5.13,-5.1296,-5.1258,-5.1185,-5.1117,-5.0881,-5.0655,-5.0586,-5.0507,-5.046,-5.0422,-5.0545,-5.0644,-5.0606,-5.0324,-4.9886,-4.9215,-4.8613,-4.7797,-4.6478,-4.5426,-4.4738,-4.4619,-4.4482,-4.4383,-4.4344,-4.4259,-4.4169,-4.4089,-4.3947,-4.3835,-4.3736,-4.3634,-4.3515,-4.3394,-4.3376,-4.3251,-4.3104,-4.303,-4.2936,-4.2803,-4.2647,-4.2546,-4.2483,-4.2325,-4.2163,-4.1976,-4.2232,-4.2468,-4.3051,-4.3305,-4.3429,-4.348,-4.3769,-4.4227,-4.5089,-4.604,-4.6974,-4.7861,-4.8629,-4.9118,-4.9166,-4.9489,-5.0105,-5.1055,-5.1996,-5.3031,-5.4254,-5.5431,-5.6402,0.0,0.0,0.0,-5.8907,-5.9368,-5.9972,-6.0841,-6.0966,-6.1402,-6.2336,-6.2382,-6.2298,-6.2072,-6.2062,-6.1674,-6.0891,-6.0971,-6.1061,-6.1137,-6.1173,-6.0771,-5.9976,-5.9163,-5.8331,-5.7495,-5.6692,-5.6373,-5.6393,-5.6453,-5.6476,-5.6498,-5.6492,-5.5983,-5.5176,-5.4291,-5.3437,-5.2558,-5.1676,-5.1394,-5.1398,-5.1408,-5.1369,-5.1327,-5.13,-5.1265,-5.1225,-5.115,-5.1125,-5.1082,-5.1042,-5.0986,-5.0933,-5.0913,-5.0827,-5.0729,-5.0644,-5.0615,-5.0392,-4.9742,-4.907,-4.8117,-4.6571,-4.5451,-4.4751,-4.4646,-4.4537,-4.4454,-4.4397,-4.43,-4.4229,-4.4199,-4.4011,-4.3883,-4.3853,-4.3684,-4.3566,-4.3481,-4.3429,-4.3341,-4.3215,-4.3141,-4.303,-4.2917,-4.2745,-4.2627,-4.2526,-4.2407,-4.2267,-4.2881,-4.2994,-4.3123,-4.3178,-4.3305,-4.3394,-4.348,-4.4121,-4.4965,-4.5899,-4.678,-4.7681,-4.8621,-4.8946,-4.9084,-4.9101,-4.9942,-5.0895,-5.1762,-5.2707,-5.3968,-5.5788,-5.6031,0.0,0.0,0.0,0.0,-5.9102,0.0,-6.0723,-6.154,-6.1706,-6.215,-6.3044,-6.3132,-6.2816,-6.2055,-6.1972,-6.1591,-6.0891,-6.096,-6.1002,-6.1012,-6.1137,-6.0717,-5.9854,-5.9111,-5.8297,-5.7444,-5.664,-5.6336,-5.6407,-5.6396,-5.6437,-5.6496,-5.6455,-5.5911,-5.5107,-5.4231,-5.3397,-5.2558,-5.1679,-5.14,-5.1408,-5.1398,-5.1408,-5.1374,-5.1265,-5.1241,-5.121,-5.1108,-5.1053,-5.1041,-5.1049,-5.103,-5.0978,-5.0914,-5.0893,-5.0855,-5.0729,-5.0644,-5.0596,-5.0536,-4.9009,-4.7479,-4.6546,-4.5561,-4.4846,-4.4706,-4.4646,-4.4551,-4.4426,-4.4358,-4.4289,-4.4199,-4.4026,-4.3897,-4.3897,-4.3734,-4.3599,-4.3599,-4.3481,-4.3412,-4.3394,-4.3215,-4.3104,-4.3104,-4.2898,-4.2745,-4.2609,-4.2526,-4.2364,-4.2844,-4.2919,-4.2994,-4.3105,-4.3196,-4.3269,-4.3394,-4.4087,-4.4947,-4.5791,-4.669,-4.7592,-4.8494,-4.8768,-4.8928,-4.9084,-4.9874,0.0,-5.1701,-5.2677,-5.3938,-5.5647,-5.6411,-5.7267,-5.8443,-5.9141,0.0,0.0,-6.1016,-6.13,-6.1506,-6.2209,-6.3026,-6.3944,-6.3996,-6.3617,-6.2835,-6.162,-6.0988,-6.0911,-6.0924,-6.0939,-6.1002,-6.1032,-6.0634,-5.9854,-5.9008,-5.8211,-5.7442,-5.6622,-5.6309,-5.6331,-5.6383,-5.6416,-5.634,-5.5739,-5.5028,-5.4213,-5.3334,-5.2881,-5.2558,-5.168,-5.1405,-5.1401,-5.139,-5.14,-5.1252,-5.0591,-5.0362,-5.0186,-4.9508,-4.9771,-5.0215,-5.0206,-5.0655,-5.1056,-5.0986,-5.0933,-5.0893,-5.0855,-5.071,-5.0394,-4.9739,-4.8607,-4.7494,-4.6609,-4.5624,-4.4938,-4.4783,-4.4672,-4.4578,-4.4551,-4.444,-4.4358,-4.427,-4.4165,-4.4058,-4.3897,-4.3849,-4.3767,-4.3599,-4.3583,-4.3497,-4.3412,-4.3251,-4.316,-4.3104,-4.2898,-4.2783,-4.2745,-4.2584,-4.2463,-4.2843,-4.2901,-4.2938,-4.3067,-4.316,-4.3233,-4.3358,-4.4069,-4.4947,-4.5736,-4.6654,-4.7574,-4.8403,-4.8678,-4.8841,-4.8946,-5.0051,-5.1085,-5.1673,-5.3196,-5.4779,-5.6163,-5.7079,-5.7957,-5.8891,-5.9794,-6.0562,0.0,-6.1315,-6.1747,-6.2502,-6.3074,-6.3798,-6.4707,-6.477,-6.4236,-6.3061,-6.148,-6.0753,-6.0812,-6.0869,-6.0924,-6.095,-6.0982,-6.0374,-5.927,0.0,-5.7951,-5.6854,-5.6426,-5.6272,-5.6309,-5.6336,-5.6145,-5.5773,-5.5361,-5.4433,-5.3312,-5.2865,-5.2456,-5.2043,-5.1561,-5.1406,-5.1405,-5.14,-5.1137,-5.0734,-5.0237,-4.9803,-4.9341,-4.8826,-4.9028,-4.9455,-4.9812,-5.0245,-5.0655,-5.0972,-5.0993,-5.0933,-5.0916,-5.0766,-5.0375,-4.949,-4.8565,-4.761,-4.6645,-4.5707,-4.5061,-4.4907,-4.4757,-4.4672,-4.4605,-4.4496,-4.443,-4.4358,-4.4259,-4.4153,-4.4042,-4.3963,-4.3849,-4.3751,-4.3649,-4.3548,-4.3498,-4.3358,-4.3269,-4.3233,-4.303,-4.2899,-4.2842,-4.2704,-4.2606,-4.2843,-4.2901,-4.2938,-4.3049,-4.3142,-4.3214,-4.334,-4.4051,-4.4929,-4.5736,-4.6636,-4.7519,-4.8365,-4.8642,-4.8769,-4.8787,-5.0301,-5.154,-5.1663,-5.3881,-5.5841,-5.6844,-5.767,-5.8588,-5.9637,-6.0479,-6.1061,-6.1287,-6.1477,-6.2271,-6.3796,-6.4064,-6.4454,-6.5118,-6.5066,-6.4335,-6.2834,-6.1397,-6.0673,-6.0685,-6.0812,-6.0869,-6.088,-6.0834,-5.9959,-5.8481,0.0,0.0,-5.609,-5.6156,-5.6232,-5.6272,-5.6167,-5.5689,-5.5079,-5.4907,-5.39,-5.26,-5.2534,-5.2025,-5.1398,-5.14,-5.1405,-5.1387,-5.1269,-5.0717,-5.0062,-4.9838,-4.9222,-4.8596,-4.8415,-4.8456,-4.8729,-4.9411,-4.9657,-4.9953,-5.0778,-5.0965,-5.0983,-5.0905,-5.0705,-5.0277,-4.9394,-4.852,-4.7568,-4.6515,-4.5757,-4.5243,-4.5049,-4.4907,-4.4776,-4.4646,-4.457,-4.4501,-4.4411,-4.43,-4.4229,-4.4214,-4.4042,-4.3929,-4.3913,-4.3751,-4.3615,-4.3599,-4.3481,-4.3412,-4.3394,-4.3215,-4.3049,-4.2919,-4.2842,-4.2745,-4.2843,-4.2901,-4.2919,-4.2938,-4.303,-4.3123,-4.3214,-4.3944,-4.4858,-4.5718,-4.6544,-4.7407,-4.8328,-4.8531,-4.8624,-4.8769,-5.0266,-5.1451,-5.1521,-5.3737,-5.5696,-5.6648,-5.7472,-5.8634,-6.034,-6.0659,0.0,0.0,0.0,-6.3317,-6.379,-6.4555,-6.4769,-6.4241,-6.3589,-6.2824,-6.192,-6.1004,-6.0565,-6.0617,-6.0704,-6.0757,-6.0804,-6.014,-5.9327,-5.8384,0.0,0.0,-5.602,-5.6098,-5.616,-5.6154,-5.5489,-5.5137,-5.4866,-5.3536,-5.2866,-5.2497,-5.1782,-5.1478,-5.1406,-5.1408,-5.14,-5.1269,-5.0547,-5.0253,-4.9878,-4.8442,-4.7884,-4.7561,-4.6882,-4.7219,-4.7747,-4.7872,-4.8389,-4.9054,-4.9914,-5.0571,-5.0971,-5.0898,-5.0289,-4.9498,-4.8572,-4.7643,-4.6723,-4.5812,-4.5465,-4.5297,-4.5246,-4.5026,-4.4846,-4.4757,-4.4659,-4.457,-4.4501,-4.4416,-4.4344,-4.4304,-4.4199,-4.4104,-4.3989,-4.3897,-4.3767,-4.3599,-4.3513,-4.3464,-4.3394,-4.3251,-4.3142,-4.3049,-4.2937,-4.2842,-4.2843,-4.2901,-4.2901,-4.2901,-4.2994,-4.3104,-4.3142,-4.3524,-4.4254,-4.5572,-4.6158,-4.6818,-4.8142,-4.8457,-4.8531,-4.8643,-5.0139,-5.1324,-5.1433,-5.4,-5.6071,-5.6594,-5.7791,-5.9084,-6.0435,-6.1037,-6.1902,0.0,0.0,0.0,-6.4245,-6.4799,-6.4745,-6.3969,-6.313,-6.2338,-6.1597,-6.0832,-6.0485,-6.0552,-6.0617,-6.0673,-6.0726,-5.9908,-5.9097,-5.8303,0.0,0.0,-5.5996,-5.602,-5.6078,-5.6063,-5.5267,-5.4692,-5.4179,-5.298,-5.2285,-5.1853,-5.1445,-5.1314,-5.1283,-5.0855,-5.072,-5.0658,-5.0272,-4.9531,-4.8671,-4.7846,-4.7252,-4.6793,-4.6394,-4.6587,-4.6989,-4.7407,-4.81,-4.8764,-4.9143,-4.951,-4.9724,-4.9609,-4.9262,-4.8694,-4.7788,-4.7204,-4.6565,-4.5683,-4.5477,-4.538,-4.5317,-4.5181,-4.5038,-4.4858,-4.4757,-4.4659,-4.4551,-4.4482,-4.4411,-4.4358,-4.4285,-4.4195,-4.4119,-4.4008,-4.3897,-4.3767,-4.3615,-4.3549,-4.3497,-4.3376,-4.3287,-4.3251,-4.3123,-4.3031,-4.2843,-4.2901,-4.2901,-4.2901,-4.2975,-4.3049,-4.3086,-4.3142,-4.3634,-4.5187,-4.5663,-4.6267,-4.7754,-4.8252,-4.8457,-4.8494,-4.9972,-5.1176,-5.1342,-5.4241,-5.6384,-5.6556,-5.807,-5.9456,-6.0299,-6.1317,0.0,0.0,0.0,0.0,-6.4688,-6.468,-6.4343,-6.3622,-6.2769,-6.196,-6.1213,-6.0657,-6.0422,-6.0458,-6.0539,-6.0521,-6.0341,-5.9557,-5.875,-5.797,0.0,0.0,0.0,-5.5987,-5.5924,-5.5722,-5.49,-5.4116,-5.3301,-5.2502,-5.1808,-5.1269,-5.1276,-5.1168,-5.092,-5.029,-5.0091,-5.0041,-4.972,-4.867,-4.7558,-4.7363,-4.6832,-4.6297,-4.6306,-4.6296,-4.6453,-4.7063,-4.784,-4.8424,-4.8349,-4.8483,-4.8571,-4.8458,-4.8287,-4.7927,-4.7213,-4.6854,-4.6433,-4.5727,-4.5568,-4.5467,-4.536,-4.5328,-4.5213,-4.5022,-4.4883,-4.477,-4.4672,-4.4592,-4.451,-4.444,-4.4387,-4.4314,-4.4244,-4.4116,-4.3989,-4.3929,-4.3749,-4.3667,-4.3651,-4.3516,-4.3429,-4.3411,-4.3286,-4.3215,-4.2843,-4.2901,-4.2901,-4.2901,-4.2919,-4.2938,-4.3068,-4.3104,-4.3378,-4.4327,-4.5205,-4.6066,-4.6963,-4.7772,-4.8363,-4.8476,-4.9876,-5.0985,-5.1195,-5.4049,-5.6206,-5.6384,-5.7895,0.0,-6.0219,-6.118,0.0,0.0,0.0,0.0,0.0,-6.4006,-6.3319,-6.2651,-6.1834,-6.1029,-6.0232,-6.0284,-6.0308,-6.0308,-6.0444,-6.0091,-5.93,-5.8559,-5.7776,-5.6982,0.0,0.0,0.0,-5.5943,-5.5543,-5.4744,-5.3933,-5.3146,-5.2323,-5.1534,-5.1189,-5.1122,-5.1201,-5.0722,-5.0116,-5.0038,-5.0048,-4.9817,-4.8236,-4.768,-4.7437,-4.664,-4.6367,-4.6307,-4.6296,-4.6306,-4.6308,-4.631,-4.6971,-4.7595,-4.7514,-4.8082,-4.8608,-4.8577,-4.7889,-4.7273,-4.7122,-4.6421,-4.5847,-4.5709,-4.564,-4.5568,-4.5485,-4.538,-4.5297,-4.5275,-4.5045,-4.4902,-4.487,-4.4764,-4.4659,-4.4578,-4.4528,-4.4458,-4.4383,-4.4255,-4.4119,-4.3989,-4.3913,-4.3851,-4.3788,-4.3651,-4.3566,-4.3497,-4.3411,-4.3323,-4.2881,-4.2901,-4.2901,-4.2901,-4.2901,-4.2901,-4.2975,-4.2975,-4.323,-4.416,-4.5036,-4.5896,-4.6834,-4.7677,-4.8267,-4.8363,-4.98,-5.0927,-5.1005,-5.395,-5.6145,-5.6206,-5.7813,-5.9255,0.0,0.0,0.0,0.0,0.0,0.0,0.0,-6.3312,-6.2856,-6.1633,-6.1292,-6.0771,-6.0041,-6.0091,-6.0137,-6.0163,-5.9784,-5.9434,-5.9092,-5.7832,-5.7102,-5.6779,0.0,0.0,0.0,-5.5258,-5.492,-5.4512,-5.3227,-5.2531,-5.2148,-5.1386,-5.1108,-5.1027,-5.057,-5.0228,-4.9826,-4.8787,-4.849,-4.841,-4.7717,-4.7183,-4.6743,-4.6402,-4.6308,-4.6308,-4.6307,-4.6296,-4.6296,-4.6279,-4.6488,-4.6709,-4.6684,-4.6924,-4.7121,-4.7056,-4.6727,-4.6453,-4.6384,-4.6053,-4.5791,-4.5761,-4.5695,-4.564,-4.5568,-4.5486,-4.5409,-4.5359,-4.5159,-4.4998,-4.4907,-4.4846,-4.477,-4.4672,-4.4592,-4.4524,-4.4454,-4.4373,-4.4285,-4.4177,-4.4039,-4.3961,-4.3913,-4.3802,-4.3703,-4.3669,-4.3566,-4.348,-4.2881,-4.2901,-4.2901,-4.2901,-4.2901,-4.2901,-4.2901,-4.2901,-4.3101,-4.3757,-4.4758,-4.5725,-4.6427,-4.7415,-4.8169,-4.8267,-4.9702,-5.0829,-5.0888,-5.3645,-5.5764,-5.6006,0.0,-5.8723,0.0,0.0,0.0,0.0,0.0,0.0,0.0,-6.2146,-6.2051,-6.1005,-6.0722,-6.0392,-5.9953,-5.9966,-5.988,-5.9707,-5.9211,-5.8735,-5.8257,-5.7154,-5.6543,0.0,0.0,0.0,0.0,-5.4802,-5.4371,-5.4082,-5.2715,-5.2023,-5.1749,-5.1237,-5.0894,-5.0616,-5.0058,-4.9573,-4.8998,-4.7795,-4.7276,-4.7115,-4.7125,-4.6737,-4.63,-4.6294,-4.6305,-4.6308,-4.6308,-4.6304,-4.6306,-4.6302,-4.6264,-4.622,-4.62,-4.6196,-4.6166,-4.6075,-4.6022,-4.5986,-4.5947,-4.5867,-4.5808,-4.5807,-4.5754,-4.5714,-4.5637,-4.5558,-4.5514,-4.5467,-4.5309,-4.514,-4.4991,-4.4967,-4.4895,-4.4776,-4.4706,-4.4646,-4.4551,-4.4487,-4.4416,-4.4358,-4.4177,-4.4082,-4.4082,-4.3929,-4.3867,-4.3851,-4.3718,-4.36,-4.2881,-4.2901,-4.2901,-4.2901,-4.2901,-4.2901,-4.2901,-4.2901,-4.2901,-4.2919,-4.4301,-4.5485,-4.5503,-4.6875,-4.805,-4.8187,-4.9541,-5.0666,-5.0868,-5.3023,-5.4925,0.0,-5.6744,-5.7643,-5.8437,0.0,0.0,0.0,0.0,0.0,0.0,0.0,-6.0586,-6.0898,-6.0068,-5.9669,-5.9809,-5.9872,-5.9536,-5.8798,-5.887,-5.8024,-5.644,-5.6472,0.0,0.0,0.0,0.0,0.0,-5.4739,-5.3964,-5.3234,-5.2423,-5.1619,-5.0908,-5.0909,-5.0407,-4.9722,-4.977,-4.8726,-4.7342,-4.7388,-4.6867,-4.6212,-4.6212,-4.6254,-4.6308,-4.6298,-4.6301,-4.6308,-4.6308,-4.6307,-4.6299,-4.6305,-4.63,-4.6275,-4.6214,-4.6203,-4.6196,-4.6196,-4.6089,-4.6002,-4.6002,-4.5933,-4.5886,-4.5814,-4.5807,-4.5778,-4.5715,-4.5646,-4.5594,-4.5594,-4.5485,-4.5341,-4.5213,-4.5136,-4.5045,-4.4907,-4.4895,-4.4833,-4.4712,-4.4565,-4.4501,-4.4501,-4.4373,-4.43,-4.43,-4.4101,-4.4005,-4.3989,-4.3867,-4.3686,-4.2737,-4.2901,-4.2901,-4.2901,-4.2901,-4.2901,-4.2901,-4.2901,-4.2901,-4.2901,-4.4225,-4.5388,-4.5485,-4.6813,-4.7947,-4.805,-4.9482,-5.0625,-5.0686,-5.2941,-5.4904,-5.5739,-5.7156,-5.8166,0.0,0.0,0.0,0.0,0.0,0.0,0.0,0.0,-5.9552,-5.9796,-5.9642,-5.9563,-5.965,-5.9154,-5.8769,-5.8567,-5.7506,-5.6751,-5.6316,-5.5779,0.0,0.0,0.0,0.0,0.0,-5.3774,-5.2984,-5.2201,-5.1385,-5.0961,-5.0775,-5.0872,-5.0387,-4.9621,-4.9044,-4.8134,-4.7144,-4.6618,-4.6275,-4.6066,-4.6126,-4.618,-4.6245,-4.6294,-4.6308,-4.6297,-4.6304,-4.6308,-4.6307,-4.6306,-4.6296,-4.6298,-4.6273,-4.6233,-4.6206,-4.6203,-4.6177,-4.6126,-4.6076,-4.6016,-4.5958,-4.5937,-4.5854,-4.5793,-4.5771,-4.5715,-4.5643,-4.5603,-4.5021,-4.4585,-4.4407,-4.4366,-4.4064,-4.3361,-4.3243,-4.3431,-4.4001,-4.3882,-4.4086,-4.4632,-4.4515,-4.4444,-4.4444,-4.4281,-4.4147,-4.4005,-4.3961,-4.3849,-4.2046,-4.2551,-4.2786,-4.2786,-4.2786,-4.2786,-4.2786,-4.2786,-4.2786,-4.2786,-4.4108,-4.5287,-4.5367,-4.671,-4.7842,-4.7947,-4.9378,-5.0498,-5.0522,-5.2538,-5.4448,-5.5656,0.0,0.0,0.0,0.0,0.0,0.0,0.0,0.0,0.0,0.0,-5.8517,-5.8652,-5.8803,-5.8931,-5.9021,-5.8264,-5.7748,-5.751,-5.65,-5.5916,-5.5708,0.0,0.0,0.0,0.0,0.0,0.0,-5.3299,-5.2494,-5.1715,-5.0902,-5.0625,-5.0644,-5.0437,-4.9851,-4.9049,-4.8193,-4.7377,-4.6597,-4.6121,-4.598,-4.6012,-4.608,-4.6154,-4.6203,-4.624,-4.6275,-4.6303,-4.6293,-4.6303,-4.6308,-4.6308,-4.6306,-4.6296,-4.6291,-4.6277,-4.6236,-4.624,-4.6216,-4.6185,-4.6145,-4.6075,-4.6037,-4.6,-4.5923,-4.5874,-4.5834,-4.5771,-4.5588,-4.5227,-4.4683,-4.4011,-4.3235,-4.3407,-4.33,-4.2692,-4.2558,-4.2739,-4.3259,-4.3168,-4.3322,-4.3813,-4.4024,-4.4113,-4.4113,-4.4294,-4.43,-4.4097,-4.4097,-4.4023,0.0,-4.1853,-4.2537,-4.2591,-4.2609,-4.2609,-4.2609,-4.2609,0.0,-4.2609,-4.3985,-4.5201,-4.5201,-4.6566,-4.7738,-4.784,-4.9225,-5.0326,-5.0375,-5.1999,0.0,0.0,-5.7181,0.0,0.0,0.0,0.0,0.0,0.0,0.0,0.0,0.0,0.0,-5.7481,-5.7621,-5.7791,-5.7977,-5.7258,-5.6553,-5.5883,-5.5826,-5.546,-5.4802,0.0,0.0,0.0,0.0,0.0,0.0,-5.3102,-5.2369,-5.1612,-5.0879,-5.0585,-5.051,-4.9749,-4.8975,-4.8177,-4.7376,-4.6535,-4.5814,-4.5886,-4.5947,-4.6007,-4.6075,-4.6142,-4.6203,-4.6195,-4.6243,-4.6298,-4.63,-4.6252,-4.6205,-4.621,-4.6152,-4.6113,-4.6128,-4.6118,-4.6126,-4.6124,-4.6108,-4.6105,-4.6102,-4.6107,-4.6084,-4.6012,-4.6002,-4.595,-4.5841,-4.5757,-4.5387,-4.4506,-4.4295,-4.3567,-4.1939,-4.237,-4.2671,-4.2536,-4.2534,-4.254,-4.2514,-4.2405,-4.2367,-4.2412,-4.3088,-4.3429,-4.3416,-4.4038,-4.4294,-4.4221,-4.4221,-4.4151,-3.9349,0.0,-4.1836,-4.2465,-4.2609,-4.2609,0.0,-4.2609,-4.2609,-4.2609,-4.3906,-4.506,-4.506,-4.6422,-4.7572,-4.7593,-4.9122,-5.0322,-5.0326,-5.2856,0.0,-5.5272,-5.6845,0.0,0.0,0.0,0.0,0.0,0.0,0.0,0.0,0.0,0.0,-5.6444,-5.5951,-5.6088,-5.6949,-5.6218,-5.5799,-5.5661,-5.5089,-5.4794,-5.4739,0.0,0.0,0.0,0.0,0.0,0.0,-5.1891,-5.136,-5.0635,-5.05,-5.0489,-5.0438,-4.9702,-4.8884,-4.8035,-4.7282,-4.6488,-4.581,-4.5886,-4.5956,-4.5994,-4.6026,-4.6108,-4.6201,-4.6203,-4.6206,-4.6245,-4.6284,-4.581,-4.5312,-4.5302,-4.4802,-4.4316,-4.4316,-4.4312,-4.4302,-4.431,-4.4846,-4.5277,-4.5209,-4.576,-4.615,-4.6089,-4.6027,-4.5778,-4.5135,-4.5006,-4.4596,-4.3685,-4.2975,-4.2374,-4.1928,-4.197,-4.1714,-4.0994,-4.0891,-4.1122,-4.1732,-4.1672,-4.1924,-4.2536,-4.2614,-4.2609,-4.2498,-4.2662,-4.2985,-4.3465,-4.3465,-4.3751,-3.8738,-4.0009,-4.1377,-4.1787,-4.2201,-4.247,-4.247,-4.247,-4.2577,-4.2933,-4.4014,-4.5024,-4.5383,-4.6532,-4.7407,-4.7407,-4.8934,-5.0409,0.0,0.0,-5.4742,-5.5158,-5.6359,0.0,0.0,0.0,0.0,0.0,0.0,0.0,0.0,0.0,0.0,0.0,-5.4694,-5.4833,-5.5939,-5.523,-5.489,-5.4906,-5.4562,-5.4458,-5.4541,0.0,0.0,0.0,0.0,0.0,-5.1285,-5.1408,-5.0988,-5.0267,-5.0325,-5.0401,-5.0314,-4.9181,-4.8452,-4.7885,-4.6754,-4.6097,-4.5773,-4.5833,-4.588,-4.5918,-4.5947,-4.6032,-4.6108,-4.6142,-4.6173,-4.6118,-4.5747,-4.5316,-4.4866,-4.4489,-4.4031,-4.3706,-4.3709,-4.3691,-4.3708,-4.3703,-4.4084,-4.4397,-4.4351,-4.4746,-4.504,-4.4962,-4.4915,-4.4729,-4.4268,-4.4169,-4.3796,-4.2858,-4.2336,-4.1854,-4.1396,-4.1316,-4.105,-4.0482,-4.0375,-4.0534,-4.0978,-4.0931,-4.1255,-4.2032,-4.1947,-4.2037,-4.233,-4.2307,-4.2454,-4.2787,-4.2761,-4.2945,-3.8507,-3.9664,-4.0806,-4.1038,-4.1609,-4.2144,-4.2272,-4.2287,-4.2498,-4.3319,-4.4171,-4.5004,-4.5831,-4.6689,-4.7298,-4.7298,-4.874,0.0,-5.2259,-5.3266,-5.4117,-5.4846,0.0,0.0,0.0,0.0,0.0,0.0,0.0,0.0,0.0,0.0,0.0,0.0,-5.3811,-5.3878,-5.4744,-5.4298,-5.3999,-5.3886,-5.4013,-5.4062,-5.3979,-5.3367,0.0,0.0,0.0,0.0,-5.0927,-5.1095,-5.078,-5.0194,-5.0243,-5.0237,-5.0007,-4.8522,-4.7884,-4.7578,-4.6106,-4.5646,-4.57,-4.5764,-4.5793,-4.5794,-4.5719,-4.5747,-4.5783,-4.5711,-4.5823,-4.5783,-4.4929,-4.4604,-4.4336,-4.3658,-4.339,-4.3299,-4.3291,-4.3299,-4.3301,-4.3301,-4.3412,-4.3494,-4.3509,-4.3611,-4.3685,-4.3617,-4.3604,-4.3525,-4.3348,-4.3321,-4.2966,-4.2024,-4.192,-4.159,-4.0776,-4.0712,-4.0662,-4.0542,-4.0462,-4.0433,-4.0413,-4.0342,-4.0596,-4.1207,-4.1166,-4.1466,-4.2134,-4.2079,-4.201,-4.1959,-4.2013,-4.2084,-3.781,-3.8451,-3.9468,-4.077,-4.1199,-4.1448,-4.2126,-4.2225,-4.2376,-4.3319,-4.406,-4.4809,-4.5659,-4.6597,-4.7223,-4.7223,-4.8623,-5.0297,0.0,0.0,-5.3616,0.0,0.0,0.0,0.0,0.0,0.0,0.0,0.0,0.0,0.0,0.0,0.0,0.0,0.0,-5.3123,-5.2747,-5.3496,-5.3535,-5.2919,-5.3046,-5.2796,-5.2207,-5.2137,-5.1785,0.0,0.0,0.0,-5.001,-5.0088,-5.0092,-5.0044,-5.0108,-4.9751,-4.9086,-4.8181,-4.7395,-4.6702,-4.5868,-4.5603,-4.5629,-4.57,-4.5749,-4.5671,-4.5001,-4.486,-4.476,-4.4015,-4.4385,-4.483,-4.4007,-4.3257,-4.2685,-4.2617,-4.2034,-4.15,-4.1503,-4.1494,-4.1501,-4.1504,-4.209,-4.2595,-4.2601,-4.3216,-4.3693,-4.37,-4.3646,-4.3325,-4.2574,-4.2486,-4.2119,-4.1179,-4.1073,-4.099,-4.0801,-4.0776,-4.0748,-4.0668,-4.0602,-4.053,-4.05,-4.043,-4.0372,-4.0376,-4.0377,-4.0406,-4.0471,-4.0449,-4.0433,-4.0363,-4.1033,-4.168,-3.7596,-3.7844,-3.8428,-3.9994,-4.0706,-4.124,-4.1961,-4.2076,-4.2409,-4.3659,-4.417,-4.4773,-4.599,-4.6593,-4.7196,-4.8174,0.0,-5.018,-5.1868,-5.248,0.0,0.0,0.0,0.0,0.0,0.0,0.0,0.0,0.0,0.0,0.0,0.0,0.0,0.0,0.0,0.0,-5.214,-5.2187,-5.2121,-5.1899,-5.2027,-5.193,-5.1625,-5.126,-5.0949,0.0,0.0,-4.9939,-4.9692,-4.9802,-4.9885,-4.9946,-5.0031,-4.96,-4.8805,-4.7544,-4.6609,-4.5916,-4.5592,-4.5513,-4.5491,-4.5071,-4.4982,-4.4882,-4.4093,-4.3878,-4.3763,-4.2892,-4.3352,-4.3908,-4.3054,-4.2564,-4.2201,-4.1749,-4.1337,-4.1057,-4.109,-4.1108,-4.11,-4.1105,-4.1423,-4.1699,-4.1697,-4.2024,-4.231,-4.2293,-4.2278,-4.2108,-4.1699,-4.1614,-4.1427,-4.1,-4.096,-4.0926,-4.0859,-4.0854,-4.0818,-4.07,-4.0636,-4.0593,-4.0564,-4.0496,-4.0422,-4.0362,-4.033,-4.0286,-4.0213,-4.0167,-4.0158,-4.0184,-4.0477,-4.0786,-3.7291,-3.7416,-3.7784,-3.9343,-4.0233,-4.0922,-4.1814,-4.1984,-4.2387,-4.3983,-4.4261,-4.4721,-4.6307,-4.659,-4.7157,-4.8912,-4.9281,-4.9949,-5.1656,0.0,0.0,0.0,0.0,0.0,0.0,0.0,0.0,0.0,0.0,0.0,0.0,0.0,0.0,0.0,0.0,0.0,-5.1385,-5.0824,-5.067,-5.0898,-5.1027,-5.1007,-5.0872,-5.0344,-5.0167,-5.0247,-4.9637,-4.943,-4.9559,-4.9692,-4.9788,-4.9838,-4.9717,-4.9112,-4.8116,-4.6709,-4.5831,-4.5359,-4.537,-4.5285,-4.5073,-4.4465,-4.419,-4.394,-4.3123,-4.292,-4.2789,-4.1938,-4.2257,-4.2708,-4.2049,-4.1926,-4.1809,-4.1146,-4.1003,-4.1013,-4.1078,-4.1085,-4.1101,-4.1108,-4.1101,-4.109,-4.1093,-4.1094,-4.1091,-4.1101,-4.1095,-4.1106,-4.1105,-4.1064,-4.1025,-4.1019,-4.1009,-4.0972,-4.093,-4.0902,-4.0864,-4.0748,-4.0675,-4.0622,-4.0615,-4.0574,-4.0557,-4.0546,-4.0481,-4.0414,-4.0345,-4.0302,-4.0297,-4.0319,-4.0196,-4.0139,-3.661,-3.6988,-3.7765,-3.9246,-3.9669,-4.0111,-4.1651,-4.1884,-4.2282,-4.3943,-4.4198,-4.4634,-4.6307,-4.659,-4.7127,-4.8668,-4.8958,-4.9508,0.0,0.0,0.0,0.0,0.0,0.0,0.0,0.0,0.0,0.0,0.0,0.0,0.0,0.0,0.0,0.0,0.0,0.0,-4.9578,-4.9523,-4.9665,-4.9991,-5.0065,-4.9748,-4.9093,-4.9161,-4.9243,-4.9305,-4.9295,-4.9337,-4.943,-4.9559,-4.9648,-4.9646,-4.898,-4.7782,-4.6383,-4.551,-4.5216,-4.5213,-4.5297,-4.4832,-4.4212,-4.4202,-4.3756,-4.3025,-4.2151,-4.1944,-4.1824,-4.1022,-4.0849,-4.091,-4.098,-4.1009,-4.1003,-4.1007,-4.0995,-4.0993,-4.101,-4.1067,-4.1093,-4.1104,-4.1091,-4.1097,-4.1107,-4.1093,-4.1094,-4.1094,-4.1108,-4.1095,-4.1108,-4.1097,-4.1081,-4.1098,-4.1039,-4.0993,-4.0992,-4.0937,-4.0891,-4.0898,-4.0757,-4.0699,-4.0687,-4.0694,-4.0693,-4.0684,-4.0622,-4.0539,-4.0489,-4.0479,-4.0449,-4.0398,-4.0316,-4.029,-3.6391,-3.6595,-3.7068,-3.9102,-3.9494,-3.9813,-4.1402,-4.2097,-4.2703,-4.3716,-4.4266,-4.4933,-4.6028,-4.6374,-4.6824,-4.7918,-4.8558,0.0,0.0,0.0,0.0,0.0,0.0,0.0,0.0,0.0,0.0,0.0,0.0,0.0,0.0,0.0,0.0,0.0,0.0,0.0,0.0,-4.876,-4.8626,-4.884,-4.8992,-4.8938,-4.8732,-4.8857,-4.8945,-4.9029,-4.9131,-4.9246,-4.9299,-4.8904,-4.8769,-4.871,-4.7516,-4.6714,-4.6139,-4.5326,-4.5091,-4.5071,-4.4598,-4.4262,-4.3875,-4.2852,-4.2391,-4.2068,-4.1195,-4.0992,-4.0966,-4.0653,-4.0607,-4.0681,-4.0804,-4.0842,-4.0854,-4.0921,-4.0943,-4.096,-4.0991,-4.102,-4.1048,-4.1044,-4.1079,-4.1095,-4.1095,-4.1101,-4.1107,-4.1092,-4.1093,-4.1091,-4.1106,-4.1098,-4.1106,-4.1094,-4.1086,-4.1058,-4.0993,-4.0976,-4.0957,-4.0952,-4.0878,-4.0821,-4.0818,-4.0781,-4.0757,-4.0765,-4.0694,-4.0654,-4.0619,-4.0583,-4.0531,-4.046,-4.0444,-4.0394,-3.5974,-3.6221,-3.6643,-3.8693,-3.9256,-3.9635,-4.0911,-4.1993,-4.2911,-4.3511,-4.4464,-4.5336,-4.5835,-4.6097,-4.6467,0.0,0.0,0.0,0.0,0.0,0.0,0.0,0.0,0.0,0.0,0.0,0.0,0.0,0.0,0.0,0.0,0.0,0.0,0.0,0.0,0.0,0.0,-4.82,-4.7901,-4.7764,-4.79,-4.8033,-4.8181,-4.8308,-4.8267,-4.8094,-4.8217,-4.835,-4.8421,-4.7919,-4.7631,-4.7381,-4.6391,-4.5885,-4.566,-4.5135,-4.4815,-4.457,-4.4041,-4.3566,-4.2992,-4.1828,-4.1361,-4.1119,-4.0516,-4.0394,-4.0476,-4.0465,-4.0527,-4.0593,-4.0713,-4.0757,-4.0796,-4.0849,-4.0864,-4.0898,-4.0943,-4.0976,-4.0963,-4.1,-4.1045,-4.1089,-4.1092,-4.1101,-4.1091,-4.1105,-4.1091,-4.1093,-4.1094,-4.1091,-4.1103,-4.1094,-4.1094,-4.1072,-4.1037,-4.1022,-4.1023,-4.1025,-4.0984,-4.0936,-4.0893,-4.0888,-4.0848,-4.0823,-4.0787,-4.0757,-4.0733,-4.0681,-4.0633,-4.0569,-4.0542,-4.0508,-3.5325,-3.5844,-3.6557,-3.8021,-3.8851,-3.9473,-4.0154,-4.1473,-4.2777,-4.3367,-4.4734,-4.5795,-4.5795,-4.5795,0.0,-4.6873,0.0,0.0,0.0,0.0,0.0,0.0,0.0,0.0,0.0,0.0,0.0,0.0,0.0,0.0,0.0,0.0,0.0,0.0,0.0,0.0,0.0,-4.7822,-4.7525,-4.6787,-4.6787,-4.6962,-4.7297,-4.7369,-4.6996,-4.6305,-4.6442,-4.6543,-4.6605,-4.666,-4.6297,-4.5693,-4.5763,-4.5343,-4.4712,-4.477,-4.4322,-4.3713,-4.3753,-4.2737,-4.1402,-4.1383,-4.0853,-4.0205,-4.0205,-4.0289,-4.0396,-4.0408,-4.0438,-4.0504,-4.058,-4.0635,-4.0693,-4.0776,-4.0807,-4.0823,-4.0878,-4.0907,-4.093,-4.0995,-4.1,-4.1016,-4.1092,-4.1098,-4.1097,-4.1108,-4.1094,-4.1102,-4.1091,-4.1093,-4.1093,-4.11,-4.1094,-4.1106,-4.1095,-4.1103,-4.1108,-4.1078,-4.1095,-4.1029,-4.0913,-4.0967,-4.0965,-4.0907,-4.0902,-4.0876,-4.08,-4.079,-4.0778,-4.07,-4.0628,-4.0593,-3.4495,-3.5073,-3.583,-3.7262,-3.8543,-3.9557,-4.0044,-4.1428,-4.2917,-4.3989,-4.4973,-4.5641,-4.5641,-4.5736,0.0,0.0,0.0,0.0,0.0,0.0,0.0,0.0,0.0,0.0,0.0,0.0,0.0,0.0,0.0,0.0,0.0,0.0,0.0,0.0,0.0,0.0,0.0,0.0,-4.6701,-4.6567,-4.6123,-4.6005,-4.625,-4.6324,-4.6285,-4.6152,-4.6289,-4.6407,-4.6487,-4.605,-4.5443,-4.4796,-4.4853,-4.4772,-4.4557,-4.4064,-4.3744,-4.3391,-4.229,-4.1628,-4.116,-4.0596,-4.0297,-4.0138,-4.0138,-4.0187,-4.0252,-4.027,-3.9891,-3.9525,-3.9592,-3.921,-3.9134,-4.0429,-4.0724,-4.0742,-4.0823,-4.0863,-4.0908,-4.0935,-4.0941,-4.0945,-4.102,-4.1019,-4.1059,-4.1093,-4.1092,-4.1108,-4.1102,-4.109,-4.1093,-4.1093,-4.111,-4.1104,-4.1094,-4.1109,-4.0751,-3.9954,-4.0071,-4.0418,-4.0956,-4.0991,-4.0996,-4.0967,-4.0911,-4.0888,-4.0873,-4.0862,-4.0843,-4.077,-4.0759,-4.0726,-3.4109,-3.4781,-3.549,-3.6555,-3.8174,-3.9669,-4.0388,-4.1725,-4.3138,-4.4204,-4.5018,-4.5528,-4.5528,-4.5581,0.0,0.0,0.0,0.0,0.0,0.0,0.0,0.0,0.0,0.0,0.0,0.0,0.0,0.0,0.0,0.0,0.0,0.0,0.0,0.0,0.0,0.0,0.0,0.0,0.0,-4.5502,-4.5111,-4.4849,-4.4729,-4.5169,-4.5278,-4.5072,-4.5226,-4.5379,-4.544,-4.5047,-4.467,-4.4329,-4.4401,-4.4266,-4.3998,-4.357,-4.302,-4.2329,-4.139,-4.087,-4.0526,-4.0081,-3.9965,-4.0026,-4.0057,-4.0118,-4.0091,-3.9729,-3.9364,-3.8984,-3.8682,-3.8289,-3.8231,-3.9354,-3.9644,-3.9689,-3.9755,-3.9802,-3.9843,-3.9859,-3.9897,-3.9913,-3.9957,-3.9963,-3.9987,-4.0064,-4.0362,-4.0582,-4.0581,-4.0885,-4.1107,-4.1091,-4.0801,-4.0624,-4.0621,-4.0306,-3.9814,-3.9124,-3.9238,-3.9536,-4.0031,-4.0346,-4.0698,-4.1032,-4.0972,-4.0933,-4.0932,-4.0917,-4.0878,-4.0832,-4.0804,-4.0775,-3.3876,-3.4753,-3.5432,-3.5882,-3.7749,-3.9733,-4.0842,-4.2133,-4.331,-4.4009,-4.4759,-4.5284,-4.5353,-4.5371,0.0,0.0,0.0,0.0,0.0,0.0,0.0,0.0,0.0,0.0,0.0,0.0,0.0,0.0,0.0,0.0,0.0,0.0,0.0,0.0,0.0,0.0,0.0,0.0,0.0,0.0,-4.39,-4.3603,-4.3085,-4.4035,-4.4107,-4.3515,-4.3703,-4.3818,-4.3899,-4.3958,-4.407,-4.4165,-4.4162,-4.3768,-4.3166,-4.3085,-4.2125,-4.0873,-4.0871,-4.0349,-3.9689,-3.977,-3.9826,-3.9889,-3.9954,-3.9979,-3.9811,-3.9003,-3.8775,-3.8573,-3.778,-3.76,-3.7667,-3.7733,-3.7931,-3.8112,-3.8162,-3.8199,-3.8216,-3.829,-3.8341,-3.8373,-3.8397,-3.8397,-3.8412,-3.8491,-3.9165,-3.968,-3.9685,-4.0379,-4.0855,-4.0862,-4.0267,-3.9803,-3.9705,-3.8965,-3.8475,-3.8377,-3.8434,-3.8489,-3.8483,-3.9339,-4.0177,-4.0964,-4.1006,-4.101,-4.1013,-4.0937,-4.0904,-4.0917,-4.0849,-4.0819,-3.2643,-3.4037,-3.5427,-3.5332,-3.7187,-3.9255,-4.0147,-4.1312,-4.2433,-4.3073,-4.3821,-4.4534,-4.501,0.0,0.0,0.0,0.0,0.0,0.0,0.0,0.0,0.0,0.0,0.0,0.0,0.0,0.0,0.0,0.0,0.0,0.0,0.0,0.0,0.0,0.0,0.0,-4.569,-4.461,-4.3951,0.0,-4.3147,-4.2887,-4.2878,-4.3249,-4.3451,-4.3515,-4.36,-4.3701,-4.3837,-4.3881,-4.3976,-4.398,-4.342,-4.3154,-4.2889,-4.1637,-4.0959,-4.0587,-4.0009,-3.9701,-3.9563,-3.9689,-3.9724,-3.9754,-3.9758,-3.9413,-3.8948,-3.8759,-3.7823,-3.6833,-3.6642,-3.6179,-3.5785,-3.579,-3.6941,-3.8031,-3.8041,-3.8074,-3.815,-3.8216,-3.8239,-3.826,-3.8316,-3.8316,-3.8333,-3.8412,-3.8624,-3.8789,-3.877,-3.8941,-3.9052,-3.9052,-3.9331,-3.9143,-3.8253,-3.8002,-3.7516,-3.6621,-3.7207,-3.7578,-3.7574,-3.9005,-3.9886,-4.009,-4.074,-4.1078,-4.1087,-4.1007,-4.0986,-4.0988,-4.0909,-4.0878,-3.2133,-3.3316,-3.467,-3.5865,-3.7347,-3.8793,-3.9852,-4.0562,-4.1257,-4.2106,-4.2988,-4.376,-4.4365,0.0,0.0,0.0,0.0,0.0,0.0,0.0,0.0,0.0,0.0,0.0,0.0,0.0,0.0,0.0,0.0,0.0,0.0,0.0,0.0,0.0,0.0,0.0,-4.4414,-4.3746,-4.3247,-4.2959,-4.2685,-4.2429,-4.2243,-4.283,-4.3196,-4.3339,-4.3059,-4.2998,-4.3061,-4.2738,-4.2667,-4.2724,-4.2374,-4.2039,-4.166,-4.0854,-4.0336,-3.9965,-3.9595,-3.9452,-3.9477,-3.9582,-3.9599,-3.9536,-3.9218,-3.889,-3.8434,-3.7631,-3.6851,-3.616,-3.5742,-3.5397,-3.5143,-3.5143,-3.5951,-3.6714,-3.6757,-3.6811,-3.6871,-3.689,-3.6926,-3.698,-3.6999,-3.7022,-3.7084,-3.7139,-3.7541,-3.7821,-3.7826,-3.8218,-3.8492,-3.8505,-3.8519,-3.8259,-3.7526,-3.7105,-3.6622,-3.6042,-3.6438,-3.6676,-3.6679,-3.7928,-3.8995,-3.9824,-4.0264,-4.0684,-4.1105,-4.1052,-4.1034,-4.0994,-4.1006,-4.098,-3.1858,-3.2774,-3.397,-3.6486,-3.7496,-3.8205,-3.9421,-3.981,-4.0147,-4.1055,-4.2038,-4.2937,0.0,0.0,0.0,0.0,0.0,0.0,0.0,0.0,0.0,0.0,0.0,0.0,0.0,0.0,0.0,0.0,0.0,0.0,0.0,0.0,0.0,0.0,0.0,-4.36,-4.3059,-4.3044,-4.2711,-4.207,-4.2085,-4.1832,-4.1375,-4.223,-4.2668,-4.2741,-4.2191,-4.1984,-4.1996,-4.1415,-4.1254,-4.1332,-4.128,-4.0874,-4.0335,-4.0244,-3.983,-3.9333,-3.9346,-3.936,-3.9386,-3.9458,-3.9477,-3.9339,-3.8639,-3.8346,-3.7943,-3.6408,-3.5964,-3.5798,-3.5069,-3.4974,-3.5057,-3.5066,-3.5168,-3.527,-3.5342,-3.5424,-3.5467,-3.5476,-3.5547,-3.5595,-3.561,-3.5653,-3.5694,-3.5761,-3.6386,-3.6863,-3.6872,-3.7545,-3.8033,-3.804,-3.7601,-3.7227,-3.6999,-3.6372,-3.5972,-3.5976,-3.5971,-3.5999,-3.6001,-3.6692,-3.7812,-3.9412,-3.9699,-4.0162,-4.0899,-4.1026,-4.107,-4.1028,-4.107,-4.1075,-3.1259,-3.273,-3.4429,-3.5954,-3.6704,-3.7259,-3.7941,-3.9046,-3.9853,0.0,-4.0817,0.0,0.0,0.0,0.0,0.0,0.0,0.0,0.0,0.0,0.0,0.0,0.0,0.0,0.0,0.0,0.0,0.0,0.0,0.0,0.0,0.0,-4.4457,-4.3896,-4.3168,0.0,-4.2926,-4.2317,-4.1722,-4.1164,-4.0651,-4.0373,-4.0304,-4.0561,-4.0818,-4.1032,-4.1008,-4.0988,-4.1003,-4.1079,-4.1107,-4.1084,-4.0523,-4.0233,-4.0048,-3.9379,-3.909,-3.905,-3.912,-3.917,-3.9256,-3.9367,-3.9412,-3.9262,-3.8409,-3.7752,-3.7073,-3.6096,-3.5423,-3.497,-3.4838,-3.484,-3.4851,-3.4917,-3.4982,-3.5063,-3.5209,-3.5285,-3.5339,-3.5405,-3.5469,-3.5534,-3.5584,-3.562,-3.561,-3.5618,-3.5785,-3.5917,-3.5963,-3.6088,-3.6168,-3.6168,-3.614,-3.6119,-3.6086,-3.5975,-3.5911,-3.5912,-3.5916,-3.5947,-3.6002,-3.6103,-3.664,-3.763,-3.9121,-3.9938,-4.0055,-4.0769,-4.1093,-4.1083,-4.1092,-4.1093,-3.0991,-3.2419,-3.3847,-3.4741,-3.5722,-3.6591,-3.7166,-3.8028,-3.8772,-3.8929,-3.9709,0.0,0.0,0.0,0.0,0.0,0.0,0.0,0.0,0.0,0.0,0.0,0.0,0.0,0.0,0.0,0.0,0.0,0.0,0.0,-4.3699,-4.3358,-4.3083,-4.2873,-4.2178,0.0,-4.2051,-4.1367,-4.0743,-4.021,-3.9569,-3.9309,-3.9365,-3.9012,-3.9464,-4.051,-4.0127,-3.9996,-4.0047,-3.9723,-3.9621,-3.9632,-3.9393,-3.9341,-3.9331,-3.9025,-3.8925,-3.8935,-3.8979,-3.9007,-3.9064,-3.9188,-3.8931,-3.8423,-3.7661,-3.6907,-3.6131,-3.527,-3.4832,-3.4645,-3.4676,-3.4718,-3.4761,-3.483,-3.4859,-3.4908,-3.4954,-3.5098,-3.5226,-3.5324,-3.5405,-3.5449,-3.5482,-3.5515,-3.554,-3.5532,-3.5593,-3.5651,-3.5678,-3.5723,-3.5732,-3.5736,-3.5801,-3.5842,-3.5842,-3.5841,-3.584,-3.5837,-3.5878,-3.5911,-3.5943,-3.5938,-3.6124,-3.6506,-3.7785,-3.8925,-3.9902,-4.0077,-4.0483,-4.1104,-4.1095,-4.1104,-3.068,-3.1783,-3.282,-3.3571,-3.4549,-3.5473,-3.6146,-3.6968,-3.7655,0.0,0.0,0.0,0.0,0.0,0.0,0.0,0.0,0.0,0.0,0.0,0.0,0.0,0.0,0.0,0.0,0.0,0.0,0.0,0.0,0.0,-4.2697,-4.2204,-4.193,-4.1877,-4.1424,-4.1139,-4.1061,-4.0237,-3.9637,-3.9259,-3.8596,-3.8318,-3.8411,-3.7863,-3.8366,-3.9662,-3.9156,-3.9008,-3.9075,-3.854,-3.8366,-3.8465,-3.8578,-3.8655,-3.8698,-3.8773,-3.8818,-3.8851,-3.8881,-3.8748,-3.8611,-3.8706,-3.8192,-3.7403,-3.6708,-3.6106,-3.5459,-3.4582,-3.4416,-3.4484,-3.4528,-3.4591,-3.4645,-3.4716,-3.4708,-3.4739,-3.4812,-3.4963,-3.5115,-3.5218,-3.5289,-3.5335,-3.5376,-3.5415,-3.5456,-3.5476,-3.5522,-3.5559,-3.5577,-3.5618,-3.5651,-3.5667,-3.5723,-3.5752,-3.5761,-3.5773,-3.5779,-3.5811,-3.5841,-3.5866,-3.5876,-3.5878,-3.5872,-3.5899,-3.6581,-3.7736,-3.9331,-3.9666,-4.0273,-4.1093,-4.111,-4.1105,-3.0246,-3.0662,-3.144,-3.2814,-3.3106,-3.3359,-3.448,-3.5861,-3.6843,-3.6481,0.0,0.0,0.0,0.0,0.0,0.0,0.0,0.0,0.0,0.0,0.0,0.0,0.0,0.0,0.0,0.0,0.0,0.0,0.0,0.0,-4.1706,-4.1763,-4.1543,-4.0998,-4.1064,-4.0799,-4.017,-3.8863,-3.8257,-3.836,-3.7701,-3.7386,-3.7386,-3.741,-3.7539,-3.7756,-3.79,-3.8005,-3.809,-3.8121,-3.8186,-3.8323,-3.8385,-3.8415,-3.843,-3.8494,-3.859,-3.8723,-3.8777,-3.8354,-3.7765,-3.7765,-3.7225,-3.6407,-3.5626,-3.544,-3.5337,-3.4451,-3.4305,-3.4416,-3.4416,-3.4397,-3.442,-3.4495,-3.4517,-3.4594,-3.4831,-3.4945,-3.5038,-3.5088,-3.5113,-3.5157,-3.5285,-3.5319,-3.5331,-3.5398,-3.5412,-3.5429,-3.5502,-3.5515,-3.5521,-3.5601,-3.5612,-3.5635,-3.5707,-3.5713,-3.5737,-3.5803,-3.5808,-3.581,-3.5818,-3.5815,-3.5833,-3.5908,-3.5953,-3.6587,-3.7821,-3.9964,-4.1047,-4.111,-4.1092,-4.1094,-3.0145,-3.0307,-3.058,-3.1516,-3.234,-3.3014,-3.3416,-3.4499,-3.5384,-3.519,0.0,0.0,0.0,0.0,0.0,0.0,0.0,0.0,0.0,0.0,0.0,0.0,0.0,0.0,0.0,0.0,0.0,0.0,0.0,0.0,-4.0788,-4.0804,-4.0585,-4.0006,-4.0036,-3.9566,-3.8508,-3.8203,-3.7802,-3.7331,-3.721,-3.7166,-3.7184,-3.7279,-3.7391,-3.7485,-3.754,-3.7703,-3.7933,-3.8001,-3.8086,-3.817,-3.8287,-3.8352,-3.8399,-3.843,-3.8136,-3.7747,-3.776,-3.7289,-3.6684,-3.6779,-3.6288,-3.5625,-3.5365,-3.4955,-3.4463,-3.4166,-3.4111,-3.4161,-3.4197,-3.4245,-3.4293,-3.4416,-3.4439,-3.4465,-3.4607,-3.4762,-3.4879,-3.4898,-3.4973,-3.5046,-3.51,-3.5132,-3.5182,-3.5207,-3.5281,-3.5346,-3.5376,-3.54,-3.5442,-3.5469,-3.5515,-3.5534,-3.5519,-3.5593,-3.5646,-3.5662,-3.5718,-3.5742,-3.5747,-3.5773,-3.5814,-3.583,-3.5841,-3.6436,-3.7644,-3.7714,-3.8546,-4.0001,-4.0009,-4.0091,-2.982,-2.9794,-2.9813,-3.0476,-3.125,-3.1974,-3.2402,-3.3259,-3.4005,0.0,0.0,0.0,0.0,0.0,0.0,0.0,0.0,0.0,0.0,0.0,0.0,0.0,0.0,0.0,0.0,0.0,0.0,0.0,0.0,0.0,-4.0172,-4.0017,-3.9695,-3.9146,-3.8894,-3.8389,-3.7607,-3.7516,-3.7254,-3.6768,-3.6667,-3.6642,-3.6624,-3.6511,-3.6481,-3.6519,-3.6574,-3.7059,-3.781,-3.761,-3.7571,-3.7619,-3.7484,-3.7457,-3.7503,-3.7533,-3.7221,-3.6783,-3.6781,-3.6298,-3.5681,-3.5776,-3.527,-3.4669,-3.4719,-3.4355,-3.3934,-3.3934,-3.3972,-3.4011,-3.4049,-3.4099,-3.4161,-3.4245,-3.4281,-3.4316,-3.4374,-3.4564,-3.4711,-3.4752,-3.484,-3.4917,-3.4927,-3.4963,-3.5018,-3.5053,-3.5143,-3.5212,-3.5226,-3.5273,-3.532,-3.5361,-3.54,-3.5423,-3.5405,-3.547,-3.5547,-3.5571,-3.5612,-3.564,-3.5681,-3.5713,-3.5742,-3.5776,-3.5773,-3.6176,-3.6982,-3.6559,-3.7184,-3.8794,-3.9009,-3.9195,0.0,0.0,0.0,-2.9713,-2.9829,-3.0116,-3.1359,0.0,-3.2798,0.0,0.0,0.0,0.0,0.0,0.0,0.0,0.0,0.0,0.0,0.0,0.0,0.0,0.0,0.0,0.0,0.0,0.0,0.0,0.0,-3.9867,-3.9867,-3.941,-3.8894,-3.8362,-3.7647,-3.7361,-3.7555,-3.6832,-3.653,-3.665,-3.5983,-3.5657,-3.564,-3.5077,-3.4799,-3.4799,-3.4942,-3.599,-3.756,-3.6861,-3.6591,-3.6604,-3.5946,-3.5688,-3.5704,-3.5844,-3.5872,-3.5869,-3.5927,-3.5429,-3.4768,-3.4768,-3.4225,-3.3605,-3.3605,-3.3684,-3.3775,-3.3775,-3.3881,-3.3985,-3.3985,-3.3998,-3.3998,-3.3998,-3.4049,-3.4111,-3.4185,-3.434,-3.4528,-3.4666,-3.4687,-3.4718,-3.4792,-3.4802,-3.4841,-3.4964,-3.5001,-3.501,-3.5079,-3.5096,-3.5149,-3.5277,-3.5285,-3.5316,-3.5391,-3.5379,-3.5422,-3.5496,-3.5502,-3.5534,-3.5595,-3.5601,-3.5629,-3.5683,-3.5702,-3.5728,-3.5799,-3.6704,-3.7287,-3.7563,-3.818,-3.848,-2.9243,0.0,0.0,0.0,0.0,0.0,0.0,0.0,0.0,0.0,0.0,0.0,0.0,0.0,0.0,0.0,0.0,0.0,0.0,0.0,0.0,0.0,0.0,0.0,0.0,0.0,0.0,0.0,0.0,-3.8891,-3.9085,-3.8099,-3.7472,-3.732,-3.6803,-3.6517,-3.6582,-3.6008,-3.5726,-3.5749,-3.5083,-3.4758,-3.4758,-3.4646,-3.4652,-3.4743,-3.4816,-3.519,-3.5741,-3.5685,-3.5716,-3.5748,-3.5614,-3.5555,-3.5555,-3.5604,-3.5309,-3.4886,-3.4901,-3.4449,-3.3862,-3.3862,-3.3745,-3.3605,-3.3605,-3.3633,-3.3675,-3.3675,-3.3684,-3.3726,-3.378,-3.3815,-3.3855,-3.3908,-3.3985,-3.4036,-3.4049,-3.4099,-3.4209,-3.4439,-3.4517,-3.4572,-3.4647,-3.4689,-3.4759,-3.4849,-3.4888,-3.4927,-3.4889,-3.4982,-3.5028,-3.5073,-3.5143,-3.5166,-3.5171,-3.5266,-3.5331,-3.5361,-3.5393,-3.5429,-3.5449,-3.5509,-3.5547,-3.5546,-3.5606,-3.5635,-3.5651,-3.6012,-3.6227,-3.6312,-3.717,-3.7901,-2.9294,-2.9178,-2.9089,-2.8935,0.0,0.0,-2.9647,-2.9883,0.0,0.0,0.0,0.0,0.0,0.0,0.0,0.0,0.0,0.0,0.0,0.0,0.0,0.0,0.0,0.0,0.0,0.0,0.0,0.0,-3.8143,-3.7912,-3.7874,-3.7182,-3.6672,-3.6441,-3.5864,-3.56,-3.5706,-3.509,-3.4809,-3.4849,-3.4187,-3.3843,-3.3862,-3.3608,-3.3542,-3.3632,-3.3687,-3.3776,-3.3935,-3.4073,-3.4405,-3.4755,-3.4497,-3.4437,-3.4453,-3.4501,-3.4245,-3.3916,-3.3916,-3.3653,-3.3331,-3.3331,-3.336,-3.3401,-3.3466,-3.3477,-3.352,-3.3549,-3.3577,-3.3619,-3.3661,-3.3684,-3.3726,-3.3766,-3.3788,-3.3829,-3.3868,-3.3895,-3.3985,-3.4221,-3.4328,-3.4404,-3.4461,-3.4528,-3.4602,-3.4666,-3.4737,-3.4759,-3.4761,-3.4859,-3.4917,-3.4917,-3.4954,-3.5,-3.5044,-3.5134,-3.5196,-3.5218,-3.5246,-3.5304,-3.5354,-3.5405,-3.5429,-3.5456,-3.5496,-3.5534,-3.5565,-3.5683,-3.5775,-3.5799,-3.6355,-3.6887,-2.9214,-2.9103,-2.9019,-2.8782,-2.8637,0.0,-2.9386,-2.94,-2.9486,0.0,0.0,0.0,0.0,0.0,0.0,0.0,0.0,0.0,0.0,0.0,0.0,0.0,0.0,0.0,0.0,0.0,-3.7102,-3.7102,-3.7145,-3.6959,-3.6461,-3.6451,-3.623,-3.5649,-3.5035,-3.4751,-3.4837,-3.4157,-3.3839,-3.3955,-3.3275,-3.2968,-3.2934,-3.235,-3.2073,-3.2073,-3.2161,-3.2249,-3.2371,-3.2439,-3.298,-3.3698,-3.3103,-3.29,-3.2963,-3.3024,-3.307,-3.307,-3.3086,-3.3086,-3.3101,-3.3101,-3.3101,-3.3117,-3.3247,-3.3322,-3.3378,-3.3452,-3.3506,-3.353,-3.353,-3.3563,-3.3563,-3.3563,-3.3577,-3.3619,-3.3657,-3.3726,-3.3815,-3.4011,-3.4124,-3.4197,-3.4269,-3.4328,-3.4386,-3.4473,-3.4528,-3.4602,-3.4655,-3.4737,-3.4769,-3.4772,-3.4792,-3.4831,-3.4964,-3.4964,-3.5001,-3.5062,-3.5079,-3.5141,-3.5261,-3.5269,-3.5308,-3.5376,-3.5391,-3.5415,-3.5496,-3.5623,-3.5723,-3.5785,-3.579,-3.5797,-2.8481,-2.8241,-2.8049,0.0,0.0,0.0,-2.7731,-2.7838,-2.8147,0.0,0.0,0.0,0.0,0.0,0.0,0.0,0.0,0.0,0.0,0.0,0.0,0.0,0.0,0.0,0.0,0.0,-3.7102,-3.7102,-3.6679,-3.6128,-3.5425,-3.5602,-3.5363,-3.4616,-3.466,-3.4427,-3.3874,-3.3305,-3.3044,-3.3046,-3.2367,-3.2061,-3.2044,-3.1963,-3.1948,-3.1948,-3.2073,-3.2126,-3.2144,-3.2232,-3.2492,-3.2835,-3.2709,-3.2672,-3.2688,-3.2804,-3.2884,-3.2948,-3.2995,-3.3057,-3.3101,-3.3101,-3.3101,-3.3101,-3.3117,-3.315,-3.3147,-3.3162,-3.3178,-3.3193,-3.3193,-3.3289,-3.3367,-3.3367,-3.3437,-3.352,-3.3534,-3.3591,-3.3643,-3.3684,-3.3881,-3.4061,-3.4124,-3.4148,-3.4197,-3.4316,-3.4407,-3.443,-3.4461,-3.4517,-3.4561,-3.4572,-3.4647,-3.4728,-3.4759,-3.4811,-3.4832,-3.4851,-3.4964,-3.5038,-3.5056,-3.5107,-3.5157,-3.5155,-3.5258,-3.5354,-3.5415,-3.5559,-3.5629,-3.564,-3.5683,-3.5728,0.0,0.0,0.0,-2.6872,0.0,0.0,0.0,-2.6837,-2.6959,0.0,0.0,0.0,0.0,0.0,0.0,0.0,0.0,0.0,0.0,0.0,0.0,0.0,0.0,0.0,0.0,0.0,-3.6009,-3.6009,-3.571,-3.525,-3.4588,-3.4733,-3.4533,-3.3826,-3.3613,-3.3362,-3.3046,-3.238,-3.2083,-3.2158,-3.1842,-3.1709,-3.1709,-3.1802,-3.1839,-3.1874,-3.1948,-3.2002,-3.2002,-3.2108,-3.2232,-3.2353,-3.2489,-3.2573,-3.2606,-3.2673,-3.2722,-3.2753,-3.2786,-3.2818,-3.285,-3.285,-3.2898,-3.2963,-3.2995,-3.3039,-3.3101,-3.3101,-3.3101,-3.3101,-3.3101,-3.315,-3.3198,-3.3198,-3.3241,-3.3301,-3.3301,-3.3375,-3.3466,-3.3477,-3.3647,-3.3775,-3.3921,-3.3972,-3.4036,-3.4136,-3.4204,-3.4258,-3.4245,-3.4305,-3.4351,-3.4404,-3.4461,-3.4528,-3.4583,-3.4618,-3.468,-3.4751,-3.4801,-3.4879,-3.4908,-3.4936,-3.4963,-3.4988,-3.5122,-3.5226,-3.5246,-3.5374,-3.5489,-3.5559,-3.557,-3.5618,0.0,0.0,0.0,0.0,0.0,-2.6069,0.0,0.0,0.0,0.0,0.0,0.0,0.0,0.0,0.0,0.0,0.0,0.0,0.0,0.0,0.0,0.0,0.0,0.0,0.0,0.0,-3.4468,-3.4468,-3.4468,-3.425,-3.3783,-3.3896,-3.3672,-3.3081,-3.2529,-3.2263,-3.2241,-3.1635,-3.1351,-3.1462,-3.154,-3.1578,-3.1579,-3.169,-3.1763,-3.1764,-3.182,-3.1875,-3.1893,-3.2002,-3.2055,-3.209,-3.2336,-3.2473,-3.2539,-3.2573,-3.2573,-3.2589,-3.2606,-3.2606,-3.2606,-3.2606,-3.2673,-3.2773,-3.2836,-3.2914,-3.3008,-3.3008,-3.3008,-3.3008,-3.3008,-3.3008,-3.3008,-3.3008,-3.3039,-3.3055,-3.3055,-3.3168,-3.3277,-3.3334,-3.3393,-3.3506,-3.3726,-3.382,-3.3855,-3.3934,-3.3985,-3.4036,-3.4061,-3.4111,-3.4173,-3.4233,-3.4257,-3.4305,-3.4397,-3.445,-3.4506,-3.4623,-3.4645,-3.4678,-3.4752,-3.4753,-3.4793,-3.487,-3.499,-3.5053,-3.5079,-3.5185,-3.5312,-3.5469,-3.5463,-3.5515,0.0,0.0,0.0,0.0,-2.4467,0.0,0.0,0.0,-2.5481,-2.607,0.0,0.0,0.0,0.0,0.0,0.0,0.0,0.0,0.0,0.0,0.0,0.0,0.0,0.0,0.0,0.0,0.0,-3.2967,-3.2967,-3.2917,-3.2857,-3.2968,-3.276,-3.2165,-3.2118,-3.1871,-3.1345,-3.1325,-3.1315,-3.1315,-3.1445,-3.1517,-3.1517,-3.1536,-3.1576,-3.1617,-3.1635,-3.1691,-3.1837,-3.1893,-3.1912,-3.193,-3.2161,-3.2232,-3.2266,-3.2439,-3.2506,-3.2523,-3.2573,-3.2606,-3.2606,-3.2606,-3.2622,-3.2622,-3.2639,-3.2655,-3.2655,-3.2655,-3.2655,-3.2655,-3.2655,-3.2655,-3.2655,-3.2655,-3.2786,-3.2932,-3.2932,-3.3042,-3.3117,-3.3132,-3.3132,-3.3253,-3.3577,-3.3633,-3.3675,-3.3726,-3.3739,-3.3793,-3.3908,-3.3934,-3.3959,-3.4023,-3.4086,-3.4136,-3.4148,-3.4257,-3.4328,-3.434,-3.4461,-3.4528,-3.4539,-3.4599,-3.4684,-3.4812,-3.4822,-3.4889,-3.502,-3.5029,-3.5134,-3.5324,-3.5391,-3.5427,0.0,0.0,0.0,0.0,0.0,0.0,-2.4543,0.0,-2.4577,0.0,0.0,0.0,0.0,0.0,0.0,0.0,0.0,0.0,0.0,0.0,0.0,0.0,0.0,0.0,0.0,0.0,0.0,0.0,0.0,-3.2497,-3.2083,-3.2192,-3.1945,-3.1274,-3.1385,-3.1338,-3.1092,-3.1193,-3.1252,-3.1252,-3.1349,-3.1387,-3.1387,-3.1462,-3.1517,-3.1557,-3.1557,-3.1576,-3.1632,-3.167,-3.1673,-3.1747,-3.1911,-3.2037,-3.2144,-3.2232,-3.2266,-3.2266,-3.2301,-3.2301,-3.2336,-3.2456,-3.2506,-3.2557,-3.2589,-3.2606,-3.2606,-3.2606,-3.2606,-3.2606,-3.2606,-3.2606,-3.2606,-3.2606,-3.2672,-3.2721,-3.2721,-3.277,-3.2834,-3.29,-3.2963,-3.3024,-3.3226,-3.3364,-3.3466,-3.3563,-3.3591,-3.3633,-3.3712,-3.3726,-3.3753,-3.3815,-3.3842,-3.3895,-3.3972,-3.4036,-3.4117,-3.4222,-3.4372,-3.4412,-3.4337,-3.4469,-3.4575,-3.4628,-3.471,-3.4761,-3.483,-3.487,-3.4955,-3.5063,-3.5226,-3.5297,-2.71,0.0,0.0,0.0,0.0,0.0,0.0,0.0,0.0,0.0,0.0,0.0,0.0,0.0,-2.5274,-2.5169,0.0,0.0,0.0,0.0,0.0,0.0,0.0,0.0,0.0,0.0,0.0,0.0,0.0,0.0,-3.1333,-3.1385,-3.1216,-3.0708,-3.0834,-3.0935,-3.0995,-3.1092,-3.1171,-3.119,-3.1252,-3.1274,-3.1274,-3.1385,-3.144,-3.1443,-3.1443,-3.1462,-3.1498,-3.1498,-3.1519,-3.1578,-3.1688,-3.1818,-3.1947,-3.2055,-3.209,-3.209,-3.209,-3.209,-3.2108,-3.2284,-3.2353,-3.2404,-3.2438,-3.2472,-3.2472,-3.2472,-3.2472,-3.2472,-3.2472,-3.2472,-3.2472,-3.2472,-3.2489,-3.2489,-3.2489,-3.2539,-3.2607,-3.2707,-3.2771,-3.2818,-3.2884,-3.3091,-3.3274,-3.3375,-3.339,-3.3419,-3.3506,-3.3524,-3.3549,-3.3647,-3.3661,-3.3684,-3.382,-3.3847,-3.3944,-3.4123,-3.4222,-3.4246,-3.4177,-3.4309,-3.4416,-3.445,-3.4539,-3.4612,-3.4645,-3.4701,-3.4772,-3.485,-3.5046,-3.5176,0.0,0.0,0.0,-2.4429,0.0,0.0,0.0,0.0,-2.3986,0.0,0.0,0.0,0.0,-2.4165,-2.4529,-2.4534,-2.4971,0.0,0.0,0.0,0.0,0.0,0.0,0.0,0.0,0.0,0.0,0.0,0.0,0.0,-3.0539,-3.0539,-3.0584,-3.0692,-3.0712,-3.0794,-3.0995,-3.0995,-3.1055,-3.119,-3.121,-3.121,-3.121,-3.121,-3.1252,-3.1315,-3.1315,-3.1387,-3.1498,-3.1498,-3.1498,-3.1498,-3.1517,-3.1517,-3.1574,-3.1964,-3.209,-3.209,-3.209,-3.209,-3.209,-3.2108,-3.2108,-3.2108,-3.2108,-3.2108,-3.2108,-3.2108,-3.2108,-3.2108,-3.2108,-3.2108,-3.2108,-3.2108,-3.2161,-3.2214,-3.2214,-3.2371,-3.2489,-3.2524,-3.2556,-3.2622,-3.2622,-3.2898,-3.3101,-3.3117,-3.3117,-3.3165,-3.3292,-3.3307,-3.3367,-3.3477,-3.3509,-3.3534,-3.3605,-3.3725,-3.3853,-3.4,-3.3944,-3.3972,-3.4099,-3.4111,-3.4173,-3.4305,-3.4305,-3.4393,-3.4506,-3.4572,-3.4645,-3.4708,-3.4917,-3.5038,0.0,0.0,-2.51,-2.4275,0.0,0.0,0.0,0.0,0.0,0.0,0.0,0.0,0.0,-2.3701,-2.372,-2.372,-2.4198,-2.4549,0.0,0.0,0.0,0.0,0.0,0.0,0.0,0.0,0.0,0.0,0.0,0.0,0.0,-3.0506,-3.0526,-3.0568,-3.0651,-3.0733,-3.0794,-3.0892,-3.0952,-3.0992,-3.0992,-3.0992,-3.0975,-3.0505,-3.0289,-3.0294,-2.9846,-2.9664,-2.9719,-2.981,-2.9867,-2.9957,-3.045,-3.0692,-3.0835,-3.1462,-3.1707,-3.1707,-3.1707,-3.18,-3.191,-3.191,-3.1983,-3.209,-3.209,-3.209,-3.209,-3.209,-3.209,-3.209,-3.209,-3.209,-3.209,-3.209,-3.2108,-3.2126,-3.2126,-3.2179,-3.2232,-3.2232,-3.2301,-3.2336,-3.2336,-3.254,-3.2755,-3.2868,-3.2936,-3.3001,-3.3091,-3.3142,-3.3188,-3.3241,-3.3241,-3.3286,-3.3393,-3.3509,-3.3637,-3.3735,-3.3771,-3.382,-3.3895,-3.3947,-3.4011,-3.4099,-3.4148,-3.4209,-3.4293,-3.4363,-3.4461,-3.4561,-3.4636,-3.4742,-2.6184,-2.5382,0.0,0.0,-2.3996,0.0,-2.3976,0.0,0.0,0.0,0.0,0.0,0.0,0.0,-2.3301,-2.3301,-2.3596,-2.3881,0.0,-2.4895,0.0,0.0,0.0,0.0,0.0,0.0,0.0,0.0,0.0,0.0,0.0,0.0,-3.0506,-3.0506,-3.0572,-3.0651,-3.0692,-3.079,-3.0851,-3.0892,-3.0892,-3.0892,-3.0858,-3.0154,-2.98,-2.975,-2.9072,-2.8755,-2.8772,-2.8864,-2.8921,-2.901,-2.9482,-2.9875,-3.0289,-3.1187,-3.1498,-3.1498,-3.1498,-3.1576,-3.1688,-3.1688,-3.1781,-3.1892,-3.1892,-3.1892,-3.1892,-3.1892,-3.1892,-3.1892,-3.1892,-3.1892,-3.1892,-3.1892,-3.1892,-3.1892,-3.1892,-3.1911,-3.1947,-3.1983,-3.2055,-3.2108,-3.2161,-3.2266,-3.2422,-3.2658,-3.2741,-3.2825,-3.287,-3.2938,-3.2969,-3.2961,-3.3008,-3.3088,-3.3214,-3.3319,-3.339,-3.3459,-3.353,-3.3615,-3.3684,-3.3766,-3.3815,-3.3895,-3.3959,-3.4023,-3.4099,-3.4185,-3.4269,-3.4351,-3.4416,-3.4498]},{"header":{"parameterUnit":"m.s-1","parameterCategory":1,"la1":30.6,"la2":29.2853,"lo1":-89.7004,"lo2":-87.6739,"dy":0.0162,"dx":0.0183,"nx":112,"ny":82,"refTime":"2023-07-01T06:00:00:Z","depth":0,"parameterNumber":3,"parameterNumberName":"V-component_of_WINDS"},"data":[0.0,0.0,0.0,0.0,0.0,0.0,0.0,0.0,0.0,0.0,0.0,0.0,0.0,0.0,0.0,0.0,0.0,0.0,0.0,0.0,0.0,0.0,0.0,0.0,0.0,0.0,0.0,0.0,0.0,0.0,0.0,0.0,0.0,0.0,0.0,0.0,0.0,0.0,0.0,0.0,0.0,0.0,0.0,0.0,0.0,0.0,0.0,0.0,0.0,0.0,0.0,0.0,0.0,0.0,0.0,0.0,0.0,0.0,0.0,0.0,0.0,0.0,0.0,0.0,0.0,0.0,0.0,0.0,0.0,0.0,0.0,0.0,0.0,0.0,0.0,0.0,0.0,0.0,0.0,0.0,0.0,0.0,0.0,0.0,0.0,0.0,0.0,0.0,0.0,0.0,-0.7098,-0.8093,-0.8778,-0.9304,-0.9649,-0.9547,-0.9732,-1.0297,0.0,0.0,0.0,0.0,0.0,0.0,0.0,0.0,0.0,0.0,0.0,0.0,0.0,0.0,0.0,0.0,0.0,0.0,0.0,0.0,0.0,0.0,0.0,0.0,0.0,0.0,0.0,0.0,0.0,0.0,0.0,0.0,0.0,0.0,0.0,0.0,0.0,0.0,0.0,0.0,0.0,0.0,0.0,0.0,0.0,0.0,0.0,0.0,0.0,0.0,0.0,0.0,0.0,0.0,0.0,0.0,0.0,0.0,0.0,0.0,0.0,0.0,0.0,0.0,0.0,0.0,0.0,0.0,0.0,0.0,0.0,0.0,0.0,0.0,0.0,0.0,0.0,0.0,0.0,0.0,0.0,0.0,0.0,0.0,0.0,0.0,0.0,0.0,0.0,0.0,0.0,0.0,0.0,0.0,0.0,0.0,0.0,0.0,0.0,0.0,0.0,0.0,0.0,0.0,-0.7701,-0.8514,-0.9362,-0.986,-0.9947,-1.0221,-1.0455,-1.0538,0.0,0.0,0.0,0.0,0.0,0.0,0.0,0.0,0.0,0.0,0.0,0.0,0.0,0.0,0.0,0.0,0.0,0.0,0.0,0.0,0.0,0.0,0.0,0.0,0.0,0.0,0.0,0.0,0.0,0.0,0.0,0.0,0.0,0.0,0.0,0.0,0.0,0.0,0.0,0.0,0.0,0.0,0.0,0.0,0.0,0.0,0.0,0.0,0.0,0.0,0.0,0.0,0.0,0.0,0.0,0.0,0.0,0.0,0.0,0.0,0.0,0.0,0.0,0.0,0.0,0.0,0.0,0.0,0.0,0.0,0.0,0.0,0.0,0.0,0.0,0.0,0.0,0.0,0.0,0.0,0.0,0.0,0.0,0.0,0.0,0.0,0.0,0.0,0.0,0.0,0.0,0.0,0.0,0.0,0.0,0.0,0.0,0.0,0.0,0.0,0.0,0.0,0.0,-0.8114,-0.8673,-0.905,-0.987,-1.0429,-1.0521,-1.058,-1.0754,-1.1071,-1.0456,0.0,0.0,0.0,0.0,0.0,0.0,0.0,0.0,0.0,0.0,0.0,0.0,0.0,0.0,0.0,0.0,0.0,0.0,0.0,0.0,0.0,0.0,0.0,0.0,0.0,0.0,0.0,0.0,0.0,0.0,0.0,0.0,0.0,0.0,0.0,0.0,0.0,0.0,0.0,0.0,0.0,0.0,0.0,0.0,0.0,0.0,0.0,0.0,0.0,0.0,0.0,0.0,0.0,0.0,0.0,0.0,0.0,0.0,0.0,0.0,0.0,0.0,0.0,0.0,0.0,0.0,0.0,0.0,0.0,0.0,0.0,0.0,0.0,0.0,0.0,0.0,0.0,0.0,0.0,0.0,0.0,0.0,0.0,0.0,0.0,0.0,0.0,0.0,0.0,0.0,0.0,0.0,0.0,0.0,0.0,0.0,0.0,0.0,0.0,0.0,0.0,0.0,-0.8778,-0.9536,-0.9536,-1.0336,-1.0901,-1.1046,-1.0907,-1.1036,-1.1553,-1.1182,0.0,0.0,0.0,0.0,0.0,0.0,0.0,0.0,0.0,0.0,0.0,0.0,0.0,0.0,0.0,0.0,0.0,0.0,0.0,0.0,0.0,0.0,0.0,0.0,0.0,0.0,0.0,0.0,0.0,0.0,0.0,0.0,0.0,0.0,0.0,0.0,0.0,0.0,0.0,0.0,0.0,0.0,0.0,0.0,0.0,0.0,0.0,0.0,0.0,0.0,0.0,0.0,0.0,0.0,0.0,0.0,0.0,0.0,0.0,0.0,0.0,0.0,0.0,0.0,0.0,0.0,0.0,0.0,0.0,0.0,0.0,0.0,0.0,0.0,0.0,0.0,0.0,0.0,0.0,0.0,0.0,0.0,0.0,0.0,0.0,0.0,0.0,0.0,0.0,0.0,0.0,0.0,0.0,0.0,0.0,0.0,0.0,0.0,0.0,0.0,0.0,0.0,-0.9289,-0.9953,-0.9953,-1.0758,-1.1278,-1.1284,-1.144,-1.1645,-1.184,-1.1739,0.0,0.0,0.0,0.0,0.0,0.0,0.0,0.0,0.0,0.0,0.0,0.0,0.0,0.0,0.0,0.0,0.0,0.0,0.0,0.0,0.0,0.0,0.0,0.0,0.0,0.0,0.0,0.0,0.0,0.0,0.0,0.0,0.0,0.0,0.0,0.0,0.0,0.0,0.0,0.0,0.0,0.0,0.0,0.0,0.0,0.0,0.0,0.0,0.0,0.0,0.0,0.0,0.0,0.0,0.0,0.0,0.0,0.0,0.0,0.0,0.0,0.0,0.0,0.0,0.0,0.0,0.0,0.0,0.0,0.0,0.0,0.0,0.0,0.0,0.0,0.0,0.0,0.0,0.0,0.0,0.0,0.0,0.0,0.0,0.0,0.0,0.0,0.0,0.0,0.0,0.0,0.0,0.0,0.0,0.0,0.0,0.0,0.0,0.0,0.0,0.0,0.0,-0.9601,-1.0238,0.0,-1.1105,-1.1602,-1.1731,-1.1921,-1.2054,-1.2092,0.0,0.0,0.0,0.0,0.0,0.0,0.0,0.0,0.0,0.0,0.0,0.0,0.0,0.0,0.0,0.0,0.0,0.0,0.0,0.0,0.0,0.0,0.0,0.0,0.0,0.0,0.0,0.0,0.0,0.0,0.0,0.0,0.0,0.0,0.0,0.0,0.0,0.0,0.0,0.0,0.0,0.0,0.0,0.0,0.0,0.0,0.0,0.0,0.0,0.0,0.0,0.0,0.0,0.0,0.0,0.0,0.0,0.0,0.0,0.0,0.0,0.0,0.0,0.0,0.0,0.0,0.0,0.0,0.0,0.0,0.0,0.0,0.0,0.0,0.0,0.0,0.0,0.0,0.0,0.0,0.0,0.0,0.0,0.0,0.0,0.0,0.0,0.0,0.0,0.0,0.0,0.0,0.0,0.0,0.0,0.0,0.0,0.0,0.0,0.0,0.0,0.0,-0.9171,-0.9963,-1.0638,0.0,-1.1525,-1.1995,-1.2209,-1.2344,-1.2408,-1.2418,0.0,0.0,0.0,0.0,0.0,0.0,0.0,0.0,0.0,0.0,0.0,0.0,0.0,0.0,0.0,0.0,0.0,0.0,0.0,0.0,0.0,0.0,0.0,0.0,0.0,0.0,0.0,0.0,0.0,0.0,0.0,0.0,0.0,0.0,0.0,0.0,0.0,0.0,0.0,0.0,0.0,0.0,0.0,0.0,0.0,0.0,0.0,0.0,0.0,0.0,0.0,0.0,0.0,0.0,0.0,0.0,0.0,0.0,0.0,0.0,0.0,0.0,0.0,0.0,0.0,0.0,0.0,0.0,0.0,0.0,0.0,0.0,0.0,0.0,0.0,0.0,0.0,0.0,0.0,0.0,0.0,0.0,0.0,0.0,0.0,0.0,0.0,0.0,0.0,0.0,0.0,0.0,0.0,0.0,0.0,0.0,0.0,0.0,0.0,0.0,0.0,0.0,-0.955,-1.0434,-1.1082,-1.1284,-1.1974,-1.2491,-1.2705,-1.2726,-1.2789,0.0,0.0,0.0,0.0,0.0,0.0,0.0,0.0,0.0,0.0,0.0,0.0,0.0,0.0,0.0,0.0,0.0,0.0,0.0,0.0,0.0,0.0,0.0,0.0,0.0,0.0,0.0,0.0,0.0,0.0,0.0,0.0,0.0,0.0,0.0,0.0,0.0,0.0,0.0,0.0,0.0,0.0,0.0,0.0,0.0,0.0,0.0,0.0,0.0,0.0,0.0,0.0,0.0,0.0,0.0,0.0,0.0,0.0,0.0,0.0,0.0,0.0,0.0,0.0,0.0,0.0,0.0,0.0,0.0,0.0,0.0,0.0,0.0,0.0,0.0,0.0,0.0,0.0,0.0,0.0,0.0,0.0,0.0,0.0,0.0,0.0,0.0,0.0,0.0,0.0,0.0,0.0,0.0,0.0,0.0,0.0,0.0,0.0,0.0,0.0,0.0,0.0,0.0,-0.9951,-1.0729,-1.1284,-1.1485,-1.2183,-1.2705,-1.2966,-1.3237,-1.3322,-1.3121,0.0,0.0,0.0,0.0,0.0,0.0,0.0,0.0,0.0,0.0,0.0,0.0,0.0,0.0,0.0,0.0,0.0,0.0,0.0,0.0,0.0,0.0,0.0,0.0,0.0,0.0,0.0,0.0,0.0,0.0,0.0,0.0,0.0,0.0,0.0,0.0,0.0,0.0,0.0,0.0,0.0,0.0,0.0,0.0,0.0,0.0,0.0,0.0,0.0,0.0,0.0,0.0,0.0,0.0,0.0,0.0,0.0,0.0,0.0,0.0,0.0,0.0,0.0,0.0,0.0,0.0,0.0,0.0,0.0,0.0,0.0,0.0,0.0,0.0,0.0,0.0,0.0,0.0,0.0,0.0,0.0,0.0,0.0,0.0,0.0,0.0,0.0,0.0,0.0,0.0,0.0,0.0,0.0,0.0,0.0,0.0,0.0,0.0,0.0,0.0,0.0,0.0,-1.0485,-1.1066,-1.1566,-1.199,-1.2541,-1.3009,-1.3307,-1.3568,-1.3572,-1.3359,0.0,0.0,0.0,0.0,0.0,0.0,0.0,0.0,0.0,0.0,0.0,0.0,0.0,0.0,0.0,0.0,0.0,0.0,0.0,0.0,0.0,0.0,0.0,0.0,0.0,0.0,0.0,0.0,0.0,0.0,0.0,0.0,0.0,0.0,0.0,0.0,0.0,0.0,0.0,0.0,0.0,0.0,0.0,0.0,0.0,0.0,0.0,0.0,0.0,0.0,0.0,0.0,0.0,0.0,0.0,0.0,0.0,0.0,0.0,0.0,0.0,0.0,0.0,0.0,0.0,0.0,0.0,0.0,0.0,0.0,0.0,0.0,0.0,0.0,0.0,0.0,0.0,0.0,0.0,0.0,0.0,0.0,0.0,0.0,0.0,0.0,0.0,0.0,0.0,0.0,0.0,0.0,0.0,0.0,0.0,0.0,0.0,0.0,0.0,0.0,0.0,0.0,-1.1047,-1.1486,-1.1942,-1.2624,-1.2981,-1.3307,-1.3652,-1.373,-1.3703,-1.3577,0.0,0.0,0.0,0.0,0.0,0.0,0.0,0.0,0.0,0.0,0.0,0.0,0.0,0.0,0.0,0.0,0.0,0.0,0.0,0.0,0.0,0.0,0.0,0.0,0.0,0.0,0.0,0.0,0.0,0.0,0.0,0.0,0.0,0.0,0.0,0.0,0.0,0.0,0.0,0.0,0.0,0.0,0.0,0.0,0.0,0.0,0.0,0.0,0.0,0.0,0.0,0.0,0.0,0.0,0.0,0.0,0.0,0.0,0.0,0.0,0.1319,0.0,0.0,0.0,0.0,0.0,0.0,0.0,0.0,0.0,0.0,0.0,0.0,0.0,0.0,0.0,0.0,0.0,0.0,0.0,0.0,0.0,0.0,0.0,0.0,0.0,0.0,0.0,0.0,0.0,0.0,0.0,0.0,0.0,0.0,0.0,0.0,0.0,0.0,0.0,0.0,0.0,-1.1109,-1.1763,-1.2271,-1.2665,-1.3233,-1.361,-1.3695,-1.4019,-1.4206,-1.4121,-1.4076,0.0,0.0,0.0,0.0,0.0,0.0,0.0,0.0,0.0,0.0,0.0,0.0,0.0,0.0,0.0,0.0,0.0,0.0,0.0,0.0,0.0,0.0,0.0,0.0,0.0,0.0,0.0,0.0,0.0,0.0,0.0,0.0,0.0,0.0,0.0,0.0,0.0,0.0,0.0,0.0,0.0,0.0,0.0,0.0,0.0,0.0,0.0,0.0,0.0,0.0,0.0,0.0,0.0,0.0,0.0,0.0,0.0,0.0,0.0,0.0,0.1064,0.0,0.0,0.0,0.0,0.0,0.0,0.0,0.0,0.0,0.0,0.0,0.0,0.0,0.0,0.0,0.0,0.0,0.0,0.0,0.0,0.0,0.0,0.0,0.0,0.0,0.0,0.0,0.0,0.0,0.0,0.0,0.0,0.0,0.0,0.0,0.0,0.0,0.0,0.0,0.0,-1.1453,-1.2111,-1.2631,-1.2983,-1.3435,-1.3737,-1.3864,-1.4195,-1.4351,-1.43,-1.4151,0.0,0.0,0.0,0.0,0.0,0.0,0.0,0.0,0.0,0.0,0.0,0.0,0.0,0.0,0.0,0.0,0.0,0.0,0.0,0.0,0.0,0.0,0.0,0.0,0.0,0.0,0.0,0.0,0.0,0.0,0.0,0.0,0.0,0.0,0.0,0.0,0.0,0.0,0.0,0.0,0.0,0.0,0.0,0.0,0.0,0.0,0.0,0.0,0.0,0.0,0.0,0.0,0.0,0.0,0.3404,0.3134,0.2818,0.255,0.2272,0.1652,0.1157,0.0796,0.0,0.0,0.0,0.0,0.0,0.0,0.0,0.0,0.0,0.0,0.0,0.0,0.0,0.0,0.0,0.0,0.0,0.0,0.0,0.0,0.0,0.0,0.0,0.0,0.0,-0.7846,-0.8147,0.0,0.0,0.0,0.0,0.0,0.0,0.0,0.0,0.0,0.0,0.0,0.0,-1.188,-1.2431,-1.292,-1.3366,-1.361,-1.387,-1.4088,-1.4321,-1.4421,-1.4377,-1.4275,-1.4282,0.0,0.0,0.0,0.0,0.0,0.0,0.0,0.0,0.0,0.0,0.0,0.0,0.0,0.0,0.0,0.0,0.0,0.0,0.0,0.0,0.0,0.0,0.0,0.0,0.0,0.0,0.0,0.0,0.0,0.0,0.0,0.0,0.6423,0.6162,0.0,0.0,0.0,0.0,0.0,0.0,0.0,0.0,0.0,0.0,0.0,0.0,0.0,0.0,0.5055,0.4834,0.4557,0.4292,0.4151,0.3929,0.3588,0.335,0.3023,0.2728,0.2333,0.0,0.0897,0.0842,0.0,0.0,0.0,0.0,0.0,0.0,0.0,0.0,0.0,0.0,0.0,0.0,0.0,0.0,0.0,0.0,0.0,0.0,0.0,0.0,0.0,0.0,-0.7908,-0.8143,-0.8461,-0.8746,0.0,-0.884,-0.8833,-0.9627,0.0,0.0,0.0,0.0,0.0,0.0,0.0,0.0,-1.2192,-1.2671,-1.3086,-1.3366,-1.3786,-1.4046,-1.4088,-1.4447,-1.4678,-1.4636,-1.4724,-1.4735,-1.4647,-1.4532,0.0,0.0,0.0,0.0,0.0,0.0,0.0,0.0,0.0,0.0,0.0,0.0,0.0,0.0,0.0,0.0,0.0,0.0,0.0,0.0,0.0,0.0,0.0,0.0,0.0,0.0,0.0,0.0,0.0,0.6778,0.6792,0.6505,0.6473,0.6347,0.0,0.0,0.0,0.0,0.0,0.0,0.0,0.0,0.0,0.5319,0.526,0.5245,0.5333,0.5143,0.496,0.4791,0.4454,0.4193,0.4018,0.3521,0.3119,0.2765,0.2456,0.1901,0.1183,0.0986,0.0589,0.0,0.0,0.0,0.0,0.0,0.0,0.0,-0.2591,0.0,0.0,0.0,0.0,0.0,0.0,0.0,0.0,0.0,0.0,0.0,0.0,0.0,0.0,-0.8257,-0.866,-0.9092,-0.9464,-0.9402,-0.9461,0.0,-0.9913,-0.9962,-1.0402,0.0,0.0,0.0,0.0,-1.2012,-1.2282,-1.2821,-1.3258,-1.3379,-1.3828,-1.4088,-1.4088,-1.4454,-1.4692,-1.4692,-1.483,-1.4841,-1.4714,-1.4638,-1.4442,0.0,0.0,0.0,0.0,0.0,0.0,0.0,0.0,0.0,0.0,0.0,0.0,0.0,0.0,0.0,0.0,0.0,0.0,0.0,0.0,0.0,0.0,0.0,0.0,0.0,0.0,0.0,0.0,0.7111,0.7137,0.6923,0.6873,0.677,0.0,0.0,0.0,0.0,0.0,0.0,0.6162,0.6068,0.5947,0.5799,0.5624,0.5536,0.5543,0.5403,0.5339,0.5242,0.4724,0.4441,0.4398,0.3782,0.3297,0.2936,0.2688,0.2201,0.1595,0.1134,0.0718,0.0381,-0.0162,-0.0593,0.0,-0.1176,-0.1813,-0.2504,-0.2558,-0.2931,-0.3344,-0.3819,0.0,-0.4241,-0.4689,0.0,0.0,0.0,0.0,-0.6803,-0.6881,0.0,-0.832,-0.8405,-0.8765,-0.9212,-0.9771,-0.9821,-0.9876,0.0,-1.0201,-1.0269,-1.0653,0.0,0.0,0.0,0.0,-1.2337,-1.2403,-1.3012,-1.3398,-1.3398,-1.3828,-1.4088,-1.4088,-1.4454,-1.4692,-1.4692,-1.4902,-1.4918,-1.4754,-1.4721,-1.4613,-1.4457,0.0,0.0,0.0,0.0,0.0,0.0,0.0,0.0,0.0,0.0,0.0,0.0,0.0,0.0,0.0,0.0,0.0,0.0,0.0,0.0,0.0,0.0,0.0,0.0,0.0,0.0,0.0,0.0,0.0,0.746,0.7178,0.0,0.0,0.0,0.0,0.6766,0.6636,0.6599,0.6562,0.6628,0.6464,0.6009,0.6051,0.5927,0.5578,0.5729,0.5635,0.541,0.5114,0.4873,0.4684,0.4174,0.3771,0.3457,0.3097,0.2747,0.2284,0.13,0.0756,0.0458,-0.0169,-0.0609,-0.0926,-0.1181,-0.1653,-0.2184,-0.2504,-0.2772,-0.309,-0.3613,-0.4095,-0.4593,-0.5313,-0.5511,0.0,0.0,-0.6417,-0.6824,-0.7039,-0.7659,-0.8281,-0.8667,-0.8878,-0.9204,-0.9923,-0.9922,-1.0044,0.0,-1.0723,-1.0641,-1.0926,0.0,-1.1404,-1.1639,-1.2017,-1.2403,-1.265,-1.3082,-1.3398,-1.3398,-1.3828,-1.4088,-1.4088,-1.4454,-1.4692,-1.4692,-1.511,-1.5221,-1.4893,-1.4943,-1.4881,-1.4583,-1.4574,0.0,0.0,0.0,0.0,0.0,0.0,0.0,0.0,0.0,0.0,0.0,0.0,0.0,0.0,0.0,0.0,0.0,0.0,0.0,0.0,0.0,0.0,0.0,0.0,0.0,0.0,0.0,0.0,0.7631,0.7552,0.0,0.7479,0.7468,0.7351,0.7076,0.7174,0.7168,0.6976,0.6997,0.6955,0.6903,0.6524,0.6302,0.6303,0.6148,0.599,0.5894,0.561,0.5321,0.5026,0.4617,0.4075,0.3471,0.32,0.2855,0.2385,0.1582,0.1077,0.07,0.0348,-0.0115,-0.063,-0.0902,-0.14,-0.1957,-0.2489,-0.2865,-0.3187,-0.3914,-0.4335,-0.4738,-0.5337,-0.5618,-0.578,-0.6095,-0.6572,-0.7058,-0.7153,-0.7756,-0.8414,-0.8715,-0.8981,-0.929,-0.9926,-1.0109,-1.0341,-1.0801,-1.0958,-1.114,-1.141,-1.1772,-1.2096,-1.2363,-1.2639,-1.2895,-1.3167,-1.3467,-1.3659,-1.3659,-1.394,-1.4088,-1.4088,-1.4454,-1.4692,-1.4692,-1.5124,-1.5243,-1.4915,-1.5056,-1.5068,-1.4935,-1.4777,-1.4901,0.0,0.0,0.0,0.0,0.0,0.0,0.0,0.0,0.0,0.0,0.0,0.0,0.0,0.0,0.0,0.0,0.0,0.0,0.0,0.0,0.0,0.0,0.0,0.0,0.0,0.0,0.8016,0.8001,0.8023,0.7946,0.7855,0.794,0.7947,0.7657,0.7656,0.7649,0.7561,0.741,0.7425,0.7436,0.7043,0.6816,0.6699,0.6505,0.6327,0.6227,0.5907,0.5597,0.5229,0.4883,0.4396,0.3713,0.336,0.3012,0.2671,0.2102,0.1525,0.1077,0.0655,0.0118,-0.0412,-0.0757,-0.1217,-0.1736,-0.2448,-0.2874,-0.3244,-0.4093,-0.4466,-0.467,-0.5315,-0.5673,-0.5895,-0.612,-0.6666,-0.7145,-0.72,-0.7686,-0.8237,-0.8676,-0.8928,-0.9229,-0.9871,-1.0216,-1.0471,-1.0729,-1.1109,-1.1446,-1.1692,-1.2089,-1.2506,-1.278,-1.2962,-1.319,-1.3468,-1.3753,-1.3907,-1.3818,-1.4041,-1.4195,-1.4095,-1.4412,-1.465,-1.4692,-1.5082,-1.5245,-1.5075,-1.5146,-1.5223,-1.5248,-1.5172,-1.5332,-1.5752,0.0,0.0,0.0,0.0,0.0,0.0,0.0,0.0,0.0,0.0,0.0,0.0,0.0,0.0,0.0,0.0,0.0,0.0,0.0,0.0,0.0,0.0,0.0,0.8664,0.8551,0.8513,0.8608,0.8494,0.8407,0.832,0.8338,0.8346,0.8481,0.812,0.7968,0.8167,0.7997,0.7811,0.7627,0.7666,0.7404,0.6772,0.6708,0.6561,0.6321,0.5996,0.5708,0.5377,0.4977,0.4614,0.421,0.371,0.3346,0.3089,0.2669,0.2098,0.1418,0.079,0.0179,-0.0413,-0.0767,-0.112,-0.1528,-0.2429,-0.2901,-0.3249,-0.4199,-0.4377,-0.4486,-0.5297,-0.5773,-0.5991,-0.615,-0.6578,-0.7009,-0.7181,-0.7394,-0.7793,-0.8577,-0.8775,-0.9023,-0.9821,-1.0216,-1.0462,-1.0757,-1.1226,-1.1638,-1.1692,-1.211,-1.2483,-1.2757,-1.2985,0.0,-1.3492,-1.3927,-1.4084,-1.3862,-1.4217,-1.4409,-1.4122,-1.4286,-1.4482,-1.4692,-1.4957,-1.5173,-1.5389,-1.5272,-1.5335,-1.5583,-1.5678,-1.589,-1.628,0.0,0.0,0.0,0.0,0.0,0.0,0.0,0.0,0.0,0.0,0.0,0.0,0.0,0.0,0.0,0.0,0.0,0.0,0.0,0.0,0.0,0.0,0.9338,0.9061,0.8922,0.8821,0.8747,0.8664,0.8611,0.8617,0.8655,0.8716,0.8633,0.8691,0.8613,0.8369,0.8368,0.8286,0.8183,0.7956,0.7815,0.77,0.7172,0.6852,0.6812,0.6483,0.6095,0.5778,0.5426,0.4989,0.4608,0.3876,0.3377,0.3089,0.2669,0.2098,0.1482,0.1045,0.0612,0.0183,-0.0361,-0.1004,-0.1793,-0.2477,-0.2901,-0.3194,-0.3923,-0.4301,-0.4505,-0.4951,-0.5383,-0.5791,-0.6034,-0.639,-0.6819,-0.7244,-0.7469,-0.7743,-0.8382,-0.8676,-0.8924,-0.9331,-0.992,-1.0408,-1.0511,-1.1102,-1.1676,-1.19,-1.2177,-1.2613,-1.3239,0.0,0.0,-1.4033,-1.4145,-1.4228,-1.4389,-1.4282,-1.4265,-1.4366,-1.4401,-1.4482,-1.4692,-1.4957,-1.5173,-1.5389,-1.5377,-1.542,-1.5583,-1.577,-1.5913,0.0,0.0,0.0,0.0,0.0,0.0,0.0,0.0,0.0,0.0,0.0,0.0,0.0,0.0,0.0,0.0,0.0,0.0,0.0,0.0,0.0,0.0,1.0007,0.9866,0.9707,0.9431,0.9196,0.9118,0.9039,0.899,0.8908,0.8958,0.9033,0.901,0.9052,0.903,0.8931,0.8688,0.8597,0.8606,0.8328,0.8188,0.8123,0.7655,0.7319,0.6985,0.6786,0.6449,0.5912,0.5713,0.5289,0.0,0.4292,0.3785,0.3305,0.2862,0.2406,0.0,0.0,0.0,0.0,0.0,-0.1079,-0.1701,-0.233,-0.2701,-0.3056,-0.3653,-0.4147,-0.4536,-0.4817,-0.5283,-0.5729,-0.6016,-0.6313,-0.6635,-0.7098,-0.7345,-0.759,-0.8088,-0.8531,-0.8874,-0.9133,-0.9723,-1.0265,-1.0364,0.0,0.0,-1.1785,-1.2175,-1.2613,-1.3249,-1.3443,-1.3636,0.0,-1.4314,-1.4409,-1.4437,-1.4347,-1.4335,-1.4348,-1.4285,0.0,0.0,0.0,-1.5082,-1.5389,-1.5465,0.0,0.0,0.0,-1.6213,0.0,0.0,0.0,0.0,-1.7886,-1.8237,0.0,0.0,0.0,0.0,0.0,0.0,0.0,0.0,0.0,0.0,0.0,0.0,0.0,0.0,0.0,0.0,1.05,1.0566,1.0466,1.0037,0.9674,0.9572,0.9542,0.947,0.9241,0.9234,0.9299,0.9395,0.9258,0.9348,0.9627,0.0,0.0,0.0,0.0,0.852,0.8192,0.8125,0.7789,0.7118,0.7051,0.665,0.6046,0.5912,0.551,0.4833,0.4767,0.4256,0.3601,0.3185,0.2837,0.2344,0.1358,0.0803,0.037,-0.0617,-0.1099,0.0,0.0,0.0,0.0,-0.338,-0.3977,-0.448,-0.4761,-0.5264,-0.5748,-0.5994,-0.6219,-0.6484,-0.6886,-0.7113,-0.7356,-0.7842,-0.8382,-0.8829,-0.9084,-0.9579,-1.0019,-1.0314,-1.0609,-1.0949,-1.1487,-1.198,-1.2516,-1.3001,-1.3292,0.0,-1.3883,-1.431,-1.45,-1.43,0.0,0.0,-1.4189,-1.414,-1.4208,-1.4398,-1.4608,-1.4915,-1.5347,-1.5582,-1.5782,-1.6087,-1.6317,-1.6662,-1.7114,-1.7721,-1.812,-1.833,-1.8445,-1.8798,0.0,0.0,0.0,0.0,0.0,0.0,0.0,0.0,0.0,0.0,0.0,0.0,0.0,0.0,0.0,1.1276,1.1187,1.1065,1.0975,1.0768,1.0448,0.9944,0.9896,0.983,0.9541,0.9628,0.963,0.9554,0.9751,0.979,0.9706,0.9726,0.0,0.9076,0.9039,0.8851,0.8523,0.8256,0.8058,0.7856,0.0,0.0,0.6784,0.618,0.5646,0.5238,0.4897,0.4256,0.3601,0.3435,0.29,0.2035,0.1296,0.0803,0.0432,-0.0309,-0.0789,-0.1065,-0.1711,-0.2255,-0.2761,-0.3086,-0.3587,-0.4148,-0.448,-0.4815,0.0,-0.5688,-0.6001,-0.6275,-0.6693,-0.709,-0.7426,-0.7622,-0.8088,-0.8531,-0.8825,-0.9278,-0.9776,-1.0019,-1.0462,-1.09,-1.1243,-1.1731,-1.2273,-1.2759,-1.305,-1.3346,-1.3835,-1.3979,-1.4196,-1.4566,-1.4404,-1.4353,-1.4468,-1.4259,-1.4208,-1.4398,-1.4783,-1.5048,-1.5131,-1.534,-1.5673,-1.6087,-1.6396,-1.6788,-1.7259,-1.7808,-1.8202,-1.8452,-1.8854,-1.9202,0.0,0.0,0.0,0.0,0.0,0.0,0.0,0.0,0.0,0.0,0.0,1.175,1.1987,0.0,1.1579,1.1738,1.1658,1.1518,1.1423,1.1327,1.1074,1.0535,1.0285,1.0116,1.0036,0.9921,0.9792,0.9836,0.9944,0.9988,1.0009,1.0025,0.9907,0.9649,0.9316,0.905,0.8851,0.8523,0.8256,0.8125,0.7524,0.7187,0.6985,0.6449,0.5982,0.5638,0.5156,0.4642,0.4116,0.3498,0.2837,0.2158,0.1481,0.0926,0.0432,-0.0247,-0.0669,-0.0953,-0.1418,-0.1972,-0.2553,-0.2812,-0.3309,-0.3867,-0.4147,-0.4538,-0.4985,-0.5485,-0.5861,-0.6199,-0.6518,-0.6922,-0.7259,-0.7375,-0.7789,-0.8333,-0.8726,-0.9126,-0.9529,-0.992,-1.0314,-1.0654,-1.0949,-1.1438,-1.1975,-1.2516,-1.2905,-1.3244,-1.3636,-1.3835,-1.4076,-1.4448,-1.4322,-1.4259,-1.4385,-1.4206,-1.4208,-1.4398,-1.4699,-1.5028,-1.5319,-1.5545,-1.5873,-1.637,-1.6708,-1.7008,-1.7361,-1.8057,-1.8534,-1.8754,-1.9289,-1.9632,0.0,0.0,0.0,0.0,0.0,0.0,0.0,1.2568,1.2608,1.2604,1.2604,1.2557,1.2528,1.2359,1.2172,1.205,1.2069,1.2064,1.188,1.1803,1.1626,1.1235,1.0773,1.054,1.0549,1.0256,1.0083,1.0158,1.0187,1.0224,1.0314,1.0201,1.0136,1.019,0.9652,0.925,0.9117,0.8851,0.852,0.8189,0.7791,0.7457,0.7118,0.6721,0.6317,0.5902,0.5349,0.4947,0.4532,0.3552,0.29,0.2529,0.1851,0.1235,0.0617,-0.0062,-0.0488,-0.0839,-0.1184,-0.1687,-0.2228,-0.2537,-0.3029,-0.3531,-0.3813,-0.437,-0.4873,-0.5204,-0.5654,-0.6065,-0.6284,-0.6647,-0.699,-0.7211,-0.7629,-0.8132,-0.8678,-0.9003,-0.9384,-0.9829,-1.0198,-1.047,-1.0717,-1.1173,-1.1683,-1.2224,-1.271,-1.3098,-1.3394,-1.3642,-1.3925,-1.4202,-1.4204,-1.422,-1.4269,-1.4224,-1.4291,-1.4491,-1.4703,-1.5077,-1.5597,-1.5828,-1.6169,-1.6683,-1.7052,-1.7303,-1.7487,-1.8337,-1.8819,-1.9044,-1.9612,-1.9957,1.4559,1.4379,1.4135,1.3681,1.3792,1.3894,0.0,1.3541,1.3662,1.3417,1.3221,1.3094,1.3013,1.2984,1.2894,1.2626,1.2771,1.2763,1.251,1.2187,1.1987,1.2117,1.1651,1.1118,1.0716,1.0774,1.0771,1.0471,1.0597,1.0636,1.046,1.0547,1.0505,1.0193,1.0123,0.9788,0.9117,0.905,0.8851,0.852,0.8189,0.7858,0.7459,0.7121,0.6583,0.5835,0.5091,0.4638,0.4399,0.3707,0.3271,0.29,0.2221,0.1728,0.1297,0.0617,0.0,-0.0532,-0.0825,-0.1328,-0.1912,-0.219,-0.2691,-0.3194,-0.3531,-0.4089,-0.4592,-0.4873,-0.5369,-0.5895,-0.607,-0.6501,-0.6909,-0.7298,-0.7674,-0.8082,-0.8595,-0.9013,-0.9376,-0.9684,-1.0028,-1.0378,-1.0676,-1.1024,-1.1438,-1.198,-1.2273,-1.2662,-1.3104,-1.3394,-1.3636,-1.3931,-1.4116,-1.4306,-1.4527,-1.4532,-1.4678,-1.4908,-1.513,-1.5366,-1.566,-1.5889,-1.6213,-1.6683,-1.728,-1.7657,-1.7852,-1.846,-1.891,-1.9177,-1.9509,-1.9874,1.5,1.4843,1.4677,1.4623,1.4537,1.4371,1.4186,1.4146,1.4124,1.3979,1.3902,1.3813,1.3815,1.3649,1.3545,0.0,1.3268,1.3128,1.2842,1.2711,1.2598,1.2301,1.2293,1.2058,1.1491,1.1157,1.1048,1.1074,1.0884,1.0788,1.0807,1.0702,1.0654,1.0522,1.0323,1.0057,0.9721,0.9316,0.905,0.8917,0.8323,0.7992,0.7858,0.7252,0.6525,0.5769,0.5246,0.4753,0.4378,0.3764,0.3394,0.3209,0.2529,0.2097,0.1666,0.0803,0.0242,-0.0236,-0.053,-0.098,-0.157,-0.1851,-0.2355,-0.2915,-0.3194,-0.3754,-0.4258,-0.4592,-0.5094,-0.5631,-0.6032,-0.6349,-0.6712,-0.7171,-0.7507,-0.7874,-0.8391,-0.881,-0.9175,-0.9638,-0.9944,-1.0223,-1.0425,-1.0842,-1.1241,-1.1507,-1.2029,-1.2516,-1.2856,-1.3152,-1.3443,-1.3835,-1.4069,-1.4235,-1.4347,-1.4508,-1.4636,-1.4777,-1.5098,-1.5493,-1.5976,-1.6164,-1.6521,-1.7022,-1.7437,-1.7789,-1.8018,-1.8442,-1.8835,-1.9188,-1.9288,-1.9617,1.5446,1.5255,1.5136,1.5291,1.5048,1.4799,1.4708,1.466,1.4609,1.4543,1.4534,1.4479,1.4407,1.4219,1.408,1.395,1.3667,1.3416,1.3153,1.3151,1.307,1.264,1.2797,1.2781,1.2473,1.1826,1.147,1.1584,1.1325,1.117,1.12,1.0989,1.0853,1.0853,1.0522,1.0256,1.0193,0.9655,0.9316,0.9117,0.8587,0.8256,0.8058,0.7319,0.663,0.6029,0.5551,0.508,0.4526,0.3954,0.364,0.3455,0.2838,0.2405,0.2035,0.1111,0.0486,0.0059,-0.0295,-0.0752,-0.1242,-0.1573,-0.2076,-0.2637,-0.2915,-0.3419,-0.398,-0.4258,-0.4815,-0.5359,-0.579,-0.6132,-0.6524,-0.6976,-0.7328,-0.7703,-0.8226,-0.8634,-0.9037,-0.9515,-0.9844,-1.014,-1.0277,-1.0629,-1.0961,-1.1159,-1.1673,-1.2224,-1.2613,-1.2953,-1.3298,-1.3835,-1.4046,-1.4162,-1.4349,-1.4581,-1.4787,-1.4826,-1.5197,-1.5664,-1.616,-1.6398,-1.6736,-1.7192,-1.7535,-1.7815,-1.7994,-1.8334,-1.8658,-1.9012,-1.9142,-1.9425,1.605,1.5835,1.5606,1.5339,1.5345,1.5285,1.5048,1.5223,1.5367,1.5108,1.5078,1.4979,1.4737,1.4636,1.4502,1.4303,1.3971,1.3653,1.3593,1.3351,1.3238,1.332,1.3084,1.3067,0.0,1.2878,1.2279,1.1842,1.1879,1.1919,1.1762,1.138,1.1181,1.1181,1.0853,1.0522,1.0193,1.019,0.9788,0.9117,0.905,0.872,0.8058,0.7319,0.6934,0.6839,0.6031,0.543,0.503,0.4588,0.4009,0.3455,0.3146,0.2775,0.2406,0.1729,0.1039,0.0421,-0.0178,-0.0641,-0.0974,-0.124,-0.1739,-0.23,-0.2637,-0.3141,-0.3643,-0.3924,-0.4428,-0.4985,-0.5314,-0.5746,-0.6221,-0.6761,-0.7137,-0.757,-0.8167,-0.8596,-0.902,-0.9361,-0.9721,-1.0091,-1.0366,-1.0339,-1.0509,-1.1006,-1.1182,-1.1536,-1.2322,-1.2807,-1.3298,-1.3835,-1.3925,-1.4112,-1.4627,-1.4914,-1.5194,-1.5473,-1.5656,-1.5906,-1.6211,-1.648,-1.6723,-1.6979,-1.7441,-1.7675,-1.7721,-1.8249,-1.8527,-1.8527,-1.8966,-1.9333,1.6593,1.6425,1.6203,1.6178,1.6032,1.5879,1.5584,1.5515,1.553,1.5615,1.5481,1.5393,1.5472,1.5328,1.5081,1.4809,1.4502,1.4207,1.3945,1.377,1.3692,1.3752,1.3687,0.0,0.0,0.0,0.0,1.2646,1.227,1.2057,1.2103,1.178,1.1567,1.1404,1.1273,1.1075,1.0671,1.0463,1.0143,0.9854,0.9319,0.872,0.8125,0.7856,0.7401,0.6843,0.6287,0.5813,0.5351,0.4713,0.4253,0.407,0.3516,0.3146,0.2775,0.2097,0.1528,0.1023,0.0415,-0.0117,-0.0631,-0.0958,-0.1458,-0.1964,-0.23,-0.2803,-0.3306,-0.3643,-0.4147,-0.476,-0.526,-0.5629,-0.6051,-0.6604,-0.7042,-0.7373,-0.7761,-0.8232,-0.8702,-0.9037,-0.9384,-0.9697,-1.0069,-1.0278,-1.0542,-1.1051,-1.1484,-1.1883,-1.2322,-1.2807,-1.3147,-1.3346,-1.369,-1.3979,-1.4166,-1.4598,-1.4933,-1.522,-1.5452,-1.5784,-1.617,-1.6272,-1.6548,-1.6979,-1.7167,-1.7402,-1.7675,-1.8048,-1.8334,-1.8527,-1.8789,-1.9104,1.7066,1.6849,1.6675,1.6633,1.6407,1.613,1.5879,1.5769,1.5825,1.6022,1.5909,1.5831,1.6014,1.5742,1.5428,1.5208,1.4953,1.4664,1.4399,1.4298,1.421,1.4094,1.4142,1.4128,0.0,0.0,0.0,1.3127,1.2754,1.2542,1.2586,1.2265,1.2074,1.1976,1.1844,1.1546,1.1155,1.0873,1.0598,1.019,0.9452,0.8853,0.8456,0.8189,0.7798,0.7231,0.661,0.6131,0.5663,0.5022,0.4622,0.4376,0.3824,0.3454,0.3085,0.2405,0.1894,0.1445,0.077,0.0175,-0.0287,-0.062,-0.1121,-0.1683,-0.1964,-0.2411,-0.2858,-0.3306,-0.381,-0.4313,-0.4925,-0.5373,-0.5764,-0.6267,-0.6712,-0.7102,-0.7382,-0.7823,-0.8318,-0.8702,-0.8982,-0.934,-0.9725,-1.0095,-1.0447,-1.0912,-1.1385,-1.1834,-1.2224,-1.2613,-1.2905,-1.3098,-1.3491,-1.3786,-1.3883,-1.4406,-1.479,-1.4939,-1.5309,-1.5642,-1.5933,-1.613,-1.6366,-1.6697,-1.6885,-1.7167,-1.7448,-1.7815,-1.8094,-1.8381,-1.8604,-1.8874,1.738,1.7153,1.6932,1.6683,1.6407,1.617,1.5879,1.6059,1.631,1.631,1.6336,1.6302,1.6327,1.5903,1.5535,1.5482,1.5209,1.4955,1.4842,1.4803,1.4713,1.4558,1.4556,0.0,0.0,0.0,0.0,1.3238,0.0,1.3323,1.3151,1.2835,1.2715,1.2826,1.2486,1.2068,1.1571,1.1486,1.1068,1.019,0.9519,0.9117,0.905,0.8456,0.8061,0.788,0.7062,0.6449,0.5974,0.5579,0.5053,0.4439,0.4067,0.3761,0.3455,0.2773,0.2258,0.1804,0.0887,0.0349,0.0,-0.0282,-0.0785,-0.1346,-0.1683,-0.1964,-0.2299,-0.2911,-0.3302,-0.3749,-0.4303,-0.4916,-0.5421,-0.5704,-0.6209,-0.6768,-0.7099,-0.7379,-0.7771,-0.8318,-0.8702,-0.8978,-0.9309,-0.9804,-1.0255,-1.0586,-1.0938,-1.1389,-1.1927,-1.2224,-1.2565,-1.3001,-1.3298,-1.3593,-1.3883,-1.4358,-1.4688,-1.4688,-1.5166,-1.5493,-1.5493,-1.5933,-1.6177,-1.6224,-1.6697,-1.6979,-1.6979,-1.7495,-1.7815,-1.8087,-1.8381,-1.8751,1.7419,1.7286,1.7153,1.6925,1.669,1.6447,1.617,1.621,1.6359,1.6554,1.6591,1.662,1.658,1.6318,1.5957,1.5535,1.5367,0.0,1.5192,1.4981,1.4895,1.5236,1.5181,1.5077,1.4978,1.5088,0.0,0.0,1.3806,1.352,1.3495,1.3294,1.3109,1.301,1.2947,1.2654,1.2072,1.156,1.0891,1.0193,0.999,0.9652,0.9117,0.8917,0.8522,0.788,0.7572,0.7019,0.6354,0.5951,0.5546,0.5114,0.4499,0.4069,0.3754,0.3348,0.2764,0.2189,0.163,0.0981,0.0229,0.0,-0.0336,-0.0729,-0.129,-0.1627,-0.1958,-0.2319,-0.297,-0.3564,-0.3733,-0.4354,-0.5056,-0.5332,-0.5715,-0.6156,-0.6712,-0.7102,-0.7379,-0.7771,-0.8429,-0.8999,-0.9219,-0.9724,-1.0095,-1.012,-1.0586,-1.11,-1.1634,-1.2127,-1.2467,-1.2565,-1.2953,-1.3298,-1.3588,-1.3925,-1.4262,-1.4688,-1.4831,-1.507,-1.5493,-1.5594,-1.5832,-1.6177,-1.6548,-1.6784,-1.6979,-1.7495,-1.7721,-1.7815,-1.8295,-1.8574,1.7473,1.7279,1.7239,1.7073,1.6784,1.6541,1.6265,1.6258,1.6359,1.6647,1.6693,1.673,1.6903,1.6583,1.6223,1.5903,1.5781,1.5679,1.549,1.5505,1.5514,1.5641,1.5628,1.5597,1.5505,1.5603,1.5522,0.0,1.4508,1.4114,1.4143,1.3911,1.3706,1.3754,1.3546,1.3142,1.2544,1.1672,1.0986,1.0654,1.0323,0.999,0.9585,0.925,0.8821,0.8264,0.0,0.7372,0.6855,0.6304,0.5914,0.5546,0.5053,0.4542,0.4022,0.375,0.327,0.2677,0.2193,0.1603,0.0908,0.0337,0.0,-0.0336,-0.0785,-0.1227,-0.1661,-0.1919,-0.2447,-0.3018,-0.3414,-0.3859,-0.4381,-0.4961,-0.5336,-0.5715,-0.6202,-0.6657,-0.7102,-0.7496,-0.8211,-0.8769,-0.8949,-0.933,-0.9632,-0.9861,-1.0133,-1.0507,-1.1145,-1.1731,-1.2127,-1.237,-1.2759,-1.3055,-1.3298,-1.369,-1.4027,-1.431,-1.455,-1.4831,-1.5118,-1.535,-1.5635,-1.5886,-1.6265,-1.6501,-1.665,-1.7167,-1.7441,-1.7527,-1.7962,-1.8195,1.7473,1.7279,1.7239,1.7066,1.6831,1.6588,1.6312,1.6306,1.6409,1.6647,1.6744,1.6886,1.7127,1.6749,1.6377,1.6324,1.6283,1.6127,1.5795,1.6152,1.6342,1.5965,1.6129,1.6179,1.6119,1.5993,1.5934,1.5993,1.5328,1.4878,1.4875,1.4496,1.4363,1.4436,1.4127,1.3528,1.2784,1.1795,1.1314,1.1247,1.0654,1.0323,1.0256,0.9567,0.9095,0.8805,0.0,0.0,0.7447,0.6771,0.6283,0.5914,0.5594,0.5056,0.4395,0.408,0.3651,0.316,0.2581,0.2158,0.1683,0.0785,0.028,0.0,-0.028,-0.0719,-0.1256,-0.1577,-0.188,-0.2334,-0.312,-0.3388,-0.3675,-0.4432,-0.4945,-0.5305,-0.5673,-0.6258,-0.6882,-0.7438,-0.7974,-0.8414,-0.8598,-0.8719,-0.9031,-0.9622,-0.9622,-0.9875,-1.0556,-1.1145,-1.1736,-1.2224,-1.257,-1.2813,-1.305,-1.3491,-1.3786,-1.3835,-1.431,-1.4592,-1.464,-1.5118,-1.5445,-1.5493,-1.5933,-1.6177,-1.6224,-1.6697,-1.7066,-1.7286,-1.7527,-1.7815,1.7473,1.7279,1.7286,1.7239,1.7113,1.6878,1.6588,1.6594,1.666,1.6697,1.6941,1.7138,1.7173,1.7126,1.6861,1.6377,1.6454,1.6408,1.6121,1.6493,1.6763,1.6646,1.682,1.6951,1.6734,1.6751,0.0,0.0,0.0,1.586,1.5241,1.4978,1.4656,1.4242,1.4025,1.3497,1.2668,1.2273,1.1978,1.1714,1.1251,1.085,1.0585,1.0064,0.9596,0.9182,0.0,0.0,0.7811,0.7385,0.6896,0.6274,0.5893,0.5491,0.5042,0.4331,0.3871,0.3556,0.311,0.2585,0.202,0.1346,0.0785,0.028,0.0,-0.0274,-0.0653,-0.1216,-0.1568,-0.1869,-0.2201,-0.2836,-0.3443,-0.361,-0.4234,-0.4885,-0.5301,-0.6097,-0.6824,-0.721,-0.746,-0.7729,-0.8074,-0.8294,-0.8449,-0.8646,-0.9198,-0.9628,-0.9772,-1.0654,-1.1389,-1.1731,-1.2175,-1.257,-1.2813,-1.3104,-1.3346,-1.3545,-1.3883,-1.4118,-1.4346,-1.4688,-1.507,-1.5493,-1.573,-1.5981,-1.6224,-1.6494,-1.6777,-1.7066,-1.7293,-1.7527,1.7473,1.7279,1.7279,1.7279,1.7153,1.6979,1.6831,1.6707,1.6711,1.6869,1.7029,1.7214,1.7403,1.7279,1.7126,1.6808,1.6837,1.6738,1.6464,1.6961,1.7276,1.71,1.7256,1.7361,1.7401,1.7214,1.7094,0.0,0.0,0.0,1.6093,1.5557,1.5022,1.4475,1.4285,1.3891,1.3163,1.2722,1.2375,1.2045,1.1714,1.1314,1.0913,1.0496,1.0022,0.9561,0.0,0.0,0.8119,0.7811,0.7383,0.6884,0.6297,0.5809,0.5456,0.4868,0.4287,0.3796,0.3485,0.3082,0.2575,0.2109,0.1494,0.0774,0.0329,0.0,-0.0265,-0.0731,-0.1134,-0.1481,-0.1721,-0.2238,-0.2771,-0.3263,-0.3944,-0.4642,-0.5165,-0.5586,-0.6105,-0.6696,-0.6923,-0.7169,-0.7409,-0.7846,-0.8106,-0.8158,-0.8634,-0.913,-0.9529,-1.0068,-1.0605,-1.134,-1.1731,-1.2175,-1.2565,-1.2807,-1.305,-1.3298,-1.3539,-1.3829,-1.407,-1.4352,-1.4688,-1.507,-1.5445,-1.5689,-1.5832,-1.6218,-1.6454,-1.6602,-1.6824,-1.7059,1.7473,1.7279,1.7279,1.7279,1.72,1.7066,1.7026,1.6831,1.6749,1.7007,1.7073,1.7184,1.7499,1.7443,1.7279,1.7232,1.7268,1.7185,1.6744,1.7428,1.7845,1.7426,1.7615,1.7824,1.8005,1.7655,0.0,0.0,0.0,0.0,1.6729,1.6127,1.5447,1.4761,1.4636,1.4233,1.3641,1.317,1.2774,1.2507,1.2111,1.1696,1.1388,1.0904,1.0425,0.9896,0.0,0.0,0.0,0.818,0.7797,0.7398,0.6741,0.6226,0.5779,0.5345,0.4817,0.426,0.3923,0.3522,0.3114,0.2856,0.2132,0.131,0.0814,0.0425,0.0104,-0.0207,-0.0613,-0.101,-0.1415,-0.1718,-0.218,-0.3136,-0.3765,-0.429,-0.4869,-0.5096,-0.5373,-0.6004,-0.6411,-0.6736,-0.6898,-0.7316,-0.7718,-0.7909,-0.8137,-0.8581,-0.9229,-0.948,-0.992,-1.0757,-1.1243,-1.1683,-1.2127,-1.2419,-1.271,-1.2953,-1.3201,-1.3443,-1.3738,-1.4016,-1.4346,-1.4592,-1.5064,-1.5356,-1.5404,-1.5838,-1.6076,-1.6123,-1.64,-1.6643,1.7473,1.7279,1.7279,1.7279,1.7286,1.7239,1.7019,1.6979,1.6978,1.7015,1.707,1.7166,1.7442,1.7565,1.7483,1.7226,1.7601,1.7742,1.7129,1.7954,1.8398,1.7845,1.8185,0.0,1.8339,1.8195,0.0,0.0,0.0,0.0,0.0,1.6479,1.5934,1.4969,1.4774,1.4441,1.3906,1.3503,1.3301,1.3301,1.2572,1.2157,1.193,1.1449,1.0969,1.0433,0.0,0.0,0.0,0.861,0.8115,0.7633,0.722,0.6761,0.6251,0.5587,0.5324,0.5204,0.4592,0.3992,0.3449,0.3444,0.2623,0.1631,0.1579,0.1197,0.0621,0.0102,-0.0051,-0.0303,-0.1061,-0.1415,-0.1921,-0.2985,-0.3336,-0.3641,-0.4157,-0.4789,-0.5216,-0.532,-0.5827,-0.6329,-0.657,-0.6782,-0.7056,-0.7547,-0.7842,-0.8137,-0.8482,-0.913,-0.9628,-0.9727,-1.0659,-1.1247,-1.1292,-1.1785,-1.2175,-1.2467,-1.2716,-1.2958,-1.3147,-1.3636,-1.407,-1.4346,-1.464,-1.4885,-1.5131,-1.5404,-1.5642,-1.5832,-1.6123,-1.6359,1.738,1.7279,1.7279,1.7279,1.7279,1.7279,1.72,1.72,1.7192,1.7229,1.7401,1.756,1.751,1.7707,1.7747,1.7483,1.7757,1.7909,1.7687,1.8248,1.8582,1.8398,1.8506,1.8612,0.0,0.0,0.0,0.0,0.0,0.0,0.0,1.6817,1.6402,1.551,1.5424,1.5011,1.4207,1.408,1.3884,1.3682,1.3049,1.2633,1.2359,1.17,1.1164,1.078,0.0,0.0,0.0,0.9061,0.8576,0.8147,0.7481,0.7091,0.6865,0.6196,0.571,0.5363,0.5036,0.4505,0.3921,0.3679,0.3178,0.2537,0.1875,0.1493,0.1173,0.0607,0.0253,-0.0051,-0.0404,-0.1061,-0.1718,-0.2122,-0.264,-0.3164,-0.352,-0.3951,-0.4382,-0.4842,-0.5169,-0.5498,-0.5901,-0.6319,-0.6639,-0.6839,-0.7391,-0.7842,-0.8137,-0.8584,-0.8981,-0.9331,-1.0167,-1.0855,-1.1145,-1.1389,-1.1683,-1.2127,-1.2419,-1.2662,-1.2905,-1.3249,-1.3539,-1.3823,-1.4256,-1.4496,-1.464,-1.5029,-1.5315,-1.541,-1.5642,-1.5879,1.738,1.7279,1.7279,1.7279,1.7279,1.7279,1.7279,1.7279,1.7305,1.7347,1.7631,1.7839,1.7648,1.7905,1.801,1.7747,1.8029,1.8187,1.802,1.8537,1.8861,1.8875,0.0,1.8868,0.0,0.0,0.0,0.0,0.0,0.0,0.0,1.7381,1.6844,1.599,1.5916,1.5478,1.474,1.4604,1.4376,1.3922,1.3466,1.3088,1.2715,1.2083,1.1568,0.0,0.0,0.0,0.0,0.9417,0.9038,0.8626,0.7878,0.7485,0.733,0.6746,0.6193,0.5711,0.5427,0.4992,0.4448,0.4076,0.3721,0.3243,0.2418,0.1938,0.1617,0.1162,0.0556,0.0,0.0,-0.0657,-0.1415,-0.1566,-0.202,-0.2523,-0.2876,-0.323,-0.3633,-0.4234,-0.4583,-0.4935,-0.5286,-0.5784,-0.6234,-0.6387,-0.6889,-0.7394,-0.7739,-0.8084,-0.8435,-0.8786,-0.9476,-1.0162,-1.0801,-1.09,-1.1194,-1.1736,-1.1927,-1.2224,-1.2565,-1.2861,-1.3104,-1.3298,-1.3823,-1.4058,-1.4058,-1.4592,-1.4838,-1.4885,-1.5213,-1.5547,1.738,1.7279,1.7279,1.7279,1.7279,1.7279,1.7279,1.7279,1.7279,1.7286,1.7618,1.7917,1.7924,1.817,1.8325,1.8016,1.8523,1.8692,1.8076,1.8777,1.9315,0.0,1.9193,1.9217,1.9553,0.0,0.0,0.0,0.0,0.0,0.0,0.0,1.7373,1.6318,1.6095,1.5849,1.5468,1.5066,1.4637,1.4116,1.3727,1.3396,1.2965,1.2649,0.0,0.0,0.0,0.0,0.0,0.9775,0.9333,0.8849,0.8362,0.7945,0.7551,0.7268,0.6916,0.6436,0.5891,0.539,0.4924,0.4667,0.4152,0.3536,0.3282,0.2626,0.1921,0.1667,0.0808,0.0,0.0,-0.0404,-0.096,-0.1465,-0.1617,-0.1768,-0.227,-0.2826,-0.323,-0.323,-0.4083,-0.4784,-0.4784,-0.5233,-0.5787,-0.6337,-0.6387,-0.6587,-0.7138,-0.769,-0.7988,-0.7988,-0.8482,-0.9122,-0.992,-1.0265,-1.0659,-1.1145,-1.1194,-1.1438,-1.198,-1.2516,-1.2813,-1.2813,-1.3249,-1.3491,-1.3491,-1.4064,-1.4298,-1.4346,-1.4838,-1.5363,1.7267,1.7279,1.7279,1.7279,1.7279,1.7279,1.7279,1.7279,1.7279,1.7279,1.7756,1.8108,1.7917,1.8381,1.8646,1.8325,1.8624,1.8802,1.8636,1.9008,1.9375,1.9533,1.968,1.9745,0.0,0.0,0.0,0.0,0.0,0.0,0.0,0.0,1.7569,1.6794,1.647,1.6169,1.5844,1.5505,1.5199,1.4806,1.4138,1.369,1.3325,1.2878,0.0,0.0,0.0,0.0,0.0,1.027,0.982,0.9322,0.8887,0.8471,0.8156,0.766,0.7194,0.6753,0.6348,0.591,0.5476,0.49,0.4609,0.4334,0.3883,0.3179,0.2424,0.1768,0.1364,0.101,0.0657,0.0152,-0.0303,-0.0455,-0.1061,-0.1667,-0.1818,-0.2271,-0.2775,-0.313,-0.3482,-0.3883,-0.4437,-0.4836,-0.5186,-0.5539,-0.6037,-0.6487,-0.6637,-0.7138,-0.7587,-0.7939,-0.809,-0.8515,-0.949,-0.9683,-0.987,-1.031,-1.0632,-1.0929,-1.1226,-1.1758,-1.2123,-1.2273,-1.2764,-1.3007,-1.3007,-1.3485,-1.3919,-1.4298,-1.4496,-1.4831,1.7255,1.7517,1.7613,1.7613,1.7613,1.7613,1.7613,1.7613,1.7613,1.7613,1.8045,1.8412,1.8214,1.8695,1.8966,1.8646,1.8954,1.9195,1.9078,1.9317,1.9549,1.9709,0.0,0.0,0.0,0.0,0.0,0.0,0.0,0.0,0.0,0.0,1.7891,1.7443,1.7,1.662,1.6299,1.5885,1.5474,1.5074,1.4612,1.4136,1.3761,0.0,0.0,0.0,0.0,0.0,0.0,1.0662,1.0204,0.9702,0.9262,0.8927,0.8589,0.8045,0.7617,0.7166,0.6666,0.629,0.5928,0.5306,0.4985,0.4684,0.4183,0.3531,0.2826,0.212,0.1768,0.1516,0.1212,0.0707,0.0253,0.0051,-0.0505,-0.1061,-0.1263,-0.1717,-0.2221,-0.2524,-0.2928,-0.3381,-0.3885,-0.4234,-0.4636,-0.4987,-0.5486,-0.5887,-0.6187,-0.6637,-0.7068,-0.7467,-0.7527,-0.7859,-0.86,-0.893,-0.9253,-0.9562,-0.9972,-1.031,-1.0485,-1.1013,-1.1355,-1.1484,-1.2054,-1.2389,-1.2389,-1.2963,-1.3491,-1.401,-1.401,-1.4304,0.0,1.7819,1.8056,1.8079,1.8087,1.8087,1.8087,1.8087,0.0,1.8087,1.8444,1.8723,1.8723,1.9051,1.9227,1.9026,1.9452,1.9697,1.9463,1.97,0.0,0.0,2.0319,0.0,0.0,0.0,0.0,0.0,0.0,0.0,0.0,0.0,0.0,1.8262,1.7616,1.7119,1.6762,1.6149,1.5551,1.5039,1.5024,1.4731,1.4237,0.0,0.0,0.0,0.0,0.0,0.0,1.1045,1.0536,1.0032,0.9602,0.9261,0.8906,0.8493,0.8031,0.7577,0.6869,0.654,0.6337,0.5787,0.5286,0.4734,0.4234,0.3682,0.313,0.2623,0.207,0.1667,0.1617,0.1262,0.0706,0.0202,0.005,-0.0151,-0.0654,-0.1157,-0.156,-0.1611,-0.2416,-0.3123,-0.3173,-0.3629,-0.4133,-0.4684,-0.4784,-0.5083,-0.5832,-0.6176,-0.6429,-0.6651,-0.6867,-0.7095,-0.7348,-0.814,-0.873,-0.8993,-0.9284,-0.9528,-0.9815,-1.0278,-1.0514,-1.0575,-1.1244,-1.1637,-1.1684,-1.2368,-1.2963,-1.3414,-1.3414,-1.3709,1.7212,0.0,1.7758,1.8025,1.8087,1.8087,0.0,1.8087,1.8087,1.8087,1.858,1.9011,1.9011,1.9348,1.9583,1.9532,1.966,1.9759,1.9697,2.0356,0.0,2.0872,2.1183,0.0,0.0,0.0,0.0,0.0,0.0,0.0,0.0,0.0,0.0,1.8612,1.8045,1.755,1.714,1.6586,1.6066,1.5698,1.5277,1.4874,1.4476,0.0,0.0,0.0,0.0,0.0,0.0,1.1385,1.0975,1.0532,1.0217,0.9871,0.9519,0.8876,0.8455,0.82,0.7489,0.6999,0.6642,0.6092,0.5541,0.5037,0.4736,0.4085,0.3433,0.313,0.2775,0.2424,0.2021,0.165,0.1335,0.0988,0.044,-0.0048,-0.0145,-0.0628,-0.1112,-0.1499,-0.1811,-0.2224,-0.3062,-0.33,-0.3581,-0.4083,-0.4533,-0.4862,-0.4993,-0.5426,-0.5871,-0.6188,-0.6183,-0.638,-0.6828,-0.74,-0.7825,-0.8154,-0.8366,-0.8694,-0.9109,-0.9382,-0.9679,-1.0065,-1.0575,-1.1069,-1.1487,-1.1631,-1.2072,-1.2669,-1.2669,-1.3011,1.7146,1.7604,1.7937,1.817,1.8295,1.8411,1.8411,1.8411,1.8458,1.8668,1.9024,1.9344,1.9498,1.9692,1.9879,1.9879,2.002,2.0175,0.0,0.0,2.1219,2.1173,2.1423,0.0,0.0,0.0,0.0,0.0,0.0,0.0,0.0,0.0,0.0,0.0,1.8367,1.7883,1.737,1.6754,1.6324,1.6199,1.5774,1.5359,1.5061,0.0,0.0,0.0,0.0,0.0,1.2194,1.175,1.1304,1.0857,1.0582,1.0312,0.9951,0.9226,0.8871,0.8605,0.7929,0.7353,0.6892,0.6339,0.5989,0.5689,0.5286,0.4686,0.4085,0.3682,0.3279,0.2922,0.2598,0.2226,0.1812,0.1408,0.1009,0.062,0.0381,-0.0095,-0.0524,-0.0811,-0.1251,-0.1793,-0.2373,-0.2639,-0.2952,-0.3489,-0.3831,-0.4159,-0.4458,-0.4837,-0.5184,-0.5452,-0.5527,-0.5743,-0.6187,-0.6451,-0.6869,-0.7503,-0.7757,-0.8063,-0.843,-0.8654,-0.9005,-0.9559,-0.9926,-1.0384,-1.0898,-1.099,-1.1276,-1.1765,-1.1859,-1.2213,1.6994,1.766,1.8168,1.8271,1.8526,1.8764,1.8765,1.8827,1.8977,1.9343,1.9493,1.9685,1.9987,2.012,2.0138,2.0138,2.0438,0.0,2.0915,2.1184,2.1317,2.1329,0.0,0.0,0.0,0.0,0.0,0.0,0.0,0.0,0.0,0.0,0.0,0.0,1.8594,1.8158,1.7524,1.6925,1.6638,1.6539,1.6256,1.5886,1.5542,1.5051,0.0,0.0,0.0,0.0,1.2756,1.2149,1.1607,1.1185,1.0966,1.0621,1.0288,0.9652,0.9253,0.8872,0.8234,0.769,0.7238,0.6686,0.6487,0.6334,0.5867,0.5313,0.4812,0.4351,0.3757,0.3252,0.3142,0.2728,0.2275,0.1715,0.1563,0.137,0.0897,0.0425,0.0094,0.0,-0.071,-0.1376,-0.1519,-0.1904,-0.2385,-0.2859,-0.3049,-0.333,-0.4031,-0.4314,-0.4516,-0.4695,-0.4915,-0.5199,-0.5549,-0.5586,-0.5941,-0.683,-0.718,-0.7448,-0.7764,-0.8025,-0.8444,-0.9041,-0.9315,-0.9668,-1.0067,-1.0297,-1.0572,-1.0851,-1.111,-1.1375,1.6686,1.7119,1.7572,1.8152,1.8343,1.8454,1.8756,1.8966,1.9201,1.9343,1.979,2.0126,2.0329,2.0382,2.0411,2.0411,2.0764,2.122,0.0,0.0,2.1935,0.0,0.0,0.0,0.0,0.0,0.0,0.0,0.0,0.0,0.0,0.0,0.0,0.0,0.0,1.8551,1.7905,1.7511,1.7072,1.6558,1.6281,1.5827,1.5341,1.495,1.4544,0.0,0.0,0.0,1.2875,1.2488,1.2142,1.1841,1.1568,1.12,1.077,1.0241,0.9804,0.929,0.8346,0.7939,0.7789,0.7238,0.6786,0.6368,0.6224,0.5806,0.5347,0.5161,0.4469,0.3676,0.3174,0.2977,0.2751,0.2233,0.1743,0.1404,0.1313,0.0905,0.0453,0.0091,-0.0138,-0.0465,-0.1162,-0.1509,-0.1812,-0.2099,-0.2717,-0.3125,-0.3211,-0.3577,-0.3963,-0.4328,-0.4408,-0.4625,-0.5055,-0.5097,-0.5319,-0.5897,-0.634,-0.6782,-0.7187,-0.7676,-0.8076,-0.8352,-0.8629,-0.8865,-0.9111,-0.9385,-0.9707,-1.0157,-1.0373,-1.0682,1.6396,1.6849,1.7361,1.8069,1.839,1.8632,1.9123,1.9342,1.9551,2.0012,2.0304,2.0582,2.102,2.1111,2.1198,2.126,0.0,2.1494,2.2017,2.2074,0.0,0.0,0.0,0.0,0.0,0.0,0.0,0.0,0.0,0.0,0.0,0.0,0.0,0.0,0.0,0.0,1.8464,1.8033,1.7439,1.6863,1.6529,1.6187,1.5783,1.5306,1.4911,0.0,0.0,1.3674,1.3315,1.2822,1.2495,1.2164,1.1896,1.1508,1.1043,1.0323,0.9748,0.9237,0.8656,0.8333,0.8124,0.7694,0.7275,0.6908,0.6639,0.6216,0.5761,0.5647,0.4939,0.4131,0.3814,0.3584,0.3229,0.2691,0.2393,0.2152,0.1884,0.1436,0.1031,0.0807,0.0452,0.0045,-0.0455,-0.0779,-0.1108,-0.1616,-0.1985,-0.2253,-0.255,-0.2956,-0.3351,-0.3542,-0.3764,-0.4121,-0.4565,-0.461,-0.4921,-0.5675,-0.6118,-0.652,-0.6697,-0.7095,-0.7401,-0.7617,-0.7885,-0.8105,-0.8364,-0.8584,-0.8903,-0.9231,-0.9438,-0.9745,1.6166,1.6659,1.7269,1.8085,1.8441,1.8811,1.9443,1.9633,1.9878,2.0568,2.0757,2.0973,2.1593,2.1725,2.1802,2.2097,2.1941,2.1978,2.2461,0.0,0.0,0.0,0.0,0.0,0.0,0.0,0.0,0.0,0.0,0.0,0.0,0.0,0.0,0.0,0.0,0.0,1.883,1.8373,1.7757,1.7092,1.6765,1.645,1.6101,1.5632,1.5278,1.4943,1.4527,1.4116,1.3802,1.3315,1.2876,1.2599,1.2281,1.1791,1.1164,1.0302,0.9742,0.9331,0.9076,0.8803,0.8456,0.8091,0.7742,0.7353,0.7023,0.6558,0.6109,0.5987,0.5376,0.4724,0.4466,0.4129,0.3704,0.3193,0.3002,0.2868,0.2467,0.1973,0.1615,0.1436,0.0987,0.0538,0.0224,-0.009,-0.0493,-0.0987,-0.1211,-0.148,-0.1974,-0.2377,-0.2689,-0.2778,-0.3183,-0.363,-0.4076,-0.4164,-0.452,-0.5319,-0.5852,-0.6207,-0.6251,-0.6517,-0.6741,-0.6922,-0.7183,-0.7445,-0.7705,-0.7925,-0.8153,-0.8432,-0.8636,-0.8899,1.5871,1.6516,1.731,1.8249,1.8498,1.8704,1.9422,1.9754,2.0054,2.0608,2.0845,2.111,2.1593,2.1725,2.1913,2.263,2.27,2.2954,0.0,0.0,0.0,0.0,0.0,0.0,0.0,0.0,0.0,0.0,0.0,0.0,0.0,0.0,0.0,0.0,0.0,0.0,1.8536,1.8516,1.8015,1.7091,1.6812,1.6404,1.5892,1.5618,1.529,1.4956,1.4719,1.4439,1.4116,1.3802,1.3478,1.3186,1.2724,1.1969,1.1028,1.0559,1.0179,0.992,0.9628,0.9274,0.8895,0.8642,0.806,0.749,0.7385,0.6972,0.6484,0.6177,0.5877,0.5431,0.4533,0.4265,0.4129,0.3678,0.3361,0.3136,0.2913,0.2647,0.2199,0.1525,0.1345,0.1166,0.0718,0.0269,-0.0045,-0.009,-0.0673,-0.1211,-0.1436,-0.1705,-0.2063,-0.2469,-0.278,-0.3136,-0.3631,-0.3807,-0.4072,-0.4389,-0.5095,-0.5539,-0.5764,-0.5991,-0.6263,-0.6444,-0.6707,-0.6966,-0.7139,-0.7411,-0.768,-0.7944,-0.8157,-0.838,1.5541,1.6341,1.7236,1.8234,1.8732,1.915,1.9859,2.0305,2.0712,2.1263,2.165,2.1976,2.2449,2.2182,2.2146,2.2664,2.2772,0.0,0.0,0.0,0.0,0.0,0.0,0.0,0.0,0.0,0.0,0.0,0.0,0.0,0.0,0.0,0.0,0.0,0.0,0.0,0.0,1.8656,1.8181,1.7656,1.7229,1.6791,1.6365,1.6111,1.5844,1.5517,1.5256,1.488,1.4428,1.3965,1.3582,1.328,1.2454,1.181,1.129,1.0829,1.0462,1.0199,0.9989,0.961,0.9176,0.8816,0.8336,0.7844,0.7728,0.732,0.6901,0.6757,0.6432,0.5944,0.5191,0.4879,0.461,0.4166,0.3942,0.3764,0.3406,0.3048,0.2645,0.2376,0.2108,0.1749,0.1211,0.0987,0.0718,0.0314,-0.0134,-0.0493,-0.0762,-0.1121,-0.148,-0.1794,-0.2333,-0.2781,-0.3136,-0.336,-0.3583,-0.3853,-0.4567,-0.5057,-0.5238,-0.5369,-0.5547,-0.5774,-0.5991,-0.6257,-0.6479,-0.67,-0.701,-0.7408,-0.7496,-0.776,1.5224,1.6126,1.7038,1.8094,1.8777,1.9385,2.0064,2.0652,2.122,2.1812,2.2351,2.2789,2.3103,2.2795,2.2663,0.0,0.0,0.0,0.0,0.0,0.0,0.0,0.0,0.0,0.0,0.0,0.0,0.0,0.0,0.0,0.0,0.0,0.0,0.0,0.0,0.0,0.0,1.8804,1.8387,1.7977,1.7612,1.7187,1.6708,1.6398,1.6091,1.5743,1.5492,1.5071,1.4573,1.4137,1.3658,1.3251,1.243,1.1974,1.1596,1.1201,1.0863,1.0546,1.032,0.9858,0.9384,0.9129,0.8697,0.8226,0.8151,0.776,0.7319,0.7272,0.6918,0.652,0.5994,0.5547,0.5099,0.4654,0.452,0.4389,0.3942,0.3585,0.3269,0.3047,0.269,0.2288,0.1839,0.1615,0.1345,0.0807,0.0493,0.0224,-0.009,-0.0493,-0.0897,-0.1256,-0.1794,-0.2242,-0.251,-0.2734,-0.3004,-0.3229,-0.3721,-0.4212,-0.4614,-0.4659,-0.4835,-0.5193,-0.5324,-0.5547,-0.5861,-0.608,-0.639,-0.6789,-0.683,-0.7143,1.4904,1.5819,1.6805,1.778,1.8583,1.9359,1.9965,2.0734,2.1445,2.2097,2.2855,2.3397,2.3397,2.3397,0.0,2.3819,0.0,0.0,0.0,0.0,0.0,0.0,0.0,0.0,0.0,0.0,0.0,0.0,0.0,0.0,0.0,0.0,0.0,0.0,0.0,0.0,0.0,1.9018,1.8601,1.8018,1.8018,1.7558,1.6691,1.6426,1.601,1.5493,1.5202,1.4955,1.4695,1.4321,1.3769,1.3048,1.2799,1.2415,1.198,1.1683,1.1308,1.0848,1.0605,1.0063,0.9511,0.9506,0.9104,0.8592,0.8592,0.8288,0.7852,0.758,0.7312,0.7051,0.6836,0.6254,0.5583,0.5097,0.501,0.4877,0.4387,0.43,0.4076,0.3361,0.3047,0.2823,0.2558,0.2109,0.1705,0.1436,0.1256,0.0942,0.0448,0.0179,-0.0269,-0.1031,-0.1256,-0.148,-0.1749,-0.2019,-0.2289,-0.2467,-0.2513,-0.2914,-0.3849,-0.39,-0.4125,-0.4661,-0.4705,-0.4928,-0.5371,-0.5597,-0.5822,-0.6083,-0.6299,-0.652,1.4509,1.5341,1.6234,1.7326,1.823,1.9187,2.0184,2.0825,2.1515,2.2595,2.3287,2.3696,2.3696,2.3555,0.0,0.0,0.0,0.0,0.0,0.0,0.0,0.0,0.0,0.0,0.0,0.0,0.0,0.0,0.0,0.0,0.0,0.0,0.0,0.0,0.0,0.0,0.0,0.0,1.8928,1.8578,1.811,1.7602,1.6948,1.6689,1.639,1.6061,1.5601,1.5247,1.4937,1.4244,1.3623,1.3057,1.2861,1.2574,1.2252,1.1755,1.1517,1.1323,1.074,1.0331,1.0024,0.9699,0.935,0.9082,0.9082,0.8771,0.8372,0.8285,0.789,0.7415,0.7159,0.6738,0.6242,0.5637,0.5497,0.5364,0.4877,0.4701,0.448,0.4032,0.3762,0.3492,0.3048,0.2778,0.2466,0.2199,0.1839,0.1436,0.0942,0.0538,0.0134,-0.0269,-0.0538,-0.0852,-0.1256,-0.1391,-0.1557,-0.1919,-0.1925,-0.2384,-0.3358,-0.3406,-0.3587,-0.39,-0.4074,-0.4297,-0.4612,-0.4882,-0.5196,-0.5594,-0.5819,-0.6041,1.4216,1.5033,1.5847,1.6949,1.8004,1.9134,2.0413,2.1317,2.2158,2.3072,2.3623,2.3954,2.3954,2.3854,0.0,0.0,0.0,0.0,0.0,0.0,0.0,0.0,0.0,0.0,0.0,0.0,0.0,0.0,0.0,0.0,0.0,0.0,0.0,0.0,0.0,0.0,0.0,0.0,0.0,1.8557,1.8169,1.7666,1.7058,1.6832,1.648,1.6072,1.5573,1.5183,1.4874,1.4311,1.3817,1.3394,1.3152,1.285,1.2512,1.2083,1.1728,1.1441,1.0945,1.0617,1.0386,0.9993,0.9733,0.9563,0.9432,0.917,0.8842,0.8762,0.8322,0.7843,0.7563,0.7226,0.6784,0.6101,0.5881,0.571,0.5234,0.5019,0.4848,0.4541,0.4193,0.3843,0.3584,0.3277,0.2972,0.2714,0.2336,0.1861,0.1417,0.1026,0.0718,0.0448,0.0089,-0.0222,-0.0532,-0.0704,-0.0912,-0.1153,-0.1242,-0.164,-0.2317,-0.26,-0.2891,-0.3139,-0.3405,-0.3626,-0.3851,-0.421,-0.4567,-0.4968,-0.5191,-0.5413,1.3859,1.4752,1.5591,1.6589,1.7854,1.9272,2.0642,2.1933,2.2968,2.34,2.3862,2.4205,2.4242,2.4251,0.0,0.0,0.0,0.0,0.0,0.0,0.0,0.0,0.0,0.0,0.0,0.0,0.0,0.0,0.0,0.0,0.0,0.0,0.0,0.0,0.0,0.0,0.0,0.0,0.0,0.0,1.824,1.7783,1.708,1.6848,1.6381,1.5784,1.5315,1.4981,1.4742,1.4442,1.416,1.3925,1.3607,1.3225,1.2786,1.2507,1.2029,1.1431,1.1143,1.0906,1.0727,1.0424,1.0207,1.0038,0.9777,0.9506,0.9283,0.9049,0.8641,0.8287,0.8073,0.7693,0.7151,0.6569,0.622,0.5951,0.5491,0.5368,0.5243,0.4829,0.4411,0.4118,0.4078,0.3697,0.3318,0.3072,0.2696,0.2297,0.1819,0.1586,0.1382,0.1159,0.0703,0.0391,0.0347,-0.0043,-0.0294,-0.0335,-0.0503,-0.0756,-0.1008,-0.1675,-0.215,-0.2416,-0.2688,-0.2913,-0.3138,-0.3582,-0.3939,-0.421,-0.4474,-0.4741,1.3106,1.4186,1.5358,1.6102,1.7987,1.984,2.0456,2.1563,2.2621,2.3204,2.3669,2.4117,2.463,0.0,0.0,0.0,0.0,0.0,0.0,0.0,0.0,0.0,0.0,0.0,0.0,0.0,0.0,0.0,0.0,0.0,0.0,0.0,0.0,0.0,0.0,0.0,2.0642,1.9804,1.9168,0.0,1.837,1.7929,1.7542,1.7145,1.6516,1.5784,1.5547,1.5261,1.4987,1.4736,1.4448,1.4184,1.369,1.3297,1.2959,1.2581,1.2327,1.2071,1.1472,1.1197,1.1111,1.0727,1.0598,1.0559,1.0467,1.001,0.9531,0.9484,0.895,0.8377,0.8333,0.7897,0.7403,0.7282,0.6888,0.645,0.6153,0.5945,0.5702,0.5243,0.5077,0.491,0.462,0.4281,0.3944,0.353,0.3125,0.2755,0.2456,0.2211,0.1961,0.1534,0.1373,0.1153,0.0793,0.0663,0.0491,0.016,0.0122,-0.0123,-0.0533,-0.1192,-0.1698,-0.1926,-0.2224,-0.2467,-0.2648,-0.2957,-0.3226,-0.3451,-0.3894,-0.4206,1.2536,1.363,1.4895,1.6345,1.8014,1.95,2.0305,2.1059,2.1879,2.2981,2.3402,2.3822,2.4466,0.0,0.0,0.0,0.0,0.0,0.0,0.0,0.0,0.0,0.0,0.0,0.0,0.0,0.0,0.0,0.0,0.0,0.0,0.0,0.0,0.0,0.0,0.0,2.0475,1.9821,1.9312,1.8902,1.8505,1.801,1.7444,1.7142,1.669,1.615,1.5779,1.5491,1.5196,1.482,1.4484,1.4192,1.3819,1.3457,1.3036,1.2734,1.2428,1.2171,1.1775,1.1639,1.1553,1.1117,1.0982,1.0918,1.06,1.0239,0.9895,0.9645,0.9145,0.8681,0.8581,0.8172,0.7791,0.7791,0.7274,0.6722,0.6481,0.6284,0.6046,0.5678,0.5436,0.5197,0.4912,0.4587,0.4225,0.3903,0.3615,0.335,0.306,0.2798,0.2523,0.2313,0.2061,0.1796,0.1556,0.1336,0.1159,0.0944,0.0716,0.048,0.024,-0.029,-0.0808,-0.126,-0.1538,-0.1776,-0.1974,-0.2241,-0.2555,-0.2867,-0.3227,-0.354,1.211,1.32,1.4595,1.6724,1.7885,1.884,2.0032,2.0558,2.1178,2.2582,2.3063,2.3495,0.0,0.0,0.0,0.0,0.0,0.0,0.0,0.0,0.0,0.0,0.0,0.0,0.0,0.0,0.0,0.0,0.0,0.0,0.0,0.0,0.0,0.0,0.0,2.0738,2.0193,1.9901,1.9408,1.8786,1.8463,1.7918,1.7244,1.7062,1.6807,1.646,1.5985,1.5645,1.5389,1.487,1.4508,1.4282,1.4013,1.3627,1.3203,1.2979,1.2606,1.2166,1.2123,1.208,1.1995,1.1548,1.1413,1.1327,1.0716,1.0454,1.03,0.9841,0.9385,0.9008,0.8866,0.8518,0.8255,0.8217,0.7676,0.7096,0.683,0.6606,0.6374,0.6096,0.567,0.5359,0.5124,0.4813,0.4501,0.4272,0.4146,0.3915,0.3632,0.3367,0.316,0.3077,0.2671,0.2399,0.2303,0.1986,0.1767,0.1689,0.1335,0.11,0.1021,0.0721,0.0206,-0.043,-0.078,-0.1052,-0.125,-0.1522,-0.1883,-0.233,-0.2602,-0.2827,1.1649,1.3307,1.5059,1.6385,1.7458,1.8374,1.928,2.0164,2.1023,0.0,2.2567,0.0,0.0,0.0,0.0,0.0,0.0,0.0,0.0,0.0,0.0,0.0,0.0,0.0,0.0,0.0,0.0,0.0,0.0,0.0,0.0,0.0,2.2408,2.1826,2.1405,0.0,2.0474,2.0071,1.9455,1.8705,1.794,1.7502,1.7368,1.7113,1.6647,1.6059,1.5742,1.5631,1.5535,1.5053,1.486,1.4751,1.4052,1.3755,1.3692,1.3415,1.3174,1.2924,1.2711,1.2491,1.2283,1.1989,1.1909,1.1863,1.1514,1.1048,1.0587,1.0308,0.9741,0.9248,0.9213,0.9051,0.8851,0.8665,0.8399,0.8055,0.7484,0.7219,0.6949,0.6602,0.6135,0.5747,0.5556,0.5323,0.5124,0.4927,0.4711,0.445,0.4058,0.3992,0.3801,0.3403,0.3281,0.3081,0.2761,0.2673,0.2472,0.2157,0.2079,0.1884,0.1533,0.1458,0.1199,0.0698,-0.0085,-0.0523,-0.0524,-0.0979,-0.13,-0.1569,-0.1839,-0.2199,1.1587,1.3139,1.4585,1.5559,1.661,1.7649,1.8429,1.9324,2.0183,2.0972,2.1785,0.0,0.0,0.0,0.0,0.0,0.0,0.0,0.0,0.0,0.0,0.0,0.0,0.0,0.0,0.0,0.0,0.0,0.0,0.0,2.3235,2.2751,2.2308,2.1904,2.1375,0.0,2.0623,2.0065,1.9379,1.8537,1.7825,1.745,1.7321,1.6862,1.6548,1.6367,1.5958,1.5704,1.5573,1.5,1.4715,1.4572,1.4144,1.3883,1.3735,1.3485,1.3355,1.3264,1.3137,1.3052,1.2881,1.2497,1.2275,1.2069,1.1559,1.1152,1.0745,1.0489,1.0111,0.9771,0.9657,0.9506,0.9273,0.9089,0.8975,0.8784,0.8432,0.7902,0.7407,0.7026,0.6602,0.6251,0.6177,0.5864,0.5589,0.5509,0.524,0.4971,0.4776,0.4584,0.4348,0.4151,0.3921,0.3728,0.353,0.3333,0.3136,0.2938,0.2666,0.2472,0.2277,0.2041,0.1854,0.1634,0.0783,0.0212,0.0,-0.035,-0.0618,-0.0852,-0.1211,-0.1525,1.1471,1.268,1.3805,1.4728,1.5654,1.6588,1.7581,1.8432,1.9238,0.0,0.0,0.0,0.0,0.0,0.0,0.0,0.0,0.0,0.0,0.0,0.0,0.0,0.0,0.0,0.0,0.0,0.0,0.0,0.0,0.0,2.3243,2.2677,2.2236,2.1916,2.1392,2.0962,2.064,1.9842,1.9066,1.8359,1.7793,1.7462,1.7303,1.6808,1.6632,1.6682,1.6169,1.581,1.5589,1.5084,1.4776,1.4573,1.4328,1.4117,1.3942,1.373,1.3603,1.3568,1.3483,1.3389,1.3248,1.2904,1.2594,1.2243,1.1662,1.1298,1.101,1.0738,1.0481,1.0255,1.0105,0.996,0.9771,0.9587,0.9544,0.943,0.9003,0.8394,0.7825,0.7446,0.7099,0.6868,0.6756,0.6444,0.6212,0.6096,0.5825,0.5592,0.5476,0.5204,0.4971,0.4854,0.4584,0.435,0.4272,0.3997,0.3761,0.3645,0.3333,0.3059,0.2942,0.2666,0.2469,0.2353,0.1717,0.1153,0.0644,0.0389,0.0132,-0.0134,-0.0538,-0.0807,1.1009,1.1847,1.2902,1.3971,1.4524,1.5203,1.6631,1.7587,1.842,1.9295,0.0,0.0,0.0,0.0,0.0,0.0,0.0,0.0,0.0,0.0,0.0,0.0,0.0,0.0,0.0,0.0,0.0,0.0,0.0,0.0,2.3059,2.2793,2.238,2.1742,2.1491,2.1069,2.0412,1.9271,1.8556,1.8297,1.768,1.7384,1.7384,1.7147,1.691,1.6662,1.6283,1.5937,1.568,1.545,1.5235,1.5048,1.4783,1.465,1.4608,1.444,1.4237,1.4046,1.3779,1.3394,1.3004,1.3004,1.2772,1.2447,1.2137,1.1772,1.1396,1.1152,1.0775,1.0481,1.0481,1.0475,1.04,1.0218,1.0143,0.9879,0.8927,0.8551,0.825,0.7859,0.7744,0.7633,0.7219,0.7146,0.6988,0.6641,0.6563,0.6367,0.5941,0.5864,0.5705,0.5321,0.5243,0.5087,0.4701,0.4662,0.4467,0.4079,0.404,0.3843,0.337,0.3409,0.3214,0.2787,0.2711,0.2318,0.1527,0.1134,0.0806,0.0538,0.0403,0.0045,1.0712,1.1407,1.2162,1.2974,1.3936,1.4828,1.5361,1.6455,1.745,1.7882,0.0,0.0,0.0,0.0,0.0,0.0,0.0,0.0,0.0,0.0,0.0,0.0,0.0,0.0,0.0,0.0,0.0,0.0,0.0,0.0,2.2901,2.2793,2.2381,2.1609,2.1512,2.0982,1.9886,1.9151,1.8642,1.8359,1.7848,1.7578,1.7587,1.7383,1.7188,1.6935,1.6812,1.6443,1.5955,1.5692,1.5484,1.5276,1.5033,1.4866,1.4692,1.4608,1.4448,1.4207,1.4118,1.3757,1.3307,1.316,1.285,1.2441,1.2177,1.1866,1.1615,1.1515,1.1372,1.1223,1.1111,1.0962,1.0812,1.0481,1.0406,1.025,0.976,0.9193,0.8737,0.858,0.8356,0.8131,0.7983,0.7748,0.7518,0.7403,0.7138,0.6911,0.6756,0.6521,0.6289,0.6135,0.5864,0.5628,0.5467,0.524,0.501,0.4893,0.4623,0.4428,0.4231,0.3997,0.3804,0.3647,0.3333,0.2788,0.1973,0.1729,0.1472,0.1222,0.0917,0.07,1.0341,1.0881,1.1444,1.2159,1.3104,1.3944,1.4426,1.5421,1.6402,0.0,0.0,0.0,0.0,0.0,0.0,0.0,0.0,0.0,0.0,0.0,0.0,0.0,0.0,0.0,0.0,0.0,0.0,0.0,0.0,0.0,2.3076,2.2756,2.2174,2.131,2.1118,2.0573,1.9629,1.9167,1.8778,1.8482,1.7983,1.7723,1.7715,1.7317,1.706,1.6932,1.6861,1.6597,1.6196,1.5868,1.5658,1.5438,1.5097,1.4849,1.4678,1.4549,1.4381,1.4212,1.4165,1.3843,1.343,1.3287,1.2968,1.2619,1.2423,1.2166,1.1892,1.1892,1.1781,1.1669,1.1558,1.1409,1.1223,1.0962,1.085,1.0738,1.055,0.9911,0.9382,0.9231,0.897,0.8746,0.8627,0.8394,0.8165,0.8012,0.7791,0.7565,0.7407,0.7176,0.6945,0.6834,0.6521,0.6286,0.6163,0.5896,0.567,0.5515,0.5243,0.5049,0.4896,0.4662,0.4428,0.4314,0.3997,0.3523,0.2829,0.2436,0.2152,0.2033,0.1618,0.1369,0.0,0.0,0.0,1.1592,1.1938,1.2475,1.3839,0.0,1.5207,0.0,0.0,0.0,0.0,0.0,0.0,0.0,0.0,0.0,0.0,0.0,0.0,0.0,0.0,0.0,0.0,0.0,0.0,0.0,0.0,2.3484,2.3484,2.2639,2.1726,2.0829,2.0387,1.997,1.9602,1.9173,1.8865,1.8674,1.8088,1.7778,1.7769,1.6966,1.6598,1.6598,1.6387,1.6354,1.638,1.6028,1.5768,1.5538,1.4935,1.4691,1.4652,1.4255,1.413,1.4084,1.3881,1.36,1.3303,1.3303,1.3138,1.29,1.29,1.2636,1.2335,1.2335,1.204,1.1744,1.1744,1.1706,1.1706,1.1706,1.1558,1.1372,1.1149,1.0663,1.0105,0.9695,0.962,0.9506,0.9079,0.9041,0.8889,0.8475,0.8403,0.8284,0.7897,0.7821,0.7672,0.7257,0.7219,0.7065,0.6679,0.6637,0.6405,0.598,0.5941,0.5747,0.5359,0.5321,0.5126,0.4737,0.474,0.4545,0.4118,0.3332,0.2935,0.2915,0.2502,0.2059,0.9856,0.0,0.0,0.0,0.0,0.0,0.0,0.0,0.0,0.0,0.0,0.0,0.0,0.0,0.0,0.0,0.0,0.0,0.0,0.0,0.0,0.0,0.0,0.0,0.0,0.0,0.0,0.0,0.0,2.3368,2.308,2.1941,2.1147,2.09,2.0139,1.9724,1.9605,1.8894,1.8548,1.8461,1.7876,1.7567,1.7567,1.718,1.6948,1.6805,1.6607,1.6456,1.6288,1.5841,1.5576,1.5405,1.5071,1.4909,1.4909,1.4793,1.4535,1.4228,1.419,1.3744,1.3211,1.3211,1.308,1.29,1.29,1.2826,1.2716,1.2716,1.2636,1.2526,1.2378,1.2224,1.2114,1.1966,1.1744,1.1595,1.1558,1.1409,1.1074,1.0406,1.0143,0.9954,0.969,0.9539,0.9354,0.9094,0.8941,0.8789,0.8699,0.8399,0.8208,0.8097,0.7791,0.7595,0.7476,0.7215,0.6988,0.6834,0.656,0.6367,0.6251,0.5902,0.567,0.555,0.5282,0.5087,0.4971,0.4143,0.3608,0.3337,0.2925,0.2567,0.9766,1.0047,1.0301,1.0782,0.0,0.0,1.228,1.2877,0.0,0.0,0.0,0.0,0.0,0.0,0.0,0.0,0.0,0.0,0.0,0.0,0.0,0.0,0.0,0.0,0.0,0.0,0.0,0.0,2.3432,2.2949,2.2365,2.1575,2.1013,2.067,1.9982,1.9531,1.9336,1.8707,1.8362,1.8286,1.7655,1.7384,1.7347,1.6986,1.6769,1.6631,1.6476,1.6292,1.605,1.5708,1.5498,1.5383,1.5,1.4795,1.4758,1.4645,1.4448,1.4222,1.4222,1.394,1.3593,1.3593,1.3521,1.3368,1.3309,1.3229,1.3119,1.3046,1.2973,1.2863,1.2753,1.2636,1.2526,1.2415,1.2298,1.2187,1.2077,1.2003,1.1744,1.1037,1.07,1.0519,1.0331,1.0105,0.9922,0.9695,0.9511,0.9354,0.9273,0.8975,0.8746,0.8665,0.8432,0.8241,0.805,0.7829,0.7642,0.7446,0.7211,0.7022,0.6872,0.6602,0.6367,0.6212,0.598,0.5747,0.5553,0.4737,0.4155,0.3763,0.3501,0.3268,0.9633,0.9844,1.0028,1.0405,1.0743,0.0,1.1835,1.2366,1.2859,0.0,0.0,0.0,0.0,0.0,0.0,0.0,0.0,0.0,0.0,0.0,0.0,0.0,0.0,0.0,0.0,0.0,2.3184,2.3184,2.293,2.2372,2.1531,2.1471,2.1076,2.0323,1.9822,1.9411,1.9013,1.8546,1.823,1.8054,1.7461,1.7162,1.7144,1.6572,1.6342,1.6342,1.6167,1.6035,1.5832,1.5647,1.551,1.5401,1.4868,1.4605,1.4461,1.4274,1.4165,1.4165,1.4129,1.4129,1.4093,1.4093,1.4093,1.4057,1.3899,1.3717,1.3528,1.3346,1.3156,1.3039,1.3039,1.301,1.301,1.301,1.2973,1.2863,1.2709,1.2526,1.2224,1.1669,1.1335,1.1111,1.0887,1.07,1.0513,1.0293,1.0105,0.9922,0.9733,0.9511,0.9316,0.9155,0.9079,0.8927,0.8556,0.8475,0.8322,0.7974,0.7897,0.771,0.7334,0.7296,0.7103,0.6756,0.6679,0.6444,0.598,0.5165,0.4584,0.4235,0.4196,0.396,0.9426,0.9587,0.9726,0.0,0.0,0.0,1.1134,1.1389,1.1767,0.0,0.0,0.0,0.0,0.0,0.0,0.0,0.0,0.0,0.0,0.0,0.0,0.0,0.0,0.0,0.0,0.0,2.3184,2.3184,2.2643,2.2085,2.1549,2.1181,2.0778,2.0238,1.981,1.9429,1.9019,1.8272,1.7895,1.7849,1.7255,1.6958,1.6948,1.6683,1.6542,1.6542,1.6342,1.6237,1.6202,1.6026,1.5716,1.5268,1.5122,1.5062,1.5026,1.482,1.4641,1.4497,1.4389,1.4245,1.4093,1.4093,1.4093,1.4093,1.4057,1.4029,1.3985,1.3949,1.3912,1.3876,1.3876,1.3746,1.3608,1.3608,1.3382,1.3119,1.3083,1.2936,1.2746,1.2636,1.204,1.1521,1.1335,1.126,1.1111,1.0738,1.0643,1.0567,1.0331,1.0143,0.9992,0.9954,0.969,0.9468,0.9354,0.9084,0.8846,0.877,0.8475,0.825,0.8174,0.7863,0.7633,0.7553,0.7253,0.6872,0.6444,0.5592,0.5126,0.5049,0.4737,0.4545,0.0,0.0,0.0,0.9483,0.0,0.0,0.0,1.0741,1.1063,0.0,0.0,0.0,0.0,0.0,0.0,0.0,0.0,0.0,0.0,0.0,0.0,0.0,0.0,0.0,0.0,0.0,2.2501,2.2501,2.2206,2.176,2.1196,2.0921,2.0494,1.9925,1.9358,1.8971,1.8697,1.8088,1.7738,1.7642,1.7244,1.7038,1.7038,1.6821,1.6751,1.6726,1.6542,1.6438,1.6438,1.6272,1.6026,1.5736,1.5453,1.5275,1.5204,1.5106,1.4999,1.4883,1.4812,1.474,1.4669,1.4669,1.4561,1.4461,1.4389,1.4238,1.4093,1.4093,1.4093,1.4093,1.4093,1.4029,1.3964,1.3964,1.3811,1.3666,1.3666,1.3484,1.3309,1.3229,1.279,1.2335,1.1929,1.1781,1.1595,1.1298,1.1155,1.1049,1.0962,1.0775,1.0625,1.0519,1.0331,1.0105,0.9916,0.9722,0.9496,0.9311,0.9122,0.8899,0.8703,0.8508,0.8313,0.8118,0.7706,0.7407,0.7211,0.6556,0.6018,0.5592,0.5395,0.5204,0.0,0.0,0.0,0.0,0.0,0.9747,0.0,0.0,0.0,0.0,0.0,0.0,0.0,0.0,0.0,0.0,0.0,0.0,0.0,0.0,0.0,0.0,0.0,0.0,0.0,0.0,2.1538,2.1538,2.1538,2.1298,2.0753,2.0569,2.0183,1.9535,1.897,1.8533,1.8334,1.7898,1.7647,1.7529,1.7348,1.7279,1.7235,1.7072,1.6978,1.6934,1.6786,1.6682,1.6647,1.6438,1.6377,1.6307,1.5815,1.5532,1.5346,1.5275,1.5275,1.524,1.5204,1.5204,1.5204,1.5204,1.5106,1.4935,1.4748,1.4525,1.431,1.431,1.431,1.431,1.431,1.431,1.431,1.431,1.4238,1.4201,1.4201,1.4036,1.3826,1.3637,1.3492,1.3156,1.2526,1.2268,1.2114,1.1892,1.1744,1.1595,1.1521,1.1372,1.1186,1.0999,1.0925,1.0775,1.0475,1.0368,1.018,0.9846,0.9771,0.9576,0.9231,0.915,0.8917,0.8533,0.8199,0.8012,0.7897,0.7599,0.6984,0.6135,0.6054,0.5864,0.0,0.0,0.0,0.0,0.8784,0.0,0.0,0.0,0.9973,1.05,0.0,0.0,0.0,0.0,0.0,0.0,0.0,0.0,0.0,0.0,0.0,0.0,0.0,0.0,0.0,0.0,0.0,2.055,2.055,2.0519,2.0432,2.0252,1.988,1.9279,1.9014,1.8586,1.8052,1.7813,1.7672,1.7672,1.752,1.747,1.747,1.7436,1.7323,1.7166,1.7132,1.7028,1.6839,1.6647,1.6568,1.6533,1.6167,1.6026,1.5956,1.5603,1.5461,1.5426,1.5275,1.5204,1.5204,1.5204,1.5169,1.5169,1.5133,1.5098,1.5098,1.5098,1.5098,1.5098,1.5098,1.5098,1.5098,1.5098,1.4812,1.4533,1.4533,1.4281,1.4057,1.4021,1.4021,1.3731,1.2973,1.2826,1.2716,1.2526,1.2489,1.2342,1.1966,1.1892,1.1818,1.1632,1.1446,1.1298,1.126,1.0925,1.07,1.0663,1.0331,1.0105,1.0067,0.9717,0.9334,0.8922,0.8884,0.8699,0.8327,0.8289,0.7829,0.7026,0.6679,0.6486,0.0,0.0,0.0,0.0,0.0,0.0,0.9146,0.0,0.9496,0.0,0.0,0.0,0.0,0.0,0.0,0.0,0.0,0.0,0.0,0.0,0.0,0.0,0.0,0.0,0.0,0.0,0.0,0.0,0.0,2.0307,2.0048,1.9873,1.9528,1.8978,1.8718,1.8414,1.8178,1.7964,1.7862,1.7862,1.7691,1.7623,1.7623,1.7529,1.747,1.7358,1.7358,1.7323,1.722,1.7151,1.7063,1.6925,1.6656,1.6412,1.6202,1.6026,1.5956,1.5956,1.5885,1.5842,1.5815,1.5611,1.5461,1.5355,1.524,1.5204,1.5204,1.5204,1.5204,1.5204,1.5204,1.5204,1.5204,1.5204,1.5062,1.4955,1.4955,1.4848,1.4705,1.4605,1.4461,1.4274,1.3848,1.3564,1.3309,1.301,1.2936,1.2826,1.2562,1.2526,1.2452,1.2224,1.215,1.2003,1.1781,1.1595,1.1416,1.1161,1.0755,1.0562,1.0539,1.0169,0.9873,0.9685,0.9463,0.9273,0.9089,0.8856,0.8513,0.8055,0.7407,0.7061,0.9364,0.0,0.0,0.0,0.0,0.0,0.0,0.0,0.0,0.0,0.0,0.0,0.0,0.0,1.1886,1.2106,0.0,0.0,0.0,0.0,0.0,0.0,0.0,0.0,0.0,0.0,0.0,0.0,0.0,0.0,1.9627,1.9469,1.9223,1.8818,1.8573,1.8405,1.8303,1.8178,1.8042,1.8008,1.7862,1.7784,1.7784,1.7666,1.7608,1.7564,1.7564,1.7529,1.7505,1.7505,1.7426,1.7279,1.7116,1.6874,1.6586,1.6377,1.6307,1.6307,1.6307,1.6307,1.6272,1.6008,1.5823,1.5674,1.5559,1.5488,1.5488,1.5488,1.5488,1.5488,1.5488,1.5488,1.5488,1.5488,1.5453,1.5453,1.5453,1.5346,1.5248,1.5078,1.4892,1.474,1.4641,1.4217,1.3783,1.3484,1.3448,1.3375,1.3156,1.3163,1.3046,1.279,1.2753,1.2636,1.2268,1.2194,1.1979,1.1583,1.1285,1.1086,1.0981,1.0694,1.0481,1.0368,1.0067,0.9884,0.9771,0.942,0.9155,0.8932,0.8131,0.7638,0.0,0.0,0.0,0.8831,0.0,0.0,0.0,0.0,0.9237,0.0,0.0,0.0,0.0,1.0791,1.1405,1.144,1.2112,0.0,0.0,0.0,0.0,0.0,0.0,0.0,0.0,0.0,0.0,0.0,0.0,0.0,1.9129,1.9129,1.9019,1.8808,1.8774,1.864,1.8303,1.8303,1.8202,1.8008,1.7974,1.7974,1.7974,1.7974,1.7862,1.7672,1.7672,1.7623,1.7505,1.7505,1.7505,1.7505,1.747,1.747,1.7367,1.6595,1.6307,1.6307,1.6307,1.6307,1.6307,1.6272,1.6272,1.6272,1.6272,1.6272,1.6272,1.6272,1.6272,1.6272,1.6272,1.6272,1.6272,1.6272,1.6167,1.6061,1.6061,1.5788,1.5497,1.547,1.5311,1.5169,1.5169,1.4561,1.4093,1.4057,1.4057,1.3992,1.379,1.3754,1.3608,1.3229,1.32,1.3083,1.29,1.2693,1.2405,1.1998,1.1979,1.1781,1.1409,1.1372,1.1186,1.0775,1.0775,1.0556,1.018,0.9954,0.9771,0.9544,0.8746,0.825,0.0,0.0,0.9384,0.9136,0.0,0.0,0.0,0.0,0.0,0.0,0.0,0.0,0.0,1.0584,1.1061,1.1061,1.1737,1.2307,0.0,0.0,0.0,0.0,0.0,0.0,0.0,0.0,0.0,0.0,0.0,0.0,0.0,1.9108,1.9075,1.9008,1.8875,1.8741,1.864,1.8516,1.8414,1.8347,1.8347,1.8347,1.8337,1.8058,1.7886,1.78,1.7406,1.7213,1.7158,1.7038,1.6898,1.6819,1.7097,1.7145,1.7048,1.7083,1.7081,1.7081,1.7081,1.6908,1.67,1.67,1.6517,1.6307,1.6307,1.6307,1.6307,1.6307,1.6307,1.6307,1.6307,1.6307,1.6307,1.6307,1.6272,1.6237,1.6237,1.6132,1.6026,1.6026,1.5885,1.5815,1.5815,1.539,1.4927,1.4677,1.4621,1.4521,1.4217,1.4196,1.4088,1.3811,1.3811,1.3702,1.3492,1.32,1.287,1.2613,1.2459,1.2268,1.2003,1.1855,1.1669,1.1409,1.126,1.1074,1.0812,1.0588,1.0331,0.9992,0.9728,0.9268,1.0051,0.9743,0.0,0.0,0.9211,0.0,0.9263,0.0,0.0,0.0,0.0,0.0,0.0,0.0,1.0896,1.0896,1.1413,1.1939,0.0,1.3377,0.0,0.0,0.0,0.0,0.0,0.0,0.0,0.0,0.0,0.0,0.0,0.0,1.9108,1.9108,1.8965,1.8875,1.8808,1.8684,1.8583,1.8516,1.8516,1.8516,1.8496,1.8074,1.7906,1.7875,1.7296,1.7065,1.7075,1.6918,1.6782,1.6707,1.7021,1.7161,1.7224,1.7421,1.7505,1.7505,1.7505,1.7323,1.7116,1.7116,1.6943,1.6735,1.6735,1.6735,1.6735,1.6735,1.6735,1.6735,1.6735,1.6735,1.6735,1.6735,1.6735,1.6735,1.6735,1.6656,1.6586,1.6517,1.6377,1.6272,1.6167,1.5956,1.5638,1.5185,1.5051,1.4916,1.4721,1.4665,1.4593,1.4418,1.431,1.4173,1.3928,1.3674,1.3448,1.3222,1.3039,1.282,1.2636,1.2415,1.2224,1.2003,1.1818,1.1632,1.1409,1.1149,1.0887,1.0625,1.0481,1.0137]}]]